[[{"header":{"parameterUnit":"m.s-1","parameterCategory":1,"la1":30.6,"la2":29.2853,"lo1":-89.7004,"lo2":-87.6739,"dy":0.0162,"dx":0.0183,"nx":112,"ny":82,"refTime":"2024-04-13T12:00:00:Z","depth":0,"parameterNumber":2,"parameterNumberName":"U-component_of_WINDS"},"data":[0.0,0.0,0.0,0.0,0.0,0.0,0.0,0.0,0.0,0.0,0.0,0.0,0.0,0.0,0.0,0.0,0.0,0.0,0.0,0.0,0.0,0.0,0.0,0.0,0.0,0.0,0.0,0.0,0.0,0.0,0.0,0.0,0.0,0.0,0.0,0.0,0.0,0.0,0.0,0.0,0.0,0.0,0.0,0.0,0.0,0.0,0.0,0.0,0.0,0.0,0.0,0.0,0.0,0.0,0.0,0.0,0.0,0.0,0.0,0.0,0.0,0.0,0.0,0.0,0.0,0.0,0.0,0.0,0.0,0.0,0.0,0.0,0.0,0.0,0.0,0.0,0.0,0.0,0.0,0.0,0.0,0.0,0.0,0.0,0.0,0.0,0.0,0.0,0.0,0.0,-5.2263,-5.293,-5.5147,-5.6156,-5.5072,-5.546,-5.4323,-5.0912,0.0,0.0,0.0,0.0,0.0,0.0,0.0,0.0,0.0,0.0,0.0,0.0,0.0,0.0,0.0,0.0,0.0,0.0,0.0,0.0,0.0,0.0,0.0,0.0,0.0,0.0,0.0,0.0,0.0,0.0,0.0,0.0,0.0,0.0,0.0,0.0,0.0,0.0,0.0,0.0,0.0,0.0,0.0,0.0,0.0,0.0,0.0,0.0,0.0,0.0,0.0,0.0,0.0,0.0,0.0,0.0,0.0,0.0,0.0,0.0,0.0,0.0,0.0,0.0,0.0,0.0,0.0,0.0,0.0,0.0,0.0,0.0,0.0,0.0,0.0,0.0,0.0,0.0,0.0,0.0,0.0,0.0,0.0,0.0,0.0,0.0,0.0,0.0,0.0,0.0,0.0,0.0,0.0,0.0,0.0,0.0,0.0,0.0,0.0,0.0,0.0,0.0,0.0,0.0,-5.3474,-5.5783,-5.7402,-5.7538,-5.5563,-5.5025,-5.338,-5.0017,0.0,0.0,0.0,0.0,0.0,0.0,0.0,0.0,0.0,0.0,0.0,0.0,0.0,0.0,0.0,0.0,0.0,0.0,0.0,0.0,0.0,0.0,0.0,0.0,0.0,0.0,0.0,0.0,0.0,0.0,0.0,0.0,0.0,0.0,0.0,0.0,0.0,0.0,0.0,0.0,0.0,0.0,0.0,0.0,0.0,0.0,0.0,0.0,0.0,0.0,0.0,0.0,0.0,0.0,0.0,0.0,0.0,0.0,0.0,0.0,0.0,0.0,0.0,0.0,0.0,0.0,0.0,0.0,0.0,0.0,0.0,0.0,0.0,0.0,0.0,0.0,0.0,0.0,0.0,0.0,0.0,0.0,0.0,0.0,0.0,0.0,0.0,0.0,0.0,0.0,0.0,0.0,0.0,0.0,0.0,0.0,0.0,0.0,0.0,0.0,0.0,0.0,0.0,-5.0931,-5.2435,-5.5246,-5.5679,-5.5398,-5.441,-5.4415,-5.3066,-4.9703,-5.0552,0.0,0.0,0.0,0.0,0.0,0.0,0.0,0.0,0.0,0.0,0.0,0.0,0.0,0.0,0.0,0.0,0.0,0.0,0.0,0.0,0.0,0.0,0.0,0.0,0.0,0.0,0.0,0.0,0.0,0.0,0.0,0.0,0.0,0.0,0.0,0.0,0.0,0.0,0.0,0.0,0.0,0.0,0.0,0.0,0.0,0.0,0.0,0.0,0.0,0.0,0.0,0.0,0.0,0.0,0.0,0.0,0.0,0.0,0.0,0.0,0.0,0.0,0.0,0.0,0.0,0.0,0.0,0.0,0.0,0.0,0.0,0.0,0.0,0.0,0.0,0.0,0.0,0.0,0.0,0.0,0.0,0.0,0.0,0.0,0.0,0.0,0.0,0.0,0.0,0.0,0.0,0.0,0.0,0.0,0.0,0.0,0.0,0.0,0.0,0.0,0.0,0.0,-5.0694,-5.2327,-5.4506,-5.4379,-5.4068,-5.376,-5.4412,-5.3229,-4.9496,-4.9899,0.0,0.0,0.0,0.0,0.0,0.0,0.0,0.0,0.0,0.0,0.0,0.0,0.0,0.0,0.0,0.0,0.0,0.0,0.0,0.0,0.0,0.0,0.0,0.0,0.0,0.0,0.0,0.0,0.0,0.0,0.0,0.0,0.0,0.0,0.0,0.0,0.0,0.0,0.0,0.0,0.0,0.0,0.0,0.0,0.0,0.0,0.0,0.0,0.0,0.0,0.0,0.0,0.0,0.0,0.0,0.0,0.0,0.0,0.0,0.0,0.0,0.0,0.0,0.0,0.0,0.0,0.0,0.0,0.0,0.0,0.0,0.0,0.0,0.0,0.0,0.0,0.0,0.0,0.0,0.0,0.0,0.0,0.0,0.0,0.0,0.0,0.0,0.0,0.0,0.0,0.0,0.0,0.0,0.0,0.0,0.0,0.0,0.0,0.0,0.0,0.0,0.0,-5.3339,-5.5318,-5.5071,-5.6051,-5.6249,-5.5049,-5.5567,-5.3954,-4.9139,-4.9431,0.0,0.0,0.0,0.0,0.0,0.0,0.0,0.0,0.0,0.0,0.0,0.0,0.0,0.0,0.0,0.0,0.0,0.0,0.0,0.0,0.0,0.0,0.0,0.0,0.0,0.0,0.0,0.0,0.0,0.0,0.0,0.0,0.0,0.0,0.0,0.0,0.0,0.0,0.0,0.0,0.0,0.0,0.0,0.0,0.0,0.0,0.0,0.0,0.0,0.0,0.0,0.0,0.0,0.0,0.0,0.0,0.0,0.0,0.0,0.0,0.0,0.0,0.0,0.0,0.0,0.0,0.0,0.0,0.0,0.0,0.0,0.0,0.0,0.0,0.0,0.0,0.0,0.0,0.0,0.0,0.0,0.0,0.0,0.0,0.0,0.0,0.0,0.0,0.0,0.0,0.0,0.0,0.0,0.0,0.0,0.0,0.0,0.0,0.0,0.0,0.0,0.0,-5.2062,-5.359,-5.4334,-5.4507,-5.4466,-5.4164,-5.4206,-5.2768,-4.9328,0.0,0.0,0.0,0.0,0.0,0.0,0.0,0.0,0.0,0.0,0.0,0.0,0.0,0.0,0.0,0.0,0.0,0.0,0.0,0.0,0.0,0.0,0.0,0.0,0.0,0.0,0.0,0.0,0.0,0.0,0.0,0.0,0.0,0.0,0.0,0.0,0.0,0.0,0.0,0.0,0.0,0.0,0.0,0.0,0.0,0.0,0.0,0.0,0.0,0.0,0.0,0.0,0.0,0.0,0.0,0.0,0.0,0.0,0.0,0.0,0.0,0.0,0.0,0.0,0.0,0.0,0.0,0.0,0.0,0.0,0.0,0.0,0.0,0.0,0.0,0.0,0.0,0.0,0.0,0.0,0.0,0.0,0.0,0.0,0.0,0.0,0.0,0.0,0.0,0.0,0.0,0.0,0.0,0.0,0.0,0.0,0.0,0.0,0.0,0.0,0.0,0.0,-4.9813,-5.1312,-5.2794,-5.3859,-5.3784,-5.3704,-5.3926,-5.3922,-5.2558,-4.9485,0.0,0.0,0.0,0.0,0.0,0.0,0.0,0.0,0.0,0.0,0.0,0.0,0.0,0.0,0.0,0.0,0.0,0.0,0.0,0.0,0.0,0.0,0.0,0.0,0.0,0.0,0.0,0.0,0.0,0.0,0.0,0.0,0.0,0.0,0.0,0.0,0.0,0.0,0.0,0.0,0.0,0.0,0.0,0.0,0.0,0.0,0.0,0.0,0.0,0.0,0.0,0.0,0.0,0.0,0.0,0.0,0.0,0.0,0.0,0.0,0.0,0.0,0.0,0.0,0.0,0.0,0.0,0.0,0.0,0.0,0.0,0.0,0.0,0.0,0.0,0.0,0.0,0.0,0.0,0.0,0.0,0.0,0.0,0.0,0.0,0.0,0.0,0.0,0.0,0.0,0.0,0.0,0.0,0.0,0.0,0.0,0.0,0.0,0.0,0.0,0.0,0.0,-4.9292,-5.1809,-5.3708,-5.3975,-5.4409,-5.4704,-5.4704,-5.519,-5.3707,0.0,0.0,0.0,0.0,0.0,0.0,0.0,0.0,0.0,0.0,0.0,0.0,0.0,0.0,0.0,0.0,0.0,0.0,0.0,0.0,0.0,0.0,0.0,0.0,0.0,0.0,0.0,0.0,0.0,0.0,0.0,0.0,0.0,0.0,0.0,0.0,0.0,0.0,0.0,0.0,0.0,0.0,0.0,0.0,0.0,0.0,0.0,0.0,0.0,0.0,0.0,0.0,0.0,0.0,0.0,0.0,0.0,0.0,0.0,0.0,0.0,0.0,0.0,0.0,0.0,0.0,0.0,0.0,0.0,0.0,0.0,0.0,0.0,0.0,0.0,0.0,0.0,0.0,0.0,0.0,0.0,0.0,0.0,0.0,0.0,0.0,0.0,0.0,0.0,0.0,0.0,0.0,0.0,0.0,0.0,0.0,0.0,0.0,0.0,0.0,0.0,0.0,0.0,-4.982,-5.2059,-5.3921,-5.4759,-5.5122,-5.5354,-5.5554,-5.5302,-5.3683,-5.0286,0.0,0.0,0.0,0.0,0.0,0.0,0.0,0.0,0.0,0.0,0.0,0.0,0.0,0.0,0.0,0.0,0.0,0.0,0.0,0.0,0.0,0.0,0.0,0.0,0.0,0.0,0.0,0.0,0.0,0.0,0.0,0.0,0.0,0.0,0.0,0.0,0.0,0.0,0.0,0.0,0.0,0.0,0.0,0.0,0.0,0.0,0.0,0.0,0.0,0.0,0.0,0.0,0.0,0.0,0.0,0.0,0.0,0.0,0.0,0.0,0.0,0.0,0.0,0.0,0.0,0.0,0.0,0.0,0.0,0.0,0.0,0.0,0.0,0.0,0.0,0.0,0.0,0.0,0.0,0.0,0.0,0.0,0.0,0.0,0.0,0.0,0.0,0.0,0.0,0.0,0.0,0.0,0.0,0.0,0.0,0.0,0.0,0.0,0.0,0.0,0.0,0.0,-4.9498,-5.2166,-5.4185,-5.4518,-5.5122,-5.5531,-5.5525,-5.5113,-5.3766,-5.1269,0.0,0.0,0.0,0.0,0.0,0.0,0.0,0.0,0.0,0.0,0.0,0.0,0.0,0.0,0.0,0.0,0.0,0.0,0.0,0.0,0.0,0.0,0.0,0.0,0.0,0.0,0.0,0.0,0.0,0.0,0.0,0.0,0.0,0.0,0.0,0.0,0.0,0.0,0.0,0.0,0.0,0.0,0.0,0.0,0.0,0.0,0.0,0.0,0.0,0.0,0.0,0.0,0.0,0.0,0.0,0.0,0.0,0.0,0.0,0.0,0.0,0.0,0.0,0.0,0.0,0.0,0.0,0.0,0.0,0.0,0.0,0.0,0.0,0.0,0.0,0.0,0.0,0.0,0.0,0.0,0.0,0.0,0.0,0.0,0.0,0.0,0.0,0.0,0.0,0.0,0.0,0.0,0.0,0.0,0.0,0.0,0.0,0.0,0.0,0.0,0.0,0.0,-4.8741,-5.2181,-5.4429,-5.3722,-5.4768,-5.5383,-5.5083,-5.4745,-5.3901,-5.2382,0.0,0.0,0.0,0.0,0.0,0.0,0.0,0.0,0.0,0.0,0.0,0.0,0.0,0.0,0.0,0.0,0.0,0.0,0.0,0.0,0.0,0.0,0.0,0.0,0.0,0.0,0.0,0.0,0.0,0.0,0.0,0.0,0.0,0.0,0.0,0.0,0.0,0.0,0.0,0.0,0.0,0.0,0.0,0.0,0.0,0.0,0.0,0.0,0.0,0.0,0.0,0.0,0.0,0.0,0.0,0.0,0.0,0.0,0.0,0.0,-6.1103,-5.8637,0.0,0.0,0.0,0.0,0.0,0.0,0.0,0.0,0.0,0.0,0.0,0.0,0.0,0.0,0.0,0.0,0.0,0.0,0.0,0.0,0.0,0.0,0.0,0.0,0.0,0.0,0.0,0.0,0.0,0.0,0.0,0.0,0.0,0.0,0.0,0.0,0.0,0.0,0.0,0.0,-4.9183,-5.2194,-5.433,-5.4154,-5.4969,-5.5472,-5.5413,-5.5169,-5.4421,-5.2916,-5.2381,0.0,0.0,0.0,0.0,0.0,0.0,0.0,0.0,0.0,0.0,0.0,0.0,0.0,0.0,0.0,0.0,0.0,0.0,0.0,0.0,0.0,0.0,0.0,0.0,0.0,0.0,0.0,0.0,0.0,0.0,0.0,0.0,0.0,0.0,0.0,0.0,0.0,0.0,0.0,0.0,0.0,0.0,0.0,0.0,0.0,0.0,0.0,0.0,0.0,0.0,0.0,0.0,0.0,0.0,0.0,0.0,0.0,0.0,0.0,-6.2008,-6.1001,0.0,0.0,0.0,0.0,0.0,0.0,0.0,0.0,0.0,0.0,0.0,0.0,0.0,0.0,0.0,0.0,0.0,0.0,0.0,0.0,0.0,0.0,0.0,0.0,0.0,0.0,0.0,0.0,0.0,0.0,0.0,0.0,0.0,0.0,0.0,0.0,0.0,0.0,0.0,0.0,-4.9284,-5.2249,-5.4256,-5.408,-5.4834,-5.5324,-5.5174,-5.5144,-5.4795,-5.3992,-5.3171,0.0,0.0,0.0,0.0,0.0,0.0,0.0,0.0,0.0,0.0,0.0,0.0,0.0,0.0,0.0,0.0,0.0,0.0,0.0,0.0,0.0,0.0,0.0,0.0,0.0,0.0,0.0,0.0,0.0,0.0,0.0,0.0,0.0,0.0,0.0,0.0,0.0,0.0,0.0,0.0,0.0,0.0,0.0,0.0,0.0,0.0,0.0,0.0,0.0,0.0,0.0,0.0,0.0,-5.9465,-5.9685,-6.119,-5.9722,-6.0603,-6.3184,-6.2401,-6.3099,-6.4541,-6.0518,0.0,0.0,0.0,0.0,0.0,0.0,0.0,0.0,0.0,0.0,0.0,0.0,0.0,0.0,0.0,0.0,0.0,0.0,0.0,0.0,0.0,0.0,0.0,0.0,-5.4667,-5.4897,-5.4177,0.0,0.0,0.0,0.0,0.0,0.0,0.0,0.0,0.0,0.0,0.0,-5.0022,-5.259,-5.429,-5.4052,-5.4695,-5.5083,-5.4842,-5.4961,-5.5053,-5.5053,-5.3863,-5.3061,0.0,0.0,0.0,0.0,0.0,0.0,0.0,0.0,0.0,0.0,0.0,0.0,0.0,0.0,0.0,0.0,0.0,0.0,0.0,0.0,0.0,0.0,0.0,0.0,0.0,0.0,0.0,0.0,0.0,0.0,0.0,0.0,-6.1704,-6.2401,0.0,0.0,0.0,0.0,0.0,0.0,0.0,0.0,0.0,0.0,0.0,0.0,0.0,-6.0126,-6.0566,-6.1153,-6.1777,-6.245,-6.2291,-6.3062,-6.464,-6.3723,-6.3906,-6.4934,-6.4127,0.0,-6.3085,-6.2566,0.0,0.0,0.0,0.0,0.0,0.0,0.0,0.0,0.0,0.0,0.0,0.0,0.0,0.0,0.0,0.0,0.0,0.0,0.0,0.0,0.0,0.0,-5.6455,-5.715,-5.7391,-5.7564,0.0,-5.4975,-5.2222,-5.2839,-5.2218,0.0,0.0,0.0,0.0,0.0,0.0,0.0,-5.2839,-5.4009,-5.4761,-5.4852,-5.4953,-5.5022,-5.4961,-5.5079,-5.5169,-5.5169,-5.5149,-5.4478,-5.3026,-5.2895,0.0,0.0,0.0,0.0,0.0,0.0,0.0,0.0,0.0,0.0,0.0,0.0,0.0,0.0,0.0,0.0,0.0,0.0,0.0,0.0,0.0,0.0,0.0,0.0,0.0,0.0,0.0,0.0,0.0,-6.0603,-6.0566,-6.1374,-6.0102,-5.9148,0.0,0.0,0.0,0.0,0.0,0.0,0.0,0.0,0.0,-6.1704,-6.1373,-6.1593,-6.2475,-6.2475,-6.2647,-6.2904,-6.2978,-6.3197,-6.3471,-6.3142,-6.2893,-6.2827,-6.2466,-6.2076,-6.1715,-6.1697,-6.1399,-6.0838,0.0,0.0,0.0,0.0,-5.9094,-5.8406,-6.0388,-5.9905,-5.8237,-5.7335,0.0,0.0,0.0,0.0,0.0,0.0,0.0,0.0,0.0,0.0,-5.5908,-5.7529,-5.7598,-5.7495,-5.8219,-5.6805,-5.5391,0.0,-5.2977,-5.0907,-5.0666,0.0,0.0,0.0,0.0,-5.2934,-5.3684,-5.4448,-5.493,-5.4992,-5.5083,-5.5109,-5.5109,-5.5264,-5.5354,-5.5354,-5.5448,-5.5162,-5.4437,-5.3618,-5.2523,0.0,0.0,0.0,0.0,0.0,0.0,0.0,0.0,0.0,0.0,0.0,0.0,0.0,0.0,0.0,0.0,0.0,0.0,0.0,0.0,0.0,0.0,0.0,0.0,0.0,0.0,0.0,0.0,-6.0896,-6.0456,-6.1263,-6.0456,-5.9575,0.0,0.0,0.0,0.0,0.0,0.0,-6.1055,-6.1079,-6.1875,-6.3492,-6.3076,-6.3334,-6.451,-6.4058,-6.3811,-6.3677,-6.3774,-6.3443,-6.2703,-6.2703,-6.2245,-6.1486,-6.1307,-6.12,-6.1194,-6.092,-6.125,-6.1796,-6.0159,-5.9743,-6.0132,-6.0489,-6.0027,-5.9469,-6.1774,-6.1398,-5.9909,-5.9909,-5.9116,-5.8047,-5.7529,0.0,0.0,0.0,0.0,-5.4701,-5.6598,-5.6219,-5.5805,-5.7495,-5.7495,-5.7288,-5.8012,-5.7426,-5.6805,0.0,-5.4356,-5.208,-5.2313,0.0,0.0,0.0,0.0,-5.4639,-5.4992,-5.5227,-5.5362,-5.5392,-5.5339,-5.5259,-5.5259,-5.5413,-5.5507,-5.5507,-5.5507,-5.5507,-5.5507,-5.4384,-5.3576,-5.3218,0.0,0.0,0.0,0.0,0.0,0.0,0.0,0.0,0.0,0.0,0.0,0.0,0.0,0.0,0.0,0.0,0.0,0.0,0.0,0.0,0.0,0.0,0.0,0.0,0.0,0.0,0.0,0.0,0.0,-6.3796,-6.2475,0.0,0.0,0.0,0.0,-6.0346,-6.0501,-6.1272,-6.2781,-6.2975,-6.3822,-6.5497,-6.5521,-6.5558,-6.5632,-6.5595,-6.5558,-6.5558,-6.5558,-6.5132,-6.4274,-6.4274,-6.3841,-6.303,-6.2348,-6.2027,-6.1996,-6.1341,-6.0308,-5.9085,-5.9038,-5.8631,-5.8217,-5.9702,-6.0186,-6.0462,-6.2741,-6.3015,-6.1944,-5.984,-5.7633,-5.6184,-5.8254,-5.7357,0.0,0.0,-5.7219,-5.6805,-5.7633,-5.7805,-5.7771,-5.7874,-5.7874,-5.8047,-5.8806,-5.615,-5.446,0.0,-5.7667,-5.708,-5.5891,0.0,-5.5923,-5.6581,-5.6324,-5.6589,-5.7985,-5.7067,-5.6379,-5.6531,-5.5899,-5.5478,-5.5478,-5.5478,-5.5507,-5.5507,-5.5507,-5.5507,-5.5507,-5.5437,-5.47,-5.3254,-5.3113,0.0,0.0,0.0,0.0,0.0,0.0,0.0,0.0,0.0,0.0,0.0,0.0,0.0,0.0,0.0,0.0,0.0,0.0,0.0,0.0,0.0,0.0,0.0,0.0,0.0,0.0,0.0,0.0,-6.1899,-6.1789,0.0,-6.1835,-6.208,-6.2448,-6.3001,-6.3566,-6.4143,-6.4709,-6.4758,-6.5078,-6.5669,-6.5804,-6.5804,-6.5706,-6.5877,-6.5925,-6.5853,-6.5791,-6.5128,-6.3978,-6.4299,-6.3538,-6.1982,-6.2131,-6.1961,-6.1564,-6.1327,-6.087,-6.0291,-5.9908,-5.9909,-6.0151,-6.0703,-6.0909,-6.1082,-6.2427,-6.2703,-6.2427,-6.2117,-6.1427,-6.0806,-6.1151,-6.0668,-6.0047,-6.0082,-5.9909,-5.9702,-5.9598,-5.9495,-5.9323,-5.9042,-5.8869,-5.8905,-5.9283,-5.8311,-5.7547,-5.8102,-5.6038,-5.456,-5.5718,-5.6816,-5.7468,-5.7387,-5.7751,-5.8195,-5.8724,-5.7911,-5.7132,-5.6666,-5.635,-5.6034,-5.5543,-5.5507,-5.5507,-5.5507,-5.5507,-5.5507,-5.5507,-5.5507,-5.5262,-5.47,-5.4665,-5.2944,0.0,0.0,0.0,0.0,0.0,0.0,0.0,0.0,0.0,0.0,0.0,0.0,0.0,0.0,0.0,0.0,0.0,0.0,0.0,0.0,0.0,0.0,0.0,0.0,0.0,-6.25,-6.261,-6.1934,-6.2609,-6.3025,-6.2862,-6.3588,-6.429,-6.4844,-6.5423,-6.5891,-6.6149,-6.5891,-6.5891,-6.6149,-6.6198,-6.6174,-6.6112,-6.6543,-6.674,-6.663,-6.6395,-6.5596,-6.4411,-6.4537,-6.38,-6.2404,-6.2404,-6.223,-6.2023,-6.1499,-6.1259,-6.1114,-6.0428,-6.0496,-6.0944,-6.0944,-6.1082,-6.1427,-6.222,-6.2634,-6.2944,-6.3427,-6.36,-6.3496,-6.3013,-6.2841,-6.2703,-6.191,-6.1703,-6.1566,-6.0912,-6.0497,-6.0151,-5.9872,-5.956,-5.9352,-5.9453,-5.9311,-5.9064,-5.8474,-5.616,-5.4852,-5.6568,-5.7773,-5.8113,-5.6947,-5.8258,-5.8952,-5.7837,-5.8004,-5.8,-5.7474,-5.6912,-5.6385,-5.5929,-5.4946,-5.4665,-5.5472,-5.477,-5.47,-5.5472,-5.4735,-5.4349,-5.4349,-5.4349,-5.2804,-4.975,0.0,0.0,0.0,0.0,0.0,0.0,0.0,0.0,0.0,0.0,0.0,0.0,0.0,0.0,0.0,0.0,0.0,0.0,0.0,0.0,0.0,0.0,0.0,-6.5264,-6.4032,-6.3407,-6.4242,-6.5152,-6.5374,-6.4659,-6.5287,-6.5743,-6.578,-6.5902,-6.6308,-6.7148,-6.642,-6.6345,-6.716,-6.7074,-6.6999,-6.6999,-6.78,-6.8169,-6.8181,-6.7515,-6.6729,-6.5842,-6.5202,-6.4804,-6.4566,-6.3203,-6.2997,-6.3408,-6.1988,-6.1393,-6.1254,-6.053,-6.022,-6.0185,-6.0185,-6.0668,-6.1427,-6.2255,-6.2979,-6.36,-6.36,-6.36,-6.36,-6.36,-6.36,-6.3427,-6.2737,-6.253,-6.2324,-6.153,-6.0806,-6.0289,-6.0255,-5.9805,-5.9353,-5.9319,-5.8863,-5.8437,-5.8437,-5.8437,-5.8502,-5.866,-5.8692,-5.7926,-5.5693,-5.8083,0.0,-5.5758,-5.7491,-5.8983,-5.8878,-5.7474,-5.6526,-5.6455,-5.3717,-5.2986,-5.5367,-5.3366,-5.3127,-5.5402,-5.3331,-5.2137,-5.2137,-5.2039,-5.2004,-5.2039,0.0,0.0,0.0,0.0,0.0,0.0,0.0,0.0,0.0,0.0,0.0,0.0,0.0,0.0,0.0,0.0,0.0,0.0,0.0,0.0,0.0,-6.3833,-6.4471,-6.4572,-6.5186,-6.5593,-6.5361,-6.5534,-6.5817,-6.6211,-6.6445,-6.6864,-6.7531,-6.7543,-6.7875,-6.879,-6.8541,-6.8712,-6.9525,-6.9536,-6.951,-6.951,-6.9732,-6.9843,-6.9843,-6.9539,-6.873,-6.7474,-6.7658,-6.6884,-6.5332,-6.5475,-6.5083,-6.4285,-6.3868,-6.3066,-6.2082,-6.1289,-6.0668,-6.0185,-6.0185,-6.0668,-6.1496,-6.2806,-6.3427,-6.36,-6.36,-6.36,-6.36,-6.36,-6.36,-6.3565,-6.3358,-6.3289,-6.319,-6.2681,-6.2265,-6.1848,-6.1148,-6.0763,-6.0414,-5.9953,-5.9771,-5.9628,-5.9628,-5.9628,-5.9421,-5.8797,-5.8692,-5.8724,-5.8749,-5.9513,0.0,-5.8885,-5.9373,-5.8737,-5.5894,-5.5191,-5.4489,-5.3366,-5.2488,-5.2986,-5.5367,-5.4881,-5.484,-5.5472,-5.4875,-5.4559,-5.4559,-5.2874,-5.2312,0.0,0.0,0.0,0.0,0.0,0.0,0.0,0.0,0.0,0.0,0.0,0.0,0.0,0.0,0.0,0.0,0.0,0.0,0.0,0.0,0.0,0.0,-6.5154,-6.5647,-6.5801,-6.6316,-6.6673,-6.6628,-6.6678,-6.6888,-6.7356,-6.77,-6.8132,-6.8689,-6.8971,-6.9315,-6.9873,-6.9447,-6.9405,-6.9885,-6.9868,-6.9841,-6.9841,-6.9853,-6.986,-6.986,-6.9176,-6.8435,-6.7593,-6.7267,-6.6618,-6.5632,-6.5445,-6.5108,-6.4566,-6.4288,-6.3724,0.0,0.0,0.0,0.0,0.0,-6.122,-6.1496,-6.2703,-6.3117,-6.3117,-6.3117,-6.3324,-6.36,-6.36,-6.36,-6.36,-6.36,-6.36,-6.357,-6.341,-6.3028,-6.2578,-6.2123,-6.149,-6.0895,-6.0539,-6.0285,-6.0107,-6.0107,-6.0107,0.0,-5.9383,-5.9278,-5.9029,-5.8285,-5.9264,-5.9615,-5.8351,-5.9299,-5.9229,-5.6982,-5.6455,-5.5929,-5.5016,-5.3436,0.0,0.0,0.0,-5.4004,-5.4004,-5.4004,0.0,0.0,0.0,-5.2734,-5.4138,0.0,0.0,0.0,-5.1856,-5.1778,0.0,0.0,0.0,0.0,0.0,0.0,0.0,0.0,0.0,0.0,0.0,0.0,0.0,0.0,0.0,0.0,-6.6696,-6.7741,-6.7873,-6.7247,-6.7089,-6.7789,-6.803,-6.8081,-6.8192,-6.883,-6.931,-6.941,-7.0048,-7.0491,-7.0629,-6.9831,0.0,0.0,0.0,-6.9302,-6.9302,-6.9354,-6.9382,-6.9382,-6.8097,-6.7482,-6.7376,-6.6035,-6.5722,-6.6106,-6.4777,-6.4498,-6.4911,-6.4145,-6.3818,-6.3634,-6.291,-6.2186,-6.1634,-6.2358,-6.2048,-6.1427,-6.222,0.0,0.0,-6.2358,-6.2841,-6.3462,-6.3462,-6.3531,-6.36,-6.36,-6.36,-6.3637,-6.3891,-6.3409,-6.289,-6.3032,-6.2158,-6.1245,-6.107,-6.0606,-6.0212,-6.0107,-6.0107,-6.0107,-6.0107,-6.0107,-5.9159,-5.6455,-5.8351,-5.9124,-5.6385,-5.8421,-5.9966,-5.9615,0.0,0.0,-5.8492,-5.5297,-5.4279,-5.6596,-5.4103,-5.2523,-5.2523,-5.2453,-5.239,-5.239,-5.239,-5.3436,-5.5507,-5.5507,-5.5507,-5.5437,-5.1961,-5.147,0.0,0.0,0.0,0.0,0.0,0.0,0.0,0.0,0.0,0.0,0.0,0.0,0.0,0.0,0.0,-6.6256,-6.7063,-6.7714,-6.7741,-6.7594,-6.761,-6.7863,-6.7926,-6.8157,-6.8686,-6.8907,-6.9292,-7.0062,-7.0138,-7.0505,-7.1278,-7.1029,-7.1166,-7.1827,-7.1798,-7.1798,-7.1798,-7.183,-7.1845,-7.1816,0.0,0.0,-7.044,-7.0138,-6.9732,-6.9231,-6.8248,-6.7619,-6.7189,-6.5779,-6.4917,-6.4393,-6.3669,-6.3289,-6.3151,-6.3324,-6.2496,-6.1427,-6.222,-6.2082,-6.153,-6.153,-6.2048,-6.2703,-6.2703,-6.3117,0.0,-6.36,-6.36,-6.3673,-6.4037,-6.404,-6.3833,-6.3552,-6.3304,-6.2777,-6.1481,-6.1127,-6.0879,-6.0212,-6.0107,-6.0107,-6.0107,-6.0107,-5.9896,-5.9299,-5.9721,-5.9861,-5.9299,-5.9721,-5.9159,-5.6666,-5.628,-5.5929,-5.5262,-5.4524,-5.5086,-5.7438,-5.6385,-5.5718,-5.5718,-5.5156,-5.484,-5.484,-5.484,-5.5051,-5.5507,-5.5507,-5.5507,-5.5507,-5.4735,-5.463,0.0,0.0,0.0,0.0,0.0,0.0,0.0,0.0,0.0,0.0,0.0,-6.4934,-6.5742,0.0,-6.6145,-6.6953,-6.743,-6.7687,-6.7687,-6.7687,-6.7714,-6.7794,-6.782,-6.8098,-6.8825,-6.9265,-6.9844,-7.0707,-7.1092,-7.1496,-7.1957,-7.1937,-7.2092,-7.2496,-7.2496,-7.2496,-7.2496,-7.2137,-7.1951,-7.1951,-7.1578,-7.1015,-7.0228,-6.9865,-6.9275,-6.8516,-6.7698,-6.6998,-6.624,-6.5441,-6.5437,-6.5807,-6.5428,-6.5083,-6.4738,-6.4738,-6.4014,-6.3013,-6.3048,-6.253,-6.1841,-6.1427,-6.1565,-6.1979,-6.2358,-6.2737,-6.3117,-6.3496,-6.36,-6.3673,-6.3965,-6.4109,-6.4182,-6.4008,-6.3795,-6.3372,-6.2599,-6.2108,-6.1722,-6.1336,-6.123,-6.1125,-6.0774,-6.0704,-6.0563,-6.0142,-6.0107,-6.0107,-6.0107,-6.0107,-5.951,-5.7965,-5.779,-5.7649,-5.7228,-5.6877,-5.6982,-5.7754,-5.7438,-5.7193,-5.7193,-5.6455,-5.6069,-5.6069,-5.5718,-5.5507,-5.5507,-5.5507,-5.5507,-5.5507,-5.5507,-5.5507,0.0,0.0,0.0,0.0,0.0,0.0,0.0,-6.4127,-6.3943,-6.5448,-6.5264,-6.5191,-6.6476,-6.6219,-6.6182,-6.7467,-6.7687,-6.7687,-6.7687,-6.7687,-6.7687,-6.7687,-6.7834,-6.8238,-6.9082,-6.9853,-7.066,-7.1468,-7.2129,-7.2496,-7.2496,-7.2496,-7.2496,-7.2496,-7.2496,-7.2496,-7.2496,-7.1891,-7.1547,-7.139,-7.0806,-7.0128,-6.9384,-6.8785,-6.8213,-6.7617,-6.6853,-6.5977,-6.5135,-6.5273,-6.5994,-6.7014,-6.7152,-6.6842,-6.629,-6.6152,-6.5497,-6.46,-6.4014,-6.3324,-6.2565,-6.1599,-6.1392,-6.1599,-6.1944,-6.2151,-6.2427,-6.3186,-6.3393,-6.3464,-6.3785,-6.4036,-6.418,-6.4323,-6.4078,-6.3724,-6.3584,-6.3057,-6.2564,-6.2424,-6.2389,-6.2143,-6.1441,-6.13,-6.102,-6.0212,-6.0107,-6.0107,-6.0107,-6.0107,-6.0107,-6.0107,-6.0107,-6.0107,-6.0107,-5.9545,-5.8948,-5.8281,-5.8105,-5.8035,-5.8035,-5.7263,-5.6842,-5.6842,-5.6245,-5.5894,-5.5718,-5.5718,-5.5648,-5.5507,-5.5507,-5.5507,-6.0566,-6.1777,-6.3429,-6.4824,-6.5081,-6.5411,0.0,-6.6659,-6.6329,-6.7247,-6.7357,-6.7357,-6.7504,-6.7467,-6.7467,-6.765,-6.7687,-6.7687,-6.7687,-6.7687,-6.7687,-6.7687,-6.8311,-6.9082,-6.9889,-7.0697,-7.1505,-7.2312,-7.2459,-7.2496,-7.2496,-7.2496,-7.2496,-7.2496,-7.2496,-7.2496,-7.2496,-7.2409,-7.2078,-7.139,-7.1327,-7.0904,-7.0163,-7.0056,-6.9986,-6.9881,-6.91,-6.794,-6.6705,-6.7334,-6.7385,-6.7049,-6.7704,-6.7911,-6.7773,-6.7118,-6.5945,-6.4703,-6.46,-6.4083,-6.322,-6.1772,-6.1772,-6.2117,-6.084,-6.0909,-6.1599,-6.2393,-6.2599,-6.2845,-6.3681,-6.3927,-6.3965,-6.418,-6.4253,-6.4148,-6.3484,-6.3411,-6.3231,-6.2529,-6.2389,-6.2143,-6.1441,-6.13,-6.102,-6.0212,-6.0107,-6.0107,-6.0107,-6.0107,-6.0107,-6.0107,-6.0107,-6.0107,-6.0107,-6.0001,-5.9931,-5.9861,-5.9229,-5.8878,-5.8878,-5.8105,-5.7684,-5.7684,-5.7579,-5.7193,-5.649,-5.649,-5.6139,-5.5507,-5.5507,-5.5507,-6.2732,-6.3,-6.3319,-6.5448,-6.5668,-6.5595,-6.6733,-6.6366,-6.6145,-6.743,-6.7687,-6.7687,-6.7687,-6.7687,-6.7687,-6.7687,-6.7687,-6.7687,-6.7687,-6.7687,-6.7687,-6.7687,-6.8825,-6.9743,-7.0073,-7.0844,-7.1651,-7.2459,-7.2496,-7.2496,-7.2496,-7.2496,-7.2496,-7.2496,-7.2108,-7.2078,-7.2496,-7.2078,-7.1921,-7.2048,-7.2048,-7.164,-7.0937,-7.0937,-7.0704,-7.0264,-6.9479,-6.882,-6.8216,-6.811,-6.7878,-6.7669,-6.798,-6.8083,-6.8049,-6.7738,-6.7221,-6.66,-6.6186,-6.5531,-6.4738,-6.3634,-6.322,-6.2944,-6.1841,-6.1737,-6.1979,-6.1841,-6.1806,-6.2015,-6.2881,-6.3234,-6.3517,-6.4076,-6.4358,-6.4463,-6.4182,-6.4181,-6.4144,-6.3793,-6.3758,-6.3512,-6.2775,-6.2248,-6.1687,-6.0914,-6.0388,-6.0107,-6.0107,-6.0107,-6.0107,-6.0107,-6.0107,-6.0107,-6.0107,-6.0107,-6.0107,-6.0107,-5.9826,-5.965,-5.965,-5.8913,-5.8492,-5.8492,-5.8035,-5.7649,-5.7298,-5.7298,-5.7158,-5.6842,-5.6842,-5.6842,-6.3466,-6.3576,-6.3429,-6.5888,-6.6219,-6.6109,-6.6696,-6.6366,-6.6292,-6.7467,-6.7687,-6.7687,-6.7687,-6.7687,-6.7687,-6.7687,-6.7687,-6.7687,-6.7687,-6.7687,-6.776,-6.7981,-6.9265,-7.0183,-7.0403,-7.1174,-7.1872,-7.2459,-7.2496,-7.2496,-7.2496,-7.2496,-7.2496,-7.2496,-7.1981,-7.1951,-7.2496,-7.1951,-7.186,-7.2197,-7.2197,-7.183,-7.1099,-7.0904,-7.047,-6.9954,-6.9212,-6.8999,-6.9128,-6.8418,-6.8186,-6.8362,-6.8162,-6.8083,-6.8083,-6.8083,-6.8083,-6.8014,-6.7497,-6.6945,-6.6324,-6.5359,-6.4669,-6.4048,-6.3082,-6.2634,-6.2393,-6.2048,-6.1772,-6.1806,-6.2599,-6.2989,-6.3342,-6.3969,-6.4358,-6.4568,-6.4602,-6.4637,-6.4706,-6.4706,-6.4706,-6.4495,-6.3723,-6.3126,-6.2389,-6.1441,-6.0809,-6.0352,-6.0107,-6.0107,-6.0107,-6.0107,-6.0107,-6.0107,-6.0107,-6.0107,-6.0107,-6.0107,-6.0107,-6.0107,-6.0107,-5.958,-5.9299,-5.9299,-5.8737,-5.8351,-5.8141,-5.8141,-5.8035,-5.779,-5.779,-5.779,-6.1043,-6.2254,-6.3429,-6.5888,-6.7063,-6.7614,-6.765,-6.7614,-6.7614,-6.7687,-6.7687,-6.7687,-6.7687,-6.7687,-6.7687,-6.7687,-6.7687,-6.7687,-6.7687,-6.7687,-6.7981,-6.8788,-6.9596,-7.0403,-7.1211,-7.1982,-7.2459,-7.2496,-7.2496,-7.2496,-7.2496,-7.2496,-7.2496,-7.2496,-7.2467,-7.2467,-7.2496,-7.2467,-7.2137,-7.1422,-7.1422,-7.1035,-7.03,-6.96,-6.9237,-6.9163,-6.8443,-6.852,-6.9161,-6.8366,-6.852,-6.9087,-6.8362,-6.8083,-6.8083,-6.8083,-6.8083,-6.8083,-6.8083,-6.8049,-6.7773,-6.6324,-6.5842,-6.5531,-6.4014,-6.3048,-6.2634,-6.3324,-6.3013,-6.2634,-6.3358,-6.3565,-6.3639,-6.3856,-6.4072,-6.4251,-6.4358,-6.4568,-6.4706,-6.4706,-6.4706,-6.4495,-6.3723,-6.3583,-6.3056,-6.1546,-6.1265,-6.0984,-6.0212,-6.0107,-6.0107,-6.0107,-6.0107,-6.0107,-6.0107,-6.0107,-6.0107,-6.0107,-6.0107,-6.0107,-6.0107,-6.0072,-6.0072,-6.0072,-6.0036,-5.9685,-5.8983,-5.8983,-5.8562,-5.779,-5.779,-5.779,-6.1887,-6.3429,-6.4934,-6.6806,-6.7504,-6.7687,-6.7687,-6.7687,-6.7687,-6.7687,-6.6843,-6.6109,-6.6109,-6.6109,-6.6109,-6.6109,-6.699,-6.7687,-6.7687,-6.7687,-6.7981,-6.8788,-6.9596,-7.0403,-7.1219,-7.2055,-7.2496,-7.2496,-7.2496,-7.2496,-7.2496,-7.2496,-7.2496,-7.2496,-7.2048,-7.1981,-7.2496,-7.2011,-7.1677,-7.139,-7.0904,-7.0537,-7.03,-7.0024,-6.9919,-6.9919,-6.9672,-6.9419,-6.9198,-6.8938,-6.8708,-6.844,-6.8201,-6.8083,-6.8083,-6.8083,-6.8083,-6.8083,-6.8083,-6.8083,-6.8014,-6.7497,-6.7359,-6.7083,-6.5566,-6.4945,-6.4462,-6.322,-6.2668,-6.253,-6.2806,-6.295,-6.3162,-6.3752,-6.4037,-6.4251,-6.4358,-6.4428,-6.4568,-6.4672,-6.4706,-6.4636,-6.439,-6.3934,-6.3091,-6.1546,-6.0844,-6.0388,-6.0142,-6.0107,-6.0107,-6.0107,-6.0107,-6.0107,-6.0107,-6.0107,-6.0107,-6.0107,-6.0107,-6.0107,-6.0107,-6.0107,-6.0107,-6.0107,-6.0107,-5.9966,-5.9721,-5.9721,-5.958,-5.9334,-5.9334,-5.9334,-6.2585,-6.4053,-6.5338,-6.721,-6.7687,-6.7687,-6.7687,-6.7687,-6.7687,-6.7687,-6.6402,-6.5301,-6.5301,-6.5521,-6.5558,-6.4971,-6.6439,-6.7577,-6.7283,-6.7504,-6.8091,-6.9192,-7.0036,-7.0844,-7.1651,-7.2202,-7.2496,-7.2496,-7.2496,-7.2496,-7.2496,-7.2496,-7.2496,-7.2496,-7.2011,-7.1891,-7.2108,-7.19,-7.1697,-7.1434,-7.0647,-7.03,-7.03,-7.0024,-6.9884,-6.9884,-6.96,-6.9383,-6.9198,-6.89,-6.8708,-6.8478,-6.8201,-6.8083,-6.8083,-6.8083,-6.8083,-6.8083,-6.8083,-6.8083,-6.8083,-6.8083,-6.8083,-6.7911,-6.6945,-6.6497,-6.5979,-6.4496,-6.3703,-6.3289,-6.3289,-6.3157,-6.3162,-6.3752,-6.3999,-6.4144,-6.4287,-6.4393,-6.4428,-6.4568,-6.4637,-6.4706,-6.4706,-6.4109,-6.3267,-6.2248,-6.1195,-6.0423,-6.0142,-6.0107,-6.0107,-6.0107,-6.0107,-6.0107,-6.0107,-6.0107,-6.0107,-6.0107,-6.0107,-6.0107,-6.0107,-6.0107,-6.0107,-6.0107,-6.0107,-6.0107,-6.0107,-6.0107,-6.0107,-6.0107,-6.0107,-6.0107,-6.3025,-6.4163,-6.4787,-6.71,-6.7687,-6.7687,-6.7687,-6.7687,-6.7687,-6.7677,-6.6366,-6.5228,-6.5191,-6.5815,-6.5888,-6.4347,-6.6109,-6.743,-6.6659,-6.7247,-6.8311,-6.9889,-7.0807,-7.1651,-7.2422,-7.2496,-7.2496,-7.2496,-7.2496,-7.2496,-7.2496,-7.2496,-7.2496,-7.2496,-7.2467,-7.2108,-7.1422,-7.2155,-7.223,-7.1619,-7.0764,-7.0371,-7.0337,-6.9528,-6.9198,-6.9161,-6.8401,-6.8478,-6.9087,-6.8362,-6.8517,-6.9087,-6.8362,-6.8083,-6.8083,-6.8083,-6.8083,-6.8083,-6.8083,-6.8083,-6.8083,-6.8083,-6.8083,-6.8083,-6.8083,-6.7601,-6.7049,-6.7014,-6.5945,-6.4807,-6.4703,-6.4186,-6.3671,-6.3854,-6.3891,-6.3963,-6.4109,-6.4287,-6.4358,-6.4393,-6.4568,-6.4672,-6.4706,-6.4109,-6.3583,-6.3583,-6.2319,-6.1055,-6.0247,-6.0107,-6.0107,-6.0107,-6.0107,-6.0107,-6.0107,-6.0107,-6.0107,-6.0107,-6.0142,-6.0142,-6.0107,-6.0142,-6.0142,-6.0107,-6.0107,-6.0107,-6.0107,-6.0107,-6.0107,-6.0107,-6.0107,-6.0107,-6.3649,-6.4971,-6.6182,-6.7393,-6.7687,-6.7687,-6.7687,-6.7687,-6.7504,-6.6916,-6.5521,-6.42,-6.3576,-6.4127,-6.4567,-6.4163,-6.6109,-6.7614,-6.7393,-6.8091,-6.8972,-6.9963,-7.0807,-7.1651,-7.2422,-7.2496,-7.2496,-7.2496,-7.2496,-7.2496,-7.2496,-7.2496,-7.2496,-7.2496,-7.1951,-7.1578,-7.139,-7.1627,-7.2243,-7.3221,-7.1858,-7.1191,-7.1156,-6.9811,-6.9198,-6.9161,-6.8401,-6.8201,-6.8397,-6.8162,-6.8201,-6.8362,-6.8162,-6.8083,-6.8083,-6.8083,-6.8083,-6.8083,-6.8083,-6.8083,-6.8083,-6.8083,-6.8083,-6.8083,-6.8083,-6.798,-6.7704,-6.7152,-6.6704,-6.6152,-6.5014,-6.4565,-6.4289,-6.3811,-6.3673,-6.371,-6.3929,-6.4001,-6.4073,-6.4216,-6.4358,-6.4498,-6.4672,-6.4109,-6.3583,-6.3583,-6.274,-6.1827,-6.109,-6.0458,-6.0107,-6.0107,-6.0107,-6.0107,-6.0107,-6.0107,-6.0107,-6.0107,-6.0668,-6.0739,-6.0107,-6.0668,-6.0704,-6.0107,-6.0107,-6.0107,-6.0107,-6.0107,-6.0107,-6.0107,-6.0107,-6.0107,-6.3725,-6.5059,-6.6182,-6.7032,-6.7484,-6.7504,-6.6806,-6.6916,-6.6843,-6.5668,-6.442,-6.3392,-6.289,-6.3796,-6.4383,-6.3649,-6.5888,-6.7577,-6.721,-6.8164,-6.9192,-7.0,-7.1138,-7.2018,-7.2459,-7.2496,-7.2496,-7.2496,-7.2496,-7.2496,-7.2496,-7.2496,-7.2351,-7.2048,-7.2249,-7.2574,-7.2979,-7.2355,-7.2648,-7.3814,-7.1943,-7.1162,-7.1442,-6.9551,-6.89,-6.9161,0.0,-6.8083,-6.8083,-6.8083,-6.8083,-6.8083,-6.8083,-6.8083,-6.8083,-6.8083,-6.8083,-6.8083,-6.8083,-6.8083,-6.8083,-6.8083,-6.8083,-6.8083,-6.8083,-6.8083,-6.8014,-6.7601,-6.7256,-6.6807,-6.5911,-6.5221,-6.46,-6.4186,-6.3841,-6.3637,-6.3747,-6.382,-6.3965,-6.4251,-6.4358,-6.4463,-6.4672,-6.4355,-6.4074,-6.4074,-6.3407,-6.2775,-6.2354,-6.13,-6.0633,-6.0633,-6.0317,-6.0107,-6.0107,-6.0107,-6.0107,-6.0107,-6.0844,-6.109,-6.0633,-6.1371,-6.1406,-6.0633,-6.0633,-6.0458,-6.0107,-6.0107,-6.0107,-6.0107,-6.0107,-6.0107,-6.3579,-6.4644,-6.54,-6.6438,-6.7132,-6.7136,-6.5632,-6.5925,-6.5999,-6.4273,-6.3429,-6.2952,-6.2817,-6.3991,-6.4567,-6.333,-6.5521,-6.721,-6.6733,-6.8054,-6.9339,-7.0,-7.1505,-7.2496,-7.2496,-7.2496,-7.2496,-7.2496,-7.2496,-7.2467,-7.238,-7.2438,-7.2204,-7.1567,-7.296,-7.4122,-7.4971,-7.3575,-7.3333,-7.419,-7.1938,-7.1194,-7.1727,-6.9564,-6.8906,-6.9442,-6.8609,-6.8256,-6.8256,-6.8152,-6.8083,-6.8083,-6.8083,-6.8083,-6.8083,-6.8083,-6.8083,-6.8083,-6.8083,-6.8083,-6.8083,-6.8083,-6.8083,-6.8083,-6.8083,-6.8083,-6.8083,-6.8083,-6.7635,-6.7118,-6.7014,-6.5945,-6.4841,-6.4738,-6.4189,-6.3637,-6.36,-6.3747,-6.3965,-6.4323,-6.4358,-6.4463,-6.4637,-6.4706,-6.4706,-6.4706,-6.4179,-6.3758,-6.3758,-6.2389,-6.1441,-6.1441,-6.0739,-6.0247,-6.0247,-6.0142,-6.0107,-6.0107,-6.0949,-6.1406,-6.13,-6.2108,-6.2213,-6.1441,-6.1441,-6.109,-6.0388,-6.0388,-6.0352,-6.0247,-6.0247,-6.0212,-6.3873,-6.4265,-6.4692,-6.629,-6.6691,-6.6476,-6.5521,-6.5925,-6.5852,-6.3503,-6.3466,-6.3649,-6.2952,-6.3037,-6.3587,-6.4714,-6.5338,-6.6145,-6.732,-6.8862,-6.9926,-7.0073,-7.1505,-7.2496,-7.2496,-7.2496,-7.2496,-7.2496,-7.2496,-7.2226,-7.1609,-7.2167,-7.2459,-7.2395,-7.3289,-7.4192,-7.5004,-7.4149,-7.4402,-7.5783,-7.4047,-7.3261,-7.3333,-7.1671,-7.0976,-7.1055,-6.9649,0.0,-6.9015,-6.8359,-6.8083,-6.8083,-6.8083,-6.8083,-6.8083,-6.8083,-6.8083,-6.8083,-6.8083,-6.8083,-6.8083,-6.8083,-6.8083,-6.8083,-6.8083,-6.8083,-6.8083,-6.8083,-6.8014,-6.7773,-6.7152,-6.6324,-6.5497,-6.4841,-6.4263,-6.3783,-6.3637,-6.3637,-6.3783,-6.4144,-6.4216,-6.4358,-6.4672,-6.4706,-6.4706,-6.4706,-6.4601,-6.453,-6.453,-6.3161,-6.2213,-6.2213,-6.1546,-6.109,-6.109,-6.0493,-6.0107,-6.0107,-6.1406,-6.1932,-6.1336,-6.2635,-6.3021,-6.2213,-6.2213,-6.2143,-6.2003,-6.2003,-6.1687,-6.109,-6.109,-6.0739,-6.353,-6.3972,-6.4463,-6.5287,-6.6058,-6.6066,-6.3895,-6.4677,-6.5044,-6.2144,-6.2548,-6.3319,-6.2879,-6.3172,-6.3613,-6.3943,-6.5448,-6.6512,-6.6476,-6.8935,-7.0587,-7.0146,-7.1505,-7.2496,-7.2496,-7.2496,-7.2496,-7.2496,-7.2496,-7.2351,-7.1981,-7.2352,-7.2936,-7.3769,-7.422,-7.4823,-7.5587,-7.5249,-7.5077,-7.5007,-7.383,-7.3256,-7.3191,-7.1651,-7.1163,-7.1441,-7.0342,-6.9842,-6.9808,-6.9015,-6.8704,-6.867,-6.8256,-6.8083,-6.8083,-6.8083,-6.8083,-6.8083,-6.8083,-6.8083,-6.8083,-6.8083,-6.8083,-6.8083,-6.8083,-6.8083,-6.8083,-6.8083,-6.8083,-6.8014,-6.7669,-6.7014,-6.6359,-6.5979,-6.5164,-6.4377,-6.3962,-6.3892,-6.4001,-6.4252,-6.4287,-6.4393,-6.4637,-6.4706,-6.4706,-6.4706,-6.4706,-6.4706,-6.4706,-6.4074,-6.3442,-6.3056,-6.2319,-6.1722,-6.1336,-6.0949,-6.0528,-6.0107,-6.1195,-6.1827,-6.1862,-6.2986,-6.3407,-6.3021,-6.2599,-6.2356,-6.2255,-6.197,-6.1794,-6.173,-6.1829,-6.1652,-6.3073,-6.3651,-6.4143,-6.4352,-6.5312,-6.537,-6.2279,-6.3392,-6.4163,-6.1043,-6.1704,-6.278,-6.278,-6.3209,-6.3466,-6.3135,-6.4934,-6.6182,-6.5632,-6.8274,-7.0257,-7.011,-7.1358,-7.2312,-7.2496,-7.2496,-7.2496,-7.2496,-7.2679,-7.2753,-7.2753,-7.2813,-7.3488,-7.486,-7.512,-7.5484,-7.5929,-7.5757,-7.5083,-7.3901,-7.3076,-7.2683,-7.2683,-7.1449,-7.1209,-7.173,-7.0955,-7.0636,-7.0567,-6.9808,-6.9532,-6.9428,-6.867,-6.8359,-6.8325,-6.8152,-6.8083,-6.8083,-6.8083,-6.8083,-6.8083,-6.8083,-6.8083,-6.8083,-6.8083,-6.8083,-6.8083,-6.8083,-6.8083,-6.8083,-6.8083,-6.7532,-6.6984,-6.6923,-6.6069,-6.5107,-6.4598,-6.446,-6.4426,-6.4393,-6.4393,-6.4463,-6.4672,-6.4706,-6.4706,-6.4706,-6.4706,-6.4706,-6.4706,-6.4706,-6.4495,-6.3898,-6.3126,-6.2424,-6.1827,-6.1616,-6.1195,-6.0388,-6.109,-6.1792,-6.2354,-6.3161,-6.3653,-6.3828,-6.3196,-6.2743,-6.2399,-6.2182,-6.2077,-6.2155,-6.2498,-6.2564,-6.2717,-6.3173,-6.3346,-6.418,-6.4402,-6.391,-6.2022,-6.2952,-6.3466,-6.0933,-6.1704,-6.278,-6.278,-6.2254,-6.2291,-6.3759,-6.2952,-6.3135,-6.5999,-6.6696,-6.7724,-6.9853,-7.0881,-7.1725,-7.2422,-7.2496,-7.2496,-7.2496,-7.3193,-7.3597,-7.3597,-7.365,-7.4095,-7.4961,-7.5693,-7.5789,-7.5119,-7.4416,-7.3959,-7.3811,-7.3078,-7.27,-7.2714,-7.2548,-7.2548,-7.2555,-7.1746,-7.1394,0.0,-7.0601,-7.0291,-7.0222,-6.9463,-6.9193,-6.9084,-6.8359,-6.8083,-6.8083,-6.8083,-6.8083,-6.8083,-6.8083,-6.8083,-6.8083,-6.8083,-6.8083,-6.8083,-6.8083,-6.8083,-6.8083,-6.8083,-6.7532,-6.6923,-6.6607,-6.6292,-6.5979,-6.5544,-6.5333,-6.5017,-6.4498,-6.4393,-6.4463,-6.4672,-6.4706,-6.4706,-6.4706,-6.4706,-6.4706,-6.4706,-6.4706,-6.4672,-6.4636,-6.3934,-6.3442,-6.3372,-6.2705,-6.1967,-6.123,-6.1897,-6.2319,-6.2389,-6.3161,-6.3898,-6.4601,-6.453,-6.4179,-6.3443,-6.4075,-6.3688,-6.2389,-6.3126,-6.3091,-6.2756,-6.3147,-6.3292,-6.3505,-6.321,-6.2264,-5.9953,-6.0309,-6.0603,-5.8657,-5.9905,-6.152,-6.1998,-6.2218,-6.2365,-6.2548,-6.3282,-6.3943,-6.4237,-6.6806,-6.8825,-6.9339,-7.0954,-7.2165,-7.2459,-7.2496,-7.2496,-7.2496,-7.323,-7.3713,-7.3754,-7.4264,-7.4645,-7.4971,-7.529,-7.4905,-7.3631,-7.3709,-7.3107,-7.1752,-7.2431,-7.2471,-7.1981,-7.2464,-7.2713,-7.2713,-7.2326,-7.2188,0.0,-7.136,-7.105,-7.0981,-7.0222,-6.9946,-6.9842,-6.9084,-6.8808,-6.8739,-6.8256,-6.8083,-6.8083,-6.8083,-6.8083,-6.8083,-6.8083,-6.8083,-6.8083,-6.8083,-6.8083,-6.8083,-6.8083,-6.7876,-6.7541,-6.7083,-6.7023,-6.6893,-6.6383,-6.5967,-6.5583,-6.5374,-6.4918,-6.4602,-6.4672,-6.4706,-6.4706,-6.4706,-6.4706,-6.4706,-6.4706,-6.4706,-6.4706,-6.4706,-6.446,-6.4074,-6.3618,-6.3302,-6.2775,-6.2003,-6.2213,-6.2599,-6.3091,-6.3407,-6.3934,-6.4706,-6.425,-6.4041,-6.4078,-6.4041,-6.3865,-6.3587,-6.4041,-6.4109,-6.2229,-6.2986,-6.3265,-6.3051,-6.2127,-6.0757,-5.8506,-5.8277,-5.813,-5.6712,-5.8547,-6.0566,-6.1153,-6.2108,-6.2622,-6.2034,-6.3209,-6.398,-6.3282,-6.5925,-6.8017,-6.8164,-6.9706,-7.1027,-7.1725,-7.2239,-7.2496,-7.2496,-7.3273,-7.3665,-7.345,-7.3992,-7.4399,-7.4651,-7.4403,-7.3701,-7.2359,-7.2639,-7.2076,-7.0739,-7.1808,-7.2153,-7.1843,-7.2429,-7.2713,-7.2713,-7.2713,-7.2713,0.0,-7.2084,-7.1843,-7.1774,-7.1015,-7.0705,-7.0636,-6.9877,-6.9601,-6.9497,-6.8704,-6.8428,-6.8428,-6.8187,-6.8083,-6.8083,-6.8083,-6.8083,-6.8083,-6.8083,-6.8083,-6.8083,-6.8083,-6.8083,-6.8019,-6.7696,-6.7711,-6.7693,-6.7152,-6.6774,-6.6356,-6.597,-6.5443,-6.4987,-6.4707,-6.4637,-6.4637,-6.4672,-6.4637,-6.4637,-6.4672,-6.4706,-6.4706,-6.4706,-6.4706,-6.4495,-6.3969,-6.3934,-6.3583,-6.2775,-6.274,-6.2986,-6.3583,-6.3583,-6.3934,-6.4706,-6.4179,-6.4006,-6.4183,-6.4006,-6.4006,-6.4183,-6.4532,-6.4706,-6.0893,-6.2509,-6.3147,-6.3026,-6.1348,-5.9442,-5.8272,-5.7463,-5.6662,-5.578,-5.818,-6.0419,-6.0419,-6.1741,-6.278,-6.278,-6.2144,-6.2218,-6.3833,-6.3392,-6.3796,-6.6219,-6.6549,-6.7504,-6.9889,-7.1578,-7.2496,-7.2496,-7.3323,-7.345,-7.2653,-7.269,-7.3066,-7.3803,-7.3101,-7.2359,-7.1539,-7.0815,-7.0815,-7.1498,-7.1498,-7.1912,-7.2713,-7.2713,-7.2713,-7.2713,-7.2713,-7.2713,0.0,-7.2671,-7.2713,-7.2644,-7.1774,-7.1498,-7.1394,-7.0636,-7.036,-7.0256,-6.9532,-6.9296,-6.9153,-6.8359,-6.8083,-6.8083,-6.8083,-6.8083,-6.8083,-6.8083,-6.8083,-6.8083,-6.8083,-6.8083,-6.8123,-6.8358,-6.8397,-6.8305,-6.7952,-6.7852,-6.7471,-6.6145,-6.5865,-6.5619,-6.4846,-6.4533,-6.4463,-6.4672,-6.4533,-6.4463,-6.4672,-6.4706,-6.4706,-6.4706,-6.4706,-6.4706,-6.4706,-6.4706,-6.439,-6.3618,-6.3583,-6.3583,-6.3583,-6.3583,-6.3934,-6.4706,-6.4672,-6.4355,-6.3618,-6.4355,-6.432,-6.3618,-6.4355,-6.4706,-5.8079,-5.8671,-5.8923,-5.8787,-5.7037,-5.5133,-5.4133,-5.3744,-5.345,-5.3209,-5.5244,-5.7629,-5.9281,-6.0456,-6.1337,-6.1887,-6.1777,-6.1777,-6.2328,-6.3613,-6.5228,-6.71,-6.9265,-7.071,-7.0962,-7.1904,-7.2541,-7.2564,-7.2817,-7.2893,-7.2679,-7.2221,-7.2047,-7.2293,-7.1534,-7.099,-7.0739,-7.1015,-7.1256,-7.1498,-7.205,-7.2429,-7.2713,-7.2713,-7.2713,-7.2713,-7.2713,-7.2713,-7.2713,-7.2713,-7.2713,-7.2636,-7.2395,-7.2291,-7.2222,-7.1429,-7.1153,-7.105,-7.0291,-6.9704,-6.9256,-6.898,-6.8532,-6.8083,-6.8083,-6.8083,-6.8083,-6.8083,-6.8083,-6.8083,-6.8083,-6.8083,-6.8123,-6.8162,-6.828,-6.8405,-6.843,-6.8162,-6.7646,-6.6812,-6.6216,-6.5619,-6.4846,-6.4637,-6.4637,-6.4672,-6.4637,-6.4637,-6.4672,-6.4706,-6.4706,-6.4706,-6.4706,-6.4706,-6.4706,-6.4706,-6.4601,-6.439,-6.4355,-6.4355,-6.4355,-6.4355,-6.446,-6.4706,-6.4706,-6.4601,-6.4355,-6.4601,-6.4601,-6.4355,-6.4601,-6.4706,-5.6198,-5.6676,-5.689,-5.6463,-5.4638,-5.288,-5.2532,-5.2018,-5.165,-5.1961,-5.3943,-5.6051,-5.7556,-5.9245,-6.0566,-6.108,-6.1667,-6.2254,-6.2915,-6.4053,-6.5448,-6.7063,-6.9816,-7.1282,-7.0548,-7.1968,-7.2765,-7.2221,-7.2479,-7.2394,-7.1871,-7.1131,-7.0605,-7.0291,-7.0094,-7.0118,-7.0394,-7.0567,-7.0946,-7.1498,-7.1981,-7.2437,-7.2713,-7.2713,-7.2713,-7.2713,-7.2713,-7.2713,0.0,-7.2713,-7.2713,-7.2713,-7.2713,-7.2713,-7.2644,-7.2119,-7.1946,-7.1843,-7.1084,-7.0498,-7.0015,-6.9463,-6.8739,-6.8083,-6.8083,-6.8083,-6.8083,-6.8083,-6.8083,-6.8083,-6.8083,-6.8083,-6.8083,-6.8083,-6.8201,-6.8319,-6.8551,-6.8319,-6.795,-6.7439,-6.6741,-6.6005,-6.5268,-6.4847,-6.4602,-6.4672,-6.4637,-6.4602,-6.4672,-6.4706,-6.4706,-6.4706,-6.4706,-6.4706,-6.4706,-6.4706,-6.4706,-6.4706,-6.4706,-6.4706,-6.4706,-6.4706,-6.4706,-6.4706,-6.4706,-6.4706,-6.4706,-6.4706,-6.4706,-6.4706,-6.4706,-6.4706,0.0,-5.5978,-5.6426,-5.5544,-5.376,-5.235,-5.2899,-5.1965,0.0,-5.185,-5.3812,-5.5464,-5.5669,-5.818,-6.0272,-6.0382,-6.1704,-6.3294,-6.5007,-6.4824,-6.5044,-6.6402,-6.8752,-6.9929,-6.9037,-7.1762,-7.2995,-7.1513,-7.2086,-7.1907,-7.0501,-6.9663,-6.8842,-6.8118,-6.8877,-6.9635,-7.0394,-6.9739,-7.0153,-7.1567,-7.1567,-7.1981,-7.2713,-7.2713,-7.2713,0.0,-7.2713,-7.2713,0.0,-7.2713,-7.2713,-7.2713,-7.2713,-7.2713,-7.2713,-7.2713,-7.2713,-7.2567,-7.1843,-7.1532,-7.1256,-6.9773,-6.8773,-6.8152,-6.8118,-6.8083,-6.8083,-6.8083,-6.8083,-6.8083,-6.8083,-6.8083,-6.8083,-6.8083,-6.8083,-6.8162,-6.8358,-6.8397,-6.8305,-6.799,-6.733,-6.6597,-6.597,-6.5128,-6.4533,-6.4672,-6.4568,-6.4463,-6.4672,-6.4706,-6.4706,-6.4706,-6.4706,-6.4707,-6.4776,-6.4741,-6.4706,-6.4706,-6.4706,-6.4706,-6.4706,-6.4706,-6.4706,-6.4706,-6.4706,-6.4706,-6.4706,-6.4706,-6.4706,-6.4706,-6.4706,-6.4706,-5.2894,0.0,-5.312,-5.2915,-5.1981,-5.1193,0.0,-5.1557,-5.1797,-5.1961,-5.2931,-5.4326,-5.6198,-5.7629,-5.8951,-6.0199,-6.1227,-6.2475,-6.4127,-6.688,-6.8348,-6.7504,-7.0073,-7.096,-6.8414,-7.1015,-7.226,-7.0802,-7.0832,-7.0756,-7.0431,-6.9107,-6.829,-6.8118,-6.8877,-6.9635,-7.0394,-7.0774,-7.1463,-7.2395,-7.2395,-7.2498,-7.2713,-7.2713,-7.2713,-7.2713,-7.2713,0.0,-7.2713,-7.2713,-7.2713,-7.2713,-7.2713,-7.2713,-7.2713,-7.2713,-7.2713,-7.2636,-7.2464,-7.2015,-7.1256,-6.9773,-6.9153,-6.8877,-6.829,-6.8083,-6.8083,-6.8083,-6.8083,-6.8083,-6.8083,-6.8083,-6.8083,-6.8083,-6.8083,-6.8162,-6.8358,-6.8397,-6.8305,-6.799,-6.7749,-6.7226,-6.6075,-6.5689,-6.5373,-6.4777,-6.4637,-6.4637,-6.4672,-6.4706,-6.4706,-6.4706,-6.4706,-6.4952,-6.5549,-6.5057,-6.4706,-6.4706,-6.4706,-6.4706,-6.4706,-6.4706,-6.4706,-6.4706,-6.4706,-6.4706,-6.4706,-6.4706,-6.4706,-6.4706,-6.4706,-6.4706,-5.2674,-5.2013,-5.1353,-5.0986,-5.0545,-5.0362,-5.0729,-5.1426,-5.2087,-5.2454,-5.2894,-5.3702,-5.539,-5.7556,-5.9281,-5.9795,-6.2401,-6.4457,-6.464,-6.6843,-6.8238,-6.7787,-6.9889,-7.0755,-6.9151,-7.1838,-7.2587,-7.0088,-7.0859,-7.1006,-6.9935,-6.8773,-6.8256,-6.8635,-6.9394,-6.998,-7.0394,-7.1118,-7.1877,-7.2713,-7.2713,-7.2713,-7.2713,-7.2713,-7.2713,-7.2713,-7.2713,0.0,-7.2713,-7.2713,-7.2713,-7.2713,-7.2713,-7.2713,-7.2713,-7.2713,-7.2713,-7.2713,-7.2713,-7.2153,-7.1291,-7.0153,-6.9566,-6.9118,-6.8325,-6.8083,-6.8083,-6.8083,-6.8083,-6.8083,-6.8083,-6.8083,-6.8083,-6.8083,-6.8083,-6.8123,-6.8241,-6.8241,-6.8254,-6.8145,-6.791,-6.7571,-6.6914,-6.6566,-6.6145,-6.5373,-6.5268,-6.5093,-6.4603,-6.4637,-6.4672,-6.4568,-6.4637,-6.5022,-6.5829,-6.5478,-6.5268,-6.5268,-6.5268,-6.5092,-6.4707,-6.4706,-6.4706,-6.4706,-6.4706,-6.4706,-6.4706,-6.4706,-6.4706,-6.4706,-6.4706,-6.4706,-5.3203,-5.2307,-5.1169,-5.0345,-5.0051,-5.0161,-5.0839,-5.161,-5.2344,-5.2894,-5.3203,-5.3702,-5.4766,-5.774,-5.9942,-5.9625,-6.3943,-6.688,-6.5668,-6.6396,-6.7212,-6.765,-6.9136,-7.0108,-6.9937,-7.2517,-7.2808,-6.9357,-7.0998,-7.129,-6.9198,-6.8566,-6.8601,-6.9256,-7.0118,-7.0567,-7.0567,-7.1291,-7.2015,-7.2713,-7.2713,-7.2713,-7.2713,-7.2713,-7.2713,-7.2713,0.0,0.0,-7.2713,-7.2713,-7.2713,-7.2713,-7.2713,-7.2713,-7.2713,-7.2713,-7.2713,-7.2713,-7.2713,-7.2222,-7.1567,-7.0808,-7.0049,-6.9291,-6.8497,-6.8187,-6.8083,-6.8083,-6.8083,-6.8083,-6.8083,-6.8083,-6.8083,-6.8083,-6.8123,-6.8123,-6.8083,-6.8123,-6.8201,-6.8358,-6.8065,-6.7803,-6.7887,-6.7511,-6.6953,-6.6181,-6.604,-6.5724,-6.4743,-6.4778,-6.4777,-6.4498,-6.4602,-6.5022,-6.5829,-6.59,-6.5935,-6.604,-6.604,-6.5689,-6.4917,-6.4776,-6.4706,-6.4706,-6.4706,-6.4706,-6.4706,-6.4706,-6.4706,-6.4706,-6.4706,-6.4706,-5.3203,-5.3518,-5.3665,-5.2858,-5.2123,-5.1646,-5.1793,-5.2454,-5.2858,-5.2307,-5.3261,-5.4876,-5.7042,-5.796,-5.8988,-6.0933,-6.3723,-6.5815,-6.6256,-6.8231,-6.9143,-6.7853,-6.9218,-6.9749,-6.8411,-6.9955,-7.0328,-6.8443,-6.9258,-6.9402,-6.8364,-6.8808,-6.9153,-6.9291,-7.0601,-7.1325,-7.1325,-7.2119,-7.2609,-7.2713,-7.2713,-7.2713,-7.2713,-7.2713,-7.2713,-7.2713,0.0,-7.2713,-7.2713,-7.2713,-7.2713,-7.2713,-7.2713,-7.2713,-7.2713,-7.2713,-7.2713,-7.2713,-7.2713,-7.2644,-7.236,-7.1567,-7.0808,-7.0084,-6.9325,-6.8635,-6.8083,-6.8083,-6.8083,-6.8083,-6.8083,-6.8083,-6.8083,-6.8083,-6.8241,-6.8319,-6.8123,-6.8241,-6.8358,-6.8397,-6.8447,-6.8433,-6.7992,-6.7966,-6.776,-6.6953,-6.6848,-6.6567,-6.5759,-6.5689,-6.5443,-6.4742,-6.4672,-6.5022,-6.5829,-6.59,-6.6145,-6.6813,-6.6848,-6.6497,-6.5724,-6.5057,-6.4706,-6.4706,-6.4706,-6.4706,-6.4706,-6.4706,-6.4706,-6.4706,-6.4706,-6.4706,-5.2674,-5.2821,-5.3335,-5.4252,-5.4876,-5.5354,-5.5794,-5.6528,-5.6748,-5.55,-5.5831,-5.6822,-5.8364,-5.9722,-6.1814,-6.5595,-6.5338,-6.5081,-6.6329,-6.6769,-6.7135,-6.7633,-6.8456,-6.9053,-6.916,-7.0309,-7.0191,-6.8271,-6.9207,-6.9563,-6.8779,-6.9084,-6.9635,-7.0429,-7.1153,-7.1705,-7.2119,-7.2498,-7.2713,-7.2713,-7.2713,-7.2713,-7.2713,-7.2713,-7.2713,-7.2713,0.0,-7.2713,-7.2713,-7.2713,-7.2713,-7.2713,-7.2713,-7.2713,-7.2713,-7.2713,-7.2713,-7.2713,-7.2713,-7.2713,-7.2575,-7.1739,-7.0981,-7.0256,-6.9497,-6.8739,-6.8083,-6.8083,-6.8083,-6.8083,-6.8083,-6.8083,-6.8083,-6.8083,-6.8162,-6.8241,-6.8241,-6.8241,-6.828,-6.8397,-6.8474,-6.8486,-6.8366,-6.8518,-6.8458,-6.7724,-6.7655,-6.7338,-6.6495,-6.6426,-6.6321,-6.5899,-6.5549,-6.5654,-6.6426,-6.611,-6.6216,-6.6953,-6.7023,-6.6848,-6.6497,-6.6145,-6.5759,-6.5373,-6.5338,-6.5127,-6.4706,-6.4706,-6.4706,-6.4706,-6.4706,-6.4706,-5.2417,-5.2417,-5.3078,-5.5317,-5.6235,-5.7005,-5.8584,-5.9245,-5.9281,-5.8217,-5.8437,-5.9024,-5.9648,-6.1423,-6.4039,-6.7826,-6.6176,-6.4882,-6.6326,-6.567,-6.5786,-6.778,-6.794,-6.8503,-6.9918,-7.0452,-6.998,-6.8236,-6.9192,-6.9687,-6.9296,-6.9428,-7.0153,-7.1463,-7.167,-7.205,-7.2671,-7.2713,-7.2713,-7.2713,-7.2713,-7.2713,-7.2713,-7.2713,-7.2713,-7.2713,-7.2713,-7.2713,-7.2713,-7.2713,-7.2713,-7.2713,-7.2713,-7.2713,-7.2713,-7.2713,-7.2713,-7.2713,-7.2713,-7.2713,-7.2609,-7.1981,-7.1256,-7.0498,-6.9773,-6.898,-6.8325,-6.8152,-6.8083,-6.8083,-6.8083,-6.8083,-6.8083,-6.8083,-6.8123,-6.8201,-6.8319,-6.8241,-6.8201,-6.8319,-6.8358,-6.8474,-6.8667,-6.893,-6.8943,-6.8531,-6.8498,-6.8144,-6.7228,-6.7196,-6.7162,-6.6878,-6.6426,-6.6391,-6.6953,-6.6672,-6.6672,-6.7269,-6.7304,-6.7304,-6.7304,-6.6953,-6.6461,-6.59,-6.583,-6.5479,-6.4706,-6.4812,-6.4812,-6.4706,-6.4706,-6.4706,-5.2931,-5.3665,-5.462,-5.6308,-5.4546,-5.3408,-5.7226,-5.7556,-5.7262,-5.7886,-5.9758,-6.1337,-6.141,-6.2181,-6.2958,-6.342,-6.4456,-6.5557,-6.6533,-6.7245,-6.7955,-6.879,-6.8399,-6.8378,-6.92,-6.8705,-6.831,-6.8083,-6.8231,-6.8577,-6.9262,-6.9946,-7.067,-7.1463,-7.2188,-7.2644,-7.2713,-7.2713,-7.2713,-7.2713,-7.2713,-7.2713,-7.2713,-7.2713,-7.2713,-7.2713,-7.2713,-7.2713,-7.2713,-7.2713,-7.2713,-7.2713,-7.2713,-7.2713,-7.2713,-7.2713,-7.2713,-7.2713,-7.2713,-7.2713,-7.2671,-7.2602,-7.205,-7.1256,-7.0532,-6.9773,-6.9049,-6.829,-6.8083,-6.8083,-6.8083,-6.8083,-6.8083,-6.8083,-6.8241,-6.8319,-6.8162,-6.8241,-6.8319,-6.8162,-6.828,-6.8474,-6.8667,-6.893,-6.9153,-6.9305,-6.9305,-6.9024,-6.8181,-6.811,-6.7831,-6.7058,-6.6953,-6.6953,-6.7023,-6.7655,-6.8076,-6.8112,-6.8112,-6.8112,-6.8112,-6.6742,-6.5935,-6.59,-6.5723,-6.5338,-6.4706,-6.5268,-6.5268,-6.4706,-6.4706,-6.4706,-5.1756,-5.3775,-5.5904,-5.6014,-5.5904,-5.6638,-6.0199,-6.1557,-6.1741,-6.0493,-6.2181,-6.3759,-6.3246,-6.5448,-6.6728,-6.4779,-6.6208,-6.7331,-6.6839,-6.7433,-6.8192,-6.8988,-6.8495,-6.8362,-6.9124,-6.8517,-6.8083,-6.8083,-6.8566,-6.9153,-6.9911,-7.067,-7.1429,-7.2188,-7.2533,-7.2713,-7.2713,-7.2713,-7.2713,-7.2713,-7.2713,-7.2713,-7.2713,-7.2713,-7.2713,-7.2713,-7.2713,-7.2713,-7.2713,-7.2713,-7.2713,-7.2713,-7.2713,-7.2713,-7.2713,-7.2713,-7.2713,-7.2713,-7.2713,-7.2713,-7.2713,-7.2713,-7.2153,-7.136,-7.0601,-6.9877,-6.9118,-6.8325,-6.8083,-6.8083,-6.8083,-6.8083,-6.8083,-6.8083,-6.8162,-6.8201,-6.828,-6.8241,-6.8241,-6.828,-6.8241,-6.828,-6.8474,-6.8705,-6.893,-6.919,-6.9302,-6.927,-6.8989,-6.8954,-6.8814,-6.8498,-6.8041,-6.755,-6.7058,-6.776,-6.8217,-6.8217,-6.8673,-6.8954,-6.8954,-6.8392,-6.7795,-6.7159,-6.7086,-6.6629,-6.5754,-6.6105,-6.5932,-6.5268,-6.5374,-6.5198,-5.2711,-5.4509,-5.6528,-5.7005,-5.7556,-5.8767,-6.1741,-6.3319,-6.387,-6.2952,-6.431,-6.5595,-6.5264,-6.7467,-6.8632,-6.6511,-6.7704,-6.8406,-6.6996,-6.7448,-6.8026,-6.8392,-6.8197,-6.8319,-6.8787,-6.8401,-6.8187,-6.8463,-6.898,-6.9704,-7.067,-7.1222,-7.1843,-7.2636,-7.2713,-7.2713,-7.2713,-7.2713,-7.2713,-7.2713,-7.2713,-7.2713,-7.2713,-7.2713,-7.2713,-7.2713,-7.2713,-7.2713,-7.2713,-7.2713,-7.2713,-7.2713,-7.2713,-7.2713,-7.2713,-7.2713,-7.2713,-7.2713,-7.2713,-7.2713,-7.2713,-7.2713,-7.2326,-7.1739,-7.0981,-7.0222,-6.9463,-6.8704,-6.829,-6.8083,-6.8083,-6.8083,-6.8083,-6.8083,-6.8083,-6.8123,-6.828,-6.8201,-6.8123,-6.828,-6.8201,-6.8162,-6.8358,-6.8551,-6.8781,-6.9078,-6.9264,-6.9412,-6.9412,-6.9412,-6.9412,-6.9412,-6.8919,-6.8357,-6.7796,-6.8252,-6.8568,-6.8568,-6.9095,-6.9412,-6.9412,-6.9165,-6.867,-6.7998,-6.7924,-6.7466,-6.6516,-6.6834,-6.6591,-6.5858,-6.6074,-6.5724,-5.6345,-5.6198,-5.6381,-5.9575,-5.9208,-5.8694,-6.108,-6.163,-6.2328,-6.4824,-6.5962,-6.6769,-6.754,-6.7751,-6.7753,-6.7883,-6.8471,-6.8406,-6.6996,-6.7448,-6.7646,-6.6953,-6.7579,-6.8083,-6.8083,-6.8083,-6.8428,-6.9222,-6.9331,-6.9946,-7.1429,-7.1498,-7.1877,-7.2636,-7.2713,-7.2713,-7.2713,-7.2713,-7.2713,-7.2713,-7.2713,-7.2713,-7.2713,-7.2713,-7.2713,-7.2713,-7.2713,-7.2713,-7.2713,-7.2713,-7.2713,-7.2713,-7.2713,-7.2713,-7.2713,-7.2713,-7.2713,-7.2713,-7.2713,-7.2713,-7.2713,-7.2713,-7.2713,-7.2575,-7.1739,-7.0981,-7.0256,-6.9497,-6.8704,-6.8118,-6.8118,-6.8118,-6.8083,-6.8083,-6.8083,-6.8083,-6.8083,-6.8083,-6.8083,-6.8083,-6.8083,-6.8162,-6.8358,-6.8551,-6.8781,-6.9078,-6.9264,-6.9412,-6.9412,-6.9412,-6.9412,-6.9412,-6.9412,-6.9412,-6.9412,-6.9412,-6.9412,-6.9412,-6.9412,-6.9412,-6.9412,-6.8638,-6.8217,-6.8217,-6.7998,-6.7539,-6.6699,-6.7318,-6.7171,-6.6406,-6.6626,-6.6316,-5.3151,-5.6124,-5.8804,-5.807,-6.0089,-6.2475,-6.3172,-6.3796,-6.4751,-6.6586,-6.7173,-6.7447,-6.7784,-6.9687,-7.0522,-6.8386,-6.8699,-6.8639,-6.7157,-6.7094,-6.7164,-6.6989,-6.7653,-6.8083,-6.8083,-6.8083,-6.8428,-6.9222,-6.9773,-7.0463,-7.1429,-7.2015,-7.2429,-7.2671,-7.2713,-7.2713,-7.2713,-7.2713,-7.2713,-7.2713,-7.2713,-7.2713,-7.2713,-7.2713,-7.2713,-7.2713,-7.2713,-7.2713,-7.2713,-7.2713,-7.2713,-7.2713,-7.2713,-7.2797,-7.288,-7.2755,-7.2797,-7.288,-7.2755,-7.2713,-7.2713,-7.2713,-7.2713,-7.2575,-7.1739,-7.1325,-7.1015,-7.0256,-6.9497,-6.8911,-6.8911,-6.8497,-6.8083,-6.8083,-6.8083,-6.8083,-6.8083,-6.8083,-6.8083,-6.8083,-6.8083,-6.8123,-6.8162,-6.8474,-6.8743,-6.8781,-6.9155,-6.9412,-6.9412,-6.9412,-6.9412,-6.9412,-6.9412,-6.9412,-6.9412,-6.9412,-6.9412,-6.9412,-6.9412,-6.9412,-6.9412,-6.9165,-6.8988,-6.884,-6.8765,-6.8513,-6.8119,-6.829,-6.8084,-6.7464,-6.739,-6.7008,-5.6051,-5.8584,-6.0456,-6.0603,-6.2144,-6.3943,-6.5228,-6.5888,-6.6512,-6.7504,-6.8512,-6.9034,-6.8489,-7.034,-7.1309,-6.9307,-6.8916,-6.8566,-6.7512,-6.7377,-6.7258,-6.7027,-6.7635,-6.8083,-6.8083,-6.8083,-6.8428,-6.9222,-6.998,-7.0705,-7.1463,-7.2257,-7.2713,-7.2713,-7.2713,-7.2713,-7.2713,-7.2713,-7.2713,-7.2713,-7.2713,-7.2713,-7.2713,-7.2713,-7.2713,-7.2713,-7.2713,-7.2713,-7.2713,-7.2713,-7.2755,-7.2838,-7.2838,-7.2963,-7.3088,-7.288,-7.288,-7.2963,-7.2755,-7.2713,-7.2713,-7.2713,-7.2713,-7.2644,-7.2119,-7.1739,-7.1394,-7.0946,-7.0291,-6.9739,-6.9739,-6.9153,-6.8497,-6.8187,-6.8083,-6.8083,-6.8083,-6.8083,-6.8083,-6.8083,-6.8083,-6.8083,-6.8083,-6.8358,-6.8628,-6.8705,-6.908,-6.9412,-6.9412,-6.9412,-6.9412,-6.9412,-6.9412,-6.9412,-6.9412,-6.9412,-6.9412,-6.9412,-6.9412,-6.9412,-6.9412,-6.9412,-6.9339,-6.9227,-6.9227,-6.9115,-6.8854,-6.8854,-6.8648,-6.8194,-6.8229,-6.7848,-6.1924,-6.1998,-6.1484,-6.5154,-6.464,-6.4016,-6.6916,-6.7824,-6.8008,-6.7861,-6.9659,-7.0845,-6.9399,-6.9998,-7.066,-7.0459,-6.9195,-6.8183,-6.8088,-6.8011,-6.7673,-6.7057,-6.7635,-6.8083,-6.8083,-6.8083,-6.8428,-6.9222,-6.998,-7.0705,-7.1463,-7.2257,-7.2713,-7.2713,-7.2713,-7.2713,-7.2713,-7.2713,-7.2713,-7.2713,-7.2713,-7.2713,-7.2713,-7.2713,-7.2713,-7.2713,-7.2713,-7.2713,-7.2713,-7.2713,-7.2797,-7.2963,-7.2963,-7.3088,-7.3252,-7.3046,-7.3005,-7.2963,-7.2755,-7.2713,-7.2713,-7.2713,-7.2713,-7.2713,-7.2713,-7.2188,-7.1601,-7.1601,-7.105,-7.0498,-7.0498,-6.9946,-6.9187,-6.8463,-6.8187,-6.8083,-6.8083,-6.8083,-6.8083,-6.8083,-6.8083,-6.8083,-6.8083,-6.828,-6.8474,-6.8705,-6.908,-6.9376,-6.9412,-6.9483,-6.9446,-6.9412,-6.9483,-6.9446,-6.9412,-6.9412,-6.9412,-6.9412,-6.9412,-6.9412,-6.9412,-6.9412,-6.9412,-6.9412,-6.9412,-6.9302,-6.9115,-6.9115,-6.8967,-6.8781,-6.8967,-6.8693,-5.7079,-5.9795,-6.2365,-6.2585,-6.4677,-6.6659,-6.6733,-6.8787,-7.0339,-6.9061,-6.9235,-6.9573,-6.944,-6.977,-7.0328,-7.1249,-6.9302,-6.7963,-6.8837,-6.7935,-6.7138,-6.7019,-6.7635,-6.8083,-6.8083,-6.8083,-6.8428,-6.9222,-6.998,-7.0705,-7.1463,-7.2257,-7.2713,-7.2713,-7.2713,-7.2713,-7.2713,-7.2713,-7.2713,0.0,-7.2713,-7.2713,-7.2713,-7.2713,-7.2713,-7.2713,-7.2713,-7.2713,-7.2713,-7.2713,-7.2713,-7.2755,-7.2755,-7.288,-7.3046,-7.2838,-7.288,-7.2963,-7.2755,-7.2713,-7.2713,-7.2713,-7.2713,-7.2713,-7.2713,-7.2609,-7.2429,-7.2429,-7.1843,-7.1256,-7.1256,-7.0705,-7.0118,-6.9946,-6.898,-6.8083,-6.8083,-6.8083,-6.8083,-6.8083,-6.8083,-6.8083,-6.8083,-6.828,-6.8513,-6.893,-6.9115,-6.9227,-6.9376,-6.9902,-7.0043,-6.9483,-6.9902,-7.0007,-6.9446,-6.9412,-6.9412,-6.9412,-6.9412,-6.9412,-6.9412,-6.9412,-6.9412,-6.9412,-6.9412,-6.9376,-6.9339,-6.919,-6.9153,-6.9264,-6.893,-6.8787,-5.8107,-5.9758,-6.086,-6.2401,-6.4677,-6.6649,-6.7095,-6.8803,-7.0384,-7.0417,-7.0444,-7.0159,-6.9242,-6.9504,-6.9972,-7.0184,-6.898,-6.818,-6.8651,-6.8038,-6.7394,-6.7014,-6.7635,-6.8083,-6.8083,-6.8083,-6.8256,-6.867,-6.9739,-7.0567,-7.0946,-7.205,-7.2713,-7.2713,-7.2713,-7.2713,-7.2713,-7.2713,-7.2713,-7.2713,-7.2713,-7.2713,-7.2713,-7.2713,-7.2713,-7.2713,-7.2713,-7.2713,-7.2713,-7.2713,-7.2755,-7.2838,-7.2838,-7.2963,-7.3129,-7.2922,-7.2922,-7.2963,-7.2755,-7.2713,-7.2713,-7.2713,-7.2713,-7.2713,-7.2713,-7.2713,-7.2713,-7.2713,-7.2395,-7.205,-7.205,-7.1498,-7.0912,-7.0912,-6.9773,-6.867,-6.867,-6.8359,-6.8083,-6.8083,-6.8083,-6.8123,-6.8201,-6.8548,-6.8816,-6.9078,-6.919,-6.9264,-6.9376,-6.9727,-6.9832,-6.9448,-6.9727,-6.9797,-6.9411,-6.9412,-6.9412,-6.9412,-6.9412,-6.9412,-6.9412,-6.9412,-6.9412,-6.9412,-6.9412,-6.9412,-6.9412,-6.9302,-6.9302,-6.9376,-6.9155,-6.9118,-5.9979,-6.0015,-5.9318,-6.3135,-6.4824,-6.5915,-6.7542,-6.8736,-7.0059,-7.1775,-7.1902,-7.1141,-6.932,-6.9559,-6.9816,-6.9247,-6.8742,-6.8497,-6.8571,-6.8251,-6.7778,-6.7256,-6.7738,-6.8083,-6.8083,-6.8083,-6.8083,-6.8083,-6.9532,-7.0394,-7.0394,-7.1843,-7.2713,-7.2713,-7.2713,-7.2713,-7.2713,-7.2713,-7.2713,-7.2713,-7.2713,-7.2713,-7.2713,-7.2713,-7.2713,-7.2713,-7.2713,-7.2713,-7.2713,-7.2713,-7.2838,-7.3005,-7.2963,-7.3088,-7.3252,-7.3088,-7.3005,-7.2963,-7.2797,-7.2755,-7.2755,-7.2713,-7.2713,-7.2713,-7.2713,-7.2713,-7.2713,-7.2713,-7.2713,-7.2713,-7.2755,-7.2271,-7.1788,-7.1788,-7.0752,-6.9716,-6.9538,-6.8842,-6.829,-6.829,-6.8226,-6.8201,-6.8358,-6.874,-6.904,-6.9078,-6.9227,-6.9339,-6.9376,-6.9481,-6.9516,-6.9376,-6.9481,-6.9516,-6.9376,-6.9412,-6.9412,-6.9412,-6.9412,-6.9412,-6.9412,-6.9412,-6.9412,-6.9412,-6.9412,-6.9412,-6.9412,-6.9412,-6.9412,-6.9412,-6.9412,-6.9412,-5.6492,-5.829,-6.075,-6.3429,-6.5228,-6.6639,-6.7652,-6.97,-7.1679,-7.2801,-7.1865,-7.0817,-7.062,-7.0253,-7.0321,-7.1299,-6.943,-6.8384,-6.9967,-6.8571,-6.7553,-6.7916,-6.8049,-6.8083,-6.8083,-6.8083,-6.8083,-6.8083,-6.9532,-7.0394,-7.0394,-7.1843,-7.2713,-7.2713,-7.2713,-7.2713,-7.2713,-7.2713,-7.2713,-7.2713,-7.2713,-7.2713,-7.2713,-7.2713,-7.2713,-7.2713,-7.2713,-7.2713,-7.2713,-7.2713,-7.2838,-7.3005,-7.2797,-7.288,-7.3046,-7.3005,-7.3005,-7.3005,-7.2963,-7.2963,-7.2922,-7.2755,-7.2713,-7.2713,-7.2713,-7.2713,-7.2713,-7.2713,-7.2713,-7.2755,-7.2922,-7.2894,-7.279,-7.279,-7.2167,-7.1295,-7.0435,-6.9635,-6.9118,-6.9118,-6.8725,-6.8358,-6.8397,-6.859,-6.8819,-6.9078,-6.9115,-6.919,-6.9376,-6.9937,-7.0113,-6.9446,-6.9972,-7.0078,-6.9446,-6.9412,-6.9412,-6.9412,-6.9412,-6.9412,-6.9412,-6.9412,-6.9412,-6.9412,-6.9412,-6.9412,-6.9412,-6.9412,-6.9412,-6.9412,-6.9412,-6.9412,-5.589,-5.8621,-6.1447,-6.2989,-6.4985,-6.6743,-6.7229,-6.9315,-7.1405,-7.2451,-7.2403,-7.1728,-7.0174,-7.0615,-7.0789,-6.9311,-6.9399,-6.9427,-6.8881,-6.8283,-6.78,-6.7536,-6.7842,-6.8083,-6.8083,-6.8083,-6.8083,-6.8083,-6.9532,-7.0394,-7.0394,-7.1843,-7.2713,-7.2713,-7.2713,-7.2713,-7.2713,-7.2713,-7.2713,-7.2713,-7.2713,-7.2713,-7.2713,-7.2713,-7.2713,-7.2713,-7.2713,-7.2755,-7.288,-7.288,-7.3005,-7.317,-7.2963,-7.2922,-7.3005,-7.288,-7.2922,-7.3005,-7.3005,-7.3088,-7.3129,-7.2922,-7.2963,-7.3005,-7.2922,-7.288,-7.288,-7.288,-7.2797,-7.2755,-7.2963,-7.3005,-7.3046,-7.317,-7.2892,-7.2539,-7.1987,-7.0821,-6.9952,-7.0038,-6.9961,-6.9737,-6.9474,-6.9558,-6.9608,-6.9335,-6.9264,-6.9302,-6.9376,-6.9656,-6.9762,-6.9411,-6.9691,-6.9727,-6.9411,-6.9412,-6.9412,-6.9412,-6.9412,-6.9412,-6.9412,-6.9412,-6.9412,-6.9412,-6.9412,-6.9412,-6.9412,-6.9412,-6.9412,-6.9412,-6.9412,-6.9412,-5.6044,-5.83,-6.0247,-6.2108,-6.4082,-6.5766,-6.6728,-6.8888,-7.0991,-7.1998,-7.2841,-7.2573,-6.9877,-7.1094,-7.1505,-6.8481,-6.962,-7.0285,-6.8627,-6.8284,-6.7981,-6.7441,-6.7812,-6.8083,-6.8083,-6.8083,-6.8083,-6.8083,-6.9325,-7.0187,-7.036,-7.167,-7.2506,-7.2671,-7.2713,-7.2713,-7.2713,-7.2713,-7.2713,-7.2713,-7.2713,-7.2713,-7.2713,-7.2713,-7.2713,-7.2755,-7.2755,-7.288,-7.3005,-7.3046,-7.3211,-7.3375,-7.317,-7.3088,-7.3088,-7.2922,-7.2963,-7.3088,-7.3046,-7.3129,-7.3252,-7.3005,-7.3046,-7.3129,-7.2963,-7.2922,-7.2922,-7.2922,-7.2797,-7.2755,-7.2963,-7.3046,-7.3129,-7.3293,-7.3375,-7.3264,-7.2804,-7.1663,-7.0642,-7.0632,-7.0764,-7.0788,-7.0465,-7.0552,-7.0529,-7.0043,-6.9797,-6.9656,-6.9656,-6.9553,-6.9412,-6.9412,-6.9412,-6.9412,-6.9412,-6.9412,-6.9412,-6.9412,-6.9412,-6.9412,-6.9412,-6.9412,-6.9412,-6.9412,-6.9412,-6.9412,-6.9412,-6.9412,-6.9412,-6.9412,-6.9412,-6.9412,-5.6294,-5.5948,-5.6043,-6.0836,-6.2137,-6.3107,-6.6358,-6.8939,-7.0991,-7.1998,-7.2841,-7.2721,-7.0538,-7.1875,-7.2818,-7.1231,-7.0549,-7.0418,-7.0847,-6.9,-6.7791,-6.8258,-6.8201,-6.8083,-6.8083,-6.8083,-6.8083,-6.8083,-6.8877,-6.9635,-7.036,-7.1118,-7.1912,-7.2713,-7.2713,-7.2713,-7.2713,-7.2713,-7.2713,-7.2713,-7.2713,-7.2713,-7.2713,-7.2713,-7.2797,-7.3005,-7.3005,-7.3005,-7.3005,-7.3211,-7.3456,-7.3617,-7.3375,-7.3293,-7.3293,-7.3293,-7.3293,-7.3252,-7.3088,-7.3129,-7.3252,-7.2838,-7.2713,-7.2713,-7.2713,-7.2713,-7.2713,-7.2713,-7.2713,-7.2755,-7.2963,-7.317,-7.3293,-7.3293,-7.3496,-7.3362,-7.2227,-7.1698,-7.1222,-7.0573,-7.0597,-7.0764,-7.0928,-7.1163,-7.1357,-7.1549,-7.092,-7.0429,-7.0429,-6.9832,-6.9412,-6.9412,-6.9412,-6.9412,-6.9412,-6.9412,-6.9412,-6.9412,-6.9412,-6.9412,-6.9412,-6.9412,-6.9412,-6.9412,-6.9412,-6.9412,-6.9412,-6.9412,-6.9412,-6.9412,-6.9412,-6.9412,-5.569,-5.5933,-5.6237,-5.8923,-6.1395,-6.3382,-6.4496,-6.7493,-7.0288,-7.1155,-7.2035,-7.2129,-7.0502,-7.1597,-7.1793,-6.8949,-6.9532,-7.004,-6.9176,-6.8779,-6.8537,-6.8401,-6.8319,-6.8241,-6.8083,-6.8083,-6.8083,-6.8083,-6.8842,-6.9601,-7.036,-7.1084,-7.1843,-7.2636,-7.2713,-7.2713,-7.2713,-7.2713,-7.2713,-7.2713,-7.2713,-7.2713,-7.2713,-7.2838,-7.2922,-7.3005,-7.3293,-7.3456,-7.3456,-7.3537,-7.3657,-7.3891,-7.3617,-7.3537,-7.3537,-7.3375,-7.3293,-7.3293,-7.3211,-7.3252,-7.3252,-7.3005,-7.3005,-7.3088,-7.2922,-7.288,-7.288,-7.288,-7.288,-7.2922,-7.3005,-7.3293,-7.3577,-7.3697,-7.3697,-7.3582,-7.3182,-7.2753,-7.2361,-7.2119,-7.2132,-7.2157,-7.1991,-7.2005,-7.1983,-7.176,-7.1447,-7.1271,-7.1271,-7.1061,-7.0885,-7.0885,-7.0885,-7.0885,-7.0885,-7.0885,-7.0885,-7.0885,-7.0394,-7.0113,-7.0113,-6.9621,-6.9412,-6.9412,-6.9412,-6.9412,-6.9412,-6.9412,-6.9412,-6.9412,-6.9412,-6.9412,-5.4723,-5.4862,-5.504,-5.6741,-5.9403,-6.1765,-6.2533,-6.5914,-6.9187,-7.0332,-7.1424,-7.187,-7.0829,-7.1393,-7.1199,-6.8522,-6.9379,-7.009,-6.9211,-6.9099,-6.9034,-6.8933,-6.8609,-6.8423,-6.8502,-6.8256,-6.8083,-6.8083,-6.8601,0.0,-7.0325,-7.0843,-7.1601,-7.2678,-7.2713,-7.2713,-7.2713,-7.2713,-7.2713,-7.2713,-7.2713,-7.2713,-7.2797,-7.2963,-7.3088,-7.3252,-7.3537,-7.3652,-7.3577,-7.3732,-7.3852,-7.3891,-7.3852,-7.3772,-7.3692,-7.3496,-7.3415,-7.3415,-7.3252,-7.3252,-7.3252,-7.3005,-7.3005,-7.3088,-7.2963,-7.2922,-7.2922,-7.3005,-7.3005,-7.3005,-7.3088,-7.3375,-7.3772,-7.397,-7.3891,-7.3772,-7.3732,-7.3375,-7.3088,-7.3005,-7.3046,-7.3037,-7.2833,-7.2809,-7.2827,-7.2532,-7.2254,-7.2079,-7.2079,-7.1868,-7.1728,-7.1728,-7.1728,-7.1728,-7.1728,-7.1728,-7.1728,-7.1728,-7.1201,-7.078,-7.0534,-7.0007,-6.9621,-6.9412,-6.9412,-6.9412,-6.9412,-6.9412,-6.9412,-6.9412,-6.9412,-6.9412,0.0,0.0,0.0,-5.438,-5.6145,-5.7993,-6.0639,-6.4218,-6.7555,-6.9485,-7.1051,-7.1928,-7.1417,-7.1313,-7.1096,-7.0299,-7.027,-7.0609,-7.1259,-7.0025,-6.9319,-6.9857,-6.9038,-6.863,-6.9227,-6.8566,-6.8083,-6.8083,-6.8083,-6.8739,-7.0291,-7.0394,-7.1118,-7.2678,-7.2713,-7.2713,-7.2713,-7.2713,-7.2713,-7.2713,-7.2713,-7.2797,-7.3005,-7.3005,-7.3252,-7.3692,-7.3732,-7.3537,-7.3375,-7.3777,-7.3891,-7.3732,-7.3931,-7.3891,-7.3692,-7.3732,-7.3732,-7.3617,-7.317,-7.317,-7.3252,-7.2838,-7.2713,-7.2713,-7.2713,-7.2713,-7.2755,-7.2963,-7.3005,-7.3088,-7.3293,-7.3496,-7.3772,-7.397,-7.401,-7.397,-7.3772,-7.3496,-7.3252,-7.3046,-7.317,-7.3293,-7.3334,-7.3537,-7.3772,-7.397,-7.3343,-7.2851,-7.2851,-7.2219,-7.1763,-7.1763,-7.1763,-7.1763,-7.1763,-7.1763,-7.1763,-7.1763,-7.1763,-7.1377,-7.0604,-7.0534,-7.0148,-6.9446,-6.9376,-6.9412,-6.9412,-6.9412,-6.9412,-6.9412,-6.9412,-6.9412,-5.3654,0.0,0.0,0.0,0.0,0.0,-5.7873,-6.1447,-6.4934,-6.6323,-6.7799,-6.9034,-6.9564,-6.9745,-6.9744,-6.9493,-6.9599,-6.9741,-6.992,-6.9597,-6.947,-6.9857,-6.9154,-6.8786,-6.9227,-6.8566,-6.8083,0.0,-6.8083,-6.8532,-6.9532,-7.0601,-7.1636,-7.2678,-7.2713,-7.2713,-7.2713,-7.2713,-7.2755,-7.2922,-7.2922,-7.3046,-7.3252,-7.3415,-7.3612,-7.3732,-7.3852,-7.3777,-7.3577,-7.3732,-7.3772,-7.3732,-7.3772,-7.3772,-7.3732,-7.3891,-7.3852,-7.3692,-7.3537,-7.3334,-7.3088,-7.2963,-7.2838,-7.2713,-7.2713,-7.2797,-7.2922,-7.3005,-7.3252,-7.3537,-7.3737,-7.3737,-7.3772,-7.397,-7.401,-7.401,-7.3931,-7.3891,-7.3697,-7.3293,-7.3252,-7.3375,-7.3537,-7.3652,-7.3772,-7.397,-7.3799,-7.3659,-7.3659,-7.3483,-7.3378,-7.3378,-7.3378,-7.3378,-7.3378,-7.3378,-7.3378,-7.3378,-7.2816,-7.2395,-7.2184,-7.1096,-7.0394,-7.0183,-6.9656,-6.9412,-6.9412,-6.9412,-6.9412,-6.9412,-6.9412,-6.9412,-5.2876,-5.2879,-5.2825,-5.2495,0.0,0.0,-5.7023,-6.0065,-6.332,-6.5842,-6.751,-6.8675,-6.9016,-6.9138,-6.9093,-6.882,-6.8575,-6.8712,-6.9707,-6.956,-6.9545,-6.9973,-6.923,-6.8903,-6.9387,-6.8646,-6.8083,-6.8083,-6.8083,-6.8566,-6.967,-7.0843,-7.1843,-7.2636,-7.2713,-7.2713,-7.2713,-7.2713,-7.2797,-7.3005,-7.3005,-7.317,-7.3456,-7.3617,-7.3772,-7.3852,-7.397,-7.3931,-7.3812,-7.3732,-7.3692,-7.3732,-7.3812,-7.3772,-7.3732,-7.3931,-7.3891,-7.3692,-7.3692,-7.3496,-7.3252,-7.3088,-7.2922,-7.2838,-7.2838,-7.2922,-7.3046,-7.3252,-7.3537,-7.3852,-7.397,-7.3931,-7.3852,-7.397,-7.401,-7.401,-7.401,-7.401,-7.3891,-7.3537,-7.3537,-7.3617,-7.3692,-7.3772,-7.3891,-7.397,-7.401,-7.401,-7.401,-7.401,-7.401,-7.401,-7.401,-7.401,-7.401,-7.401,-7.401,-7.401,-7.3553,-7.3167,-7.2816,-7.1938,-7.1166,-7.0534,-7.0078,-6.9691,-6.9412,-6.9412,-6.9412,-6.9412,-6.9412,-6.9412,-5.1748,-5.2075,-5.2258,-5.0827,-5.1967,0.0,-5.6696,-5.887,-6.1527,-6.5692,-6.7695,-6.8648,-6.8428,-6.838,-6.8216,-6.7691,-6.7128,-6.7482,-6.9702,-6.9565,-6.9442,-7.0025,-6.9342,-6.908,-6.9684,-6.8789,-6.8221,-6.8221,-6.8152,-6.8773,-7.0291,-7.1015,-7.1774,-7.2636,-7.2713,-7.2713,-7.2713,-7.2713,-7.2838,-7.3046,-7.3088,-7.3293,-7.3732,-7.3732,-7.3852,-7.401,-7.401,-7.401,-7.401,-7.3812,-7.3732,-7.3732,-7.3891,-7.3852,-7.3732,-7.3931,-7.3891,-7.3732,-7.3732,-7.3732,-7.3652,-7.3211,-7.3046,-7.3046,-7.3046,-7.3046,-7.317,-7.3577,-7.3852,-7.401,-7.401,-7.401,-7.401,-7.401,-7.401,-7.401,-7.401,-7.401,-7.397,-7.3772,-7.3891,-7.397,-7.3772,-7.3891,-7.401,-7.401,-7.401,-7.401,-7.401,-7.401,-7.401,-7.401,-7.401,-7.401,-7.401,-7.401,-7.401,-7.401,-7.401,-7.3694,-7.2957,-7.2851,-7.2149,-7.078,-7.0604,-7.0148,-6.9412,-6.9412,-6.9412,-6.9412,-6.9412,-6.9412,-5.1944,-5.0911,-5.062,-5.0836,-5.0845,0.0,-5.238,-5.3868,-5.5633,-5.8123,-6.0088,-6.1774,-6.3093,-6.3319,-6.3483,-6.3939,-6.4568,-6.5619,-6.7412,-6.8078,-6.8635,-6.9182,-6.9481,-6.988,-7.0446,-6.9618,-6.9049,-6.9049,-6.8463,-6.8773,-7.0291,-7.0532,-7.1256,-7.2678,-7.2713,-7.2713,-7.2713,-7.288,-7.3046,-7.3252,-7.3456,-7.3732,-7.3931,-7.3931,-7.397,-7.401,-7.401,-7.401,-7.401,-7.397,-7.3852,-7.3732,-7.3772,-7.3732,-7.3732,-7.3931,-7.397,-7.3931,-7.3931,-7.3852,-7.3692,-7.3577,-7.3415,-7.3252,-7.3252,-7.3375,-7.3652,-7.3891,-7.397,-7.401,-7.401,-7.401,-7.401,-7.401,-7.401,-7.401,-7.401,-7.401,-7.401,-7.397,-7.397,-7.401,-7.397,-7.397,-7.401,-7.401,-7.401,-7.401,-7.401,-7.401,-7.401,-7.401,-7.401,-7.401,-7.401,-7.401,-7.401,-7.401,-7.401,-7.394,-7.3764,-7.3132,-7.2641,-7.236,-7.1131,-7.0148,-6.9412,-6.9412,-6.9412,-6.9412,-6.9412,-6.9412,-5.2302,-5.1407,-5.095,-5.0174,-5.0366,0.0,0.0,-5.3451,-5.4811,-5.7025,-5.8839,-6.0202,-6.0653,-6.1382,-6.1917,-6.1917,-6.3031,-6.3938,-6.4007,-6.6075,-6.7865,-6.8527,-6.8371,-6.8597,-6.9593,-6.911,-6.8842,-6.9296,-6.8532,-6.8773,-7.0291,-7.0394,-7.1084,-7.2678,-7.2713,-7.2755,-7.2838,-7.2963,-7.3129,-7.3334,-7.3577,-7.3772,-7.3852,-7.397,-7.401,-7.401,-7.401,-7.401,-7.401,-7.401,-7.3931,-7.3852,-7.3852,-7.3812,-7.3732,-7.3931,-7.3931,-7.3891,-7.397,-7.3931,-7.3852,-7.3732,-7.3577,-7.3496,-7.3496,-7.3657,-7.3891,-7.397,-7.401,-7.401,-7.401,-7.401,-7.401,-7.401,-7.401,-7.401,-7.401,-7.401,-7.401,-7.401,-7.401,-7.401,-7.401,-7.401,-7.401,-7.401,-7.401,-7.401,-7.401,-7.401,-7.401,-7.401,-7.401,-7.401,-7.401,-7.401,-7.401,-7.401,-7.401,-7.401,-7.401,-7.3624,-7.3202,-7.2816,-7.1307,-7.0323,-6.9937,-6.9551,-6.9412,-6.9412,-6.9412,-6.9412,-5.2651,-5.1838,-5.1359,-4.9536,-5.0085,-5.1447,0.0,0.0,0.0,-5.7149,-5.8651,-5.9474,-5.916,0.0,0.0,-6.0352,0.0,0.0,0.0,-6.3587,0.0,-6.7199,-6.7118,-6.7385,-6.8392,-6.825,-6.8359,-6.9015,-6.8325,-6.8601,-7.0291,-7.0394,-7.1084,-7.2678,-7.2713,-7.2797,-7.2963,-7.3046,-7.317,-7.3334,-7.3617,-7.3772,-7.3772,-7.3931,-7.401,-7.401,-7.401,-7.401,-7.401,-7.401,-7.401,-7.401,-7.401,-7.3891,-7.3772,-7.3931,-7.3891,-7.3772,-7.397,-7.401,-7.397,-7.3812,-7.3772,-7.3772,-7.3772,-7.3891,-7.401,-7.401,-7.401,-7.401,-7.401,-7.401,-7.401,-7.401,-7.401,-7.401,-7.401,-7.401,-7.401,-7.401,-7.401,-7.401,-7.401,-7.401,-7.401,-7.401,-7.401,-7.401,-7.401,-7.401,-7.401,-7.401,-7.401,-7.401,-7.401,-7.401,-7.401,-7.401,-7.401,-7.401,-7.401,-7.401,-7.3624,-7.2816,-7.1587,-7.0885,-7.0745,-7.0113,-6.9691,-6.9412,-6.9412,-6.9412,-5.2724,-5.0532,-4.9907,-4.953,-4.9581,-5.008,-5.1472,0.0,-5.2213,-5.3967,0.0,-5.5614,-5.7064,0.0,0.0,0.0,0.0,0.0,-5.8716,-6.0447,-6.2292,-6.3934,-6.6843,-6.8438,-6.78,-6.7938,-6.8152,-6.8221,-6.7532,-6.8083,-7.0256,-7.0394,-7.1084,-7.2678,-7.2713,-7.2713,-7.2713,-7.3088,-7.3293,-7.3334,-7.3737,-7.397,-7.397,-7.401,-7.401,-7.401,-7.401,-7.401,-7.401,-7.401,-7.401,-7.401,-7.401,-7.401,-7.397,-7.401,-7.401,-7.397,-7.401,-7.401,-7.401,-7.397,-7.397,-7.397,-7.397,-7.397,-7.401,-7.401,-7.401,-7.401,-7.401,-7.401,-7.401,-7.401,-7.401,-7.401,-7.401,-7.401,-7.401,-7.401,-7.401,-7.401,-7.401,-7.401,-7.401,-7.401,-7.401,-7.401,-7.401,-7.401,-7.401,-7.401,-7.401,-7.401,-7.401,-7.401,-7.401,-7.401,-7.401,-7.401,-7.401,-7.401,-7.3624,-7.2816,-7.2641,-7.2219,-7.1587,-7.1482,-7.0745,-6.9412,-6.9412,-6.9412,-5.4259,-5.3188,-5.2706,-5.1317,-5.1955,-5.2761,-5.1976,-5.2094,-5.2561,-5.316,0.0,0.0,0.0,0.0,0.0,0.0,-5.8592,0.0,0.0,0.0,-6.181,0.0,0.0,0.0,-6.6604,-6.8081,-6.9105,0.0,-6.8739,-6.9118,-7.0946,-7.0636,-7.1084,-7.2678,-7.2713,-7.2755,-7.288,-7.317,-7.3293,-7.3334,-7.3777,-7.3931,-7.3852,-7.397,-7.401,-7.401,-7.401,-7.401,-7.401,-7.401,-7.401,-7.401,-7.401,-7.401,-7.401,-7.401,-7.401,-7.401,-7.401,-7.401,-7.401,-7.401,-7.401,-7.401,-7.401,-7.401,-7.401,-7.401,-7.401,-7.401,-7.401,-7.401,-7.401,-7.401,-7.401,-7.401,-7.401,-7.401,-7.401,-7.401,-7.401,-7.401,-7.401,-7.401,-7.401,-7.401,-7.401,-7.401,-7.401,-7.401,-7.401,-7.401,-7.401,-7.401,-7.401,-7.401,-7.401,-7.401,-7.401,-7.401,-7.401,-7.401,-7.3834,-7.3483,-7.3027,-7.2641,-7.236,-7.1903,-7.1377,-7.071,-7.0253,-6.9797,-5.6503,-5.597,-5.5543,-5.298,-5.3666,-5.4589,-5.2965,-5.3118,-5.355,-5.3218,-5.3608,0.0,0.0,0.0,-5.6448,-5.68,0.0,-5.9043,0.0,-5.9488,0.0,0.0,0.0,0.0,0.0,-6.7465,0.0,0.0,0.0,-6.9779,-7.089,-7.078,-7.1187,-7.2326,-7.2609,-7.2755,-7.2922,-7.317,-7.3293,-7.3334,-7.3777,-7.3931,-7.3812,-7.3931,-7.401,-7.401,-7.401,-7.401,-7.401,-7.401,-7.401,-7.401,-7.401,-7.401,-7.401,-7.401,-7.401,-7.401,-7.401,-7.401,-7.401,-7.401,-7.401,-7.401,-7.401,-7.401,-7.401,-7.401,-7.401,-7.401,-7.401,-7.401,-7.401,-7.401,-7.401,-7.401,-7.401,-7.401,-7.401,-7.401,-7.401,-7.401,-7.401,-7.401,-7.401,-7.401,-7.401,-7.401,-7.401,-7.401,-7.401,-7.401,-7.401,-7.401,-7.401,-7.401,-7.401,-7.401,-7.401,-7.401,-7.401,-7.401,-7.401,-7.401,-7.3413,-7.3132,-7.3132,-7.2606,-7.2219,-7.1974,-7.1201,-7.0534,0.0,0.0,0.0,-5.3928,0.0,0.0,0.0,0.0,-5.4564,0.0,0.0,0.0,0.0,-5.4745,-5.5265,-5.6722,-5.6938,0.0,0.0,-5.7309,-5.8657,-5.9553,0.0,0.0,0.0,-6.5532,0.0,0.0,0.0,0.0,-6.9644,-7.0793,-7.1498,-7.1532,-7.2291,-7.2713,-7.2713,-7.3129,-7.3293,-7.3334,-7.3777,-7.401,-7.401,-7.401,-7.401,-7.401,-7.401,-7.401,-7.401,-7.401,-7.401,-7.401,-7.401,-7.401,-7.401,-7.401,-7.401,-7.401,-7.401,-7.401,-7.401,-7.401,-7.401,-7.401,-7.401,-7.401,-7.401,-7.401,-7.401,-7.401,-7.401,-7.401,-7.401,-7.401,-7.401,-7.401,-7.401,-7.401,-7.401,-7.401,-7.401,-7.401,-7.401,-7.401,-7.401,-7.401,-7.401,-7.401,-7.401,-7.401,-7.401,-7.401,-7.401,-7.401,-7.401,-7.401,-7.401,-7.401,-7.401,-7.401,-7.401,-7.401,-7.401,-7.401,-7.3975,-7.3975,-7.3975,-7.394,-7.3518,-7.2746,-7.2009,-7.1658,0.0,0.0,-6.102,-5.8386,0.0,0.0,0.0,0.0,0.0,0.0,0.0,0.0,0.0,-5.6899,-5.7042,-5.8479,-5.7723,-5.7244,0.0,-5.8076,-5.818,-5.8623,-5.9593,-6.0668,0.0,0.0,0.0,0.0,0.0,0.0,0.0,-7.1263,-7.1739,-7.2257,-7.2575,-7.2713,-7.2713,-7.3129,-7.3293,-7.3334,-7.3777,-7.401,-7.401,-7.401,-7.401,-7.401,-7.401,-7.401,-7.401,-7.401,-7.401,-7.401,-7.401,-7.401,-7.401,-7.401,-7.401,-7.401,-7.401,-7.401,-7.401,-7.401,-7.401,-7.401,-7.401,-7.401,-7.401,-7.401,-7.401,-7.401,-7.401,-7.401,-7.401,-7.401,-7.401,-7.401,-7.401,-7.401,-7.401,-7.401,-7.401,-7.401,-7.401,-7.401,-7.401,-7.401,-7.401,-7.401,-7.401,-7.401,-7.401,-7.401,-7.401,-7.401,-7.401,-7.401,-7.401,-7.401,-7.401,-7.401,-7.401,-7.401,-7.401,-7.401,-7.401,-7.401,-7.401,-7.401,-7.3869,-7.3589,-7.3343,-7.2676,-6.3863,-6.4004,0.0,-6.116,-6.0496,0.0,-5.793,0.0,-5.6711,0.0,0.0,0.0,0.0,-5.7821,-5.7517,-5.8859,-5.8137,-5.7761,0.0,-5.7596,-5.6838,-5.7246,-5.8004,-5.9142,0.0,0.0,0.0,0.0,0.0,0.0,0.0,0.0,-7.2182,-7.2507,-7.2617,-7.2713,-7.2797,-7.3129,-7.3293,-7.3334,-7.3777,-7.401,-7.401,-7.401,-7.401,-7.401,-7.401,-7.401,-7.401,-7.401,-7.401,-7.401,-7.401,-7.401,-7.401,-7.401,-7.401,-7.401,-7.401,-7.401,-7.401,-7.401,-7.401,-7.401,-7.401,-7.401,-7.401,-7.401,-7.401,-7.401,-7.401,-7.401,-7.401,-7.401,-7.401,-7.401,-7.401,-7.401,-7.401,-7.401,-7.401,-7.401,-7.401,-7.401,-7.401,-7.401,-7.401,-7.401,-7.401,-7.401,-7.401,-7.401,-7.401,-7.401,-7.401,-7.401,-7.401,-7.401,-7.401,-7.401,-7.401,-7.401,-7.401,-7.401,-7.401,-7.401,-7.401,-7.401,-7.401,-7.401,-7.401,-7.3483]},{"header":{"parameterUnit":"m.s-1","parameterCategory":1,"la1":30.6,"la2":29.2853,"lo1":-89.7004,"lo2":-87.6739,"dy":0.0162,"dx":0.0183,"nx":112,"ny":82,"refTime":"2024-04-13T12:00:00:Z","depth":0,"parameterNumber":3,"parameterNumberName":"V-component_of_WINDS"},"data":[0.0,0.0,0.0,0.0,0.0,0.0,0.0,0.0,0.0,0.0,0.0,0.0,0.0,0.0,0.0,0.0,0.0,0.0,0.0,0.0,0.0,0.0,0.0,0.0,0.0,0.0,0.0,0.0,0.0,0.0,0.0,0.0,0.0,0.0,0.0,0.0,0.0,0.0,0.0,0.0,0.0,0.0,0.0,0.0,0.0,0.0,0.0,0.0,0.0,0.0,0.0,0.0,0.0,0.0,0.0,0.0,0.0,0.0,0.0,0.0,0.0,0.0,0.0,0.0,0.0,0.0,0.0,0.0,0.0,0.0,0.0,0.0,0.0,0.0,0.0,0.0,0.0,0.0,0.0,0.0,0.0,0.0,0.0,0.0,0.0,0.0,0.0,0.0,0.0,0.0,1.4863,1.4059,1.407,1.4066,1.405,1.4731,1.5898,1.7717,0.0,0.0,0.0,0.0,0.0,0.0,0.0,0.0,0.0,0.0,0.0,0.0,0.0,0.0,0.0,0.0,0.0,0.0,0.0,0.0,0.0,0.0,0.0,0.0,0.0,0.0,0.0,0.0,0.0,0.0,0.0,0.0,0.0,0.0,0.0,0.0,0.0,0.0,0.0,0.0,0.0,0.0,0.0,0.0,0.0,0.0,0.0,0.0,0.0,0.0,0.0,0.0,0.0,0.0,0.0,0.0,0.0,0.0,0.0,0.0,0.0,0.0,0.0,0.0,0.0,0.0,0.0,0.0,0.0,0.0,0.0,0.0,0.0,0.0,0.0,0.0,0.0,0.0,0.0,0.0,0.0,0.0,0.0,0.0,0.0,0.0,0.0,0.0,0.0,0.0,0.0,0.0,0.0,0.0,0.0,0.0,0.0,0.0,0.0,0.0,0.0,0.0,0.0,0.0,1.6285,1.6193,1.518,1.4813,1.554,1.7086,1.8706,2.0208,0.0,0.0,0.0,0.0,0.0,0.0,0.0,0.0,0.0,0.0,0.0,0.0,0.0,0.0,0.0,0.0,0.0,0.0,0.0,0.0,0.0,0.0,0.0,0.0,0.0,0.0,0.0,0.0,0.0,0.0,0.0,0.0,0.0,0.0,0.0,0.0,0.0,0.0,0.0,0.0,0.0,0.0,0.0,0.0,0.0,0.0,0.0,0.0,0.0,0.0,0.0,0.0,0.0,0.0,0.0,0.0,0.0,0.0,0.0,0.0,0.0,0.0,0.0,0.0,0.0,0.0,0.0,0.0,0.0,0.0,0.0,0.0,0.0,0.0,0.0,0.0,0.0,0.0,0.0,0.0,0.0,0.0,0.0,0.0,0.0,0.0,0.0,0.0,0.0,0.0,0.0,0.0,0.0,0.0,0.0,0.0,0.0,0.0,0.0,0.0,0.0,0.0,0.0,1.6303,1.647,1.7684,1.7089,1.6805,1.7221,1.8339,1.9577,2.097,2.0553,0.0,0.0,0.0,0.0,0.0,0.0,0.0,0.0,0.0,0.0,0.0,0.0,0.0,0.0,0.0,0.0,0.0,0.0,0.0,0.0,0.0,0.0,0.0,0.0,0.0,0.0,0.0,0.0,0.0,0.0,0.0,0.0,0.0,0.0,0.0,0.0,0.0,0.0,0.0,0.0,0.0,0.0,0.0,0.0,0.0,0.0,0.0,0.0,0.0,0.0,0.0,0.0,0.0,0.0,0.0,0.0,0.0,0.0,0.0,0.0,0.0,0.0,0.0,0.0,0.0,0.0,0.0,0.0,0.0,0.0,0.0,0.0,0.0,0.0,0.0,0.0,0.0,0.0,0.0,0.0,0.0,0.0,0.0,0.0,0.0,0.0,0.0,0.0,0.0,0.0,0.0,0.0,0.0,0.0,0.0,0.0,0.0,0.0,0.0,0.0,0.0,0.0,1.7147,1.7065,1.9034,1.8924,1.8749,1.9037,1.9536,2.0366,2.165,2.2282,0.0,0.0,0.0,0.0,0.0,0.0,0.0,0.0,0.0,0.0,0.0,0.0,0.0,0.0,0.0,0.0,0.0,0.0,0.0,0.0,0.0,0.0,0.0,0.0,0.0,0.0,0.0,0.0,0.0,0.0,0.0,0.0,0.0,0.0,0.0,0.0,0.0,0.0,0.0,0.0,0.0,0.0,0.0,0.0,0.0,0.0,0.0,0.0,0.0,0.0,0.0,0.0,0.0,0.0,0.0,0.0,0.0,0.0,0.0,0.0,0.0,0.0,0.0,0.0,0.0,0.0,0.0,0.0,0.0,0.0,0.0,0.0,0.0,0.0,0.0,0.0,0.0,0.0,0.0,0.0,0.0,0.0,0.0,0.0,0.0,0.0,0.0,0.0,0.0,0.0,0.0,0.0,0.0,0.0,0.0,0.0,0.0,0.0,0.0,0.0,0.0,0.0,1.8823,1.9318,2.0796,2.0055,1.985,2.0856,2.1469,2.2142,2.2914,2.3577,0.0,0.0,0.0,0.0,0.0,0.0,0.0,0.0,0.0,0.0,0.0,0.0,0.0,0.0,0.0,0.0,0.0,0.0,0.0,0.0,0.0,0.0,0.0,0.0,0.0,0.0,0.0,0.0,0.0,0.0,0.0,0.0,0.0,0.0,0.0,0.0,0.0,0.0,0.0,0.0,0.0,0.0,0.0,0.0,0.0,0.0,0.0,0.0,0.0,0.0,0.0,0.0,0.0,0.0,0.0,0.0,0.0,0.0,0.0,0.0,0.0,0.0,0.0,0.0,0.0,0.0,0.0,0.0,0.0,0.0,0.0,0.0,0.0,0.0,0.0,0.0,0.0,0.0,0.0,0.0,0.0,0.0,0.0,0.0,0.0,0.0,0.0,0.0,0.0,0.0,0.0,0.0,0.0,0.0,0.0,0.0,0.0,0.0,0.0,0.0,0.0,0.0,2.1299,2.1584,2.2854,2.3348,2.3541,2.3551,2.4134,2.4466,2.4326,0.0,0.0,0.0,0.0,0.0,0.0,0.0,0.0,0.0,0.0,0.0,0.0,0.0,0.0,0.0,0.0,0.0,0.0,0.0,0.0,0.0,0.0,0.0,0.0,0.0,0.0,0.0,0.0,0.0,0.0,0.0,0.0,0.0,0.0,0.0,0.0,0.0,0.0,0.0,0.0,0.0,0.0,0.0,0.0,0.0,0.0,0.0,0.0,0.0,0.0,0.0,0.0,0.0,0.0,0.0,0.0,0.0,0.0,0.0,0.0,0.0,0.0,0.0,0.0,0.0,0.0,0.0,0.0,0.0,0.0,0.0,0.0,0.0,0.0,0.0,0.0,0.0,0.0,0.0,0.0,0.0,0.0,0.0,0.0,0.0,0.0,0.0,0.0,0.0,0.0,0.0,0.0,0.0,0.0,0.0,0.0,0.0,0.0,0.0,0.0,0.0,0.0,2.257,2.3047,2.3368,2.405,2.5152,2.5687,2.5218,2.5864,2.599,2.5146,0.0,0.0,0.0,0.0,0.0,0.0,0.0,0.0,0.0,0.0,0.0,0.0,0.0,0.0,0.0,0.0,0.0,0.0,0.0,0.0,0.0,0.0,0.0,0.0,0.0,0.0,0.0,0.0,0.0,0.0,0.0,0.0,0.0,0.0,0.0,0.0,0.0,0.0,0.0,0.0,0.0,0.0,0.0,0.0,0.0,0.0,0.0,0.0,0.0,0.0,0.0,0.0,0.0,0.0,0.0,0.0,0.0,0.0,0.0,0.0,0.0,0.0,0.0,0.0,0.0,0.0,0.0,0.0,0.0,0.0,0.0,0.0,0.0,0.0,0.0,0.0,0.0,0.0,0.0,0.0,0.0,0.0,0.0,0.0,0.0,0.0,0.0,0.0,0.0,0.0,0.0,0.0,0.0,0.0,0.0,0.0,0.0,0.0,0.0,0.0,0.0,0.0,2.2204,2.3747,2.476,2.4172,2.5011,2.5582,2.5582,2.6472,2.6485,0.0,0.0,0.0,0.0,0.0,0.0,0.0,0.0,0.0,0.0,0.0,0.0,0.0,0.0,0.0,0.0,0.0,0.0,0.0,0.0,0.0,0.0,0.0,0.0,0.0,0.0,0.0,0.0,0.0,0.0,0.0,0.0,0.0,0.0,0.0,0.0,0.0,0.0,0.0,0.0,0.0,0.0,0.0,0.0,0.0,0.0,0.0,0.0,0.0,0.0,0.0,0.0,0.0,0.0,0.0,0.0,0.0,0.0,0.0,0.0,0.0,0.0,0.0,0.0,0.0,0.0,0.0,0.0,0.0,0.0,0.0,0.0,0.0,0.0,0.0,0.0,0.0,0.0,0.0,0.0,0.0,0.0,0.0,0.0,0.0,0.0,0.0,0.0,0.0,0.0,0.0,0.0,0.0,0.0,0.0,0.0,0.0,0.0,0.0,0.0,0.0,0.0,0.0,2.2836,2.4137,2.4858,2.4524,2.5704,2.6402,2.5979,2.7048,2.7059,2.5553,0.0,0.0,0.0,0.0,0.0,0.0,0.0,0.0,0.0,0.0,0.0,0.0,0.0,0.0,0.0,0.0,0.0,0.0,0.0,0.0,0.0,0.0,0.0,0.0,0.0,0.0,0.0,0.0,0.0,0.0,0.0,0.0,0.0,0.0,0.0,0.0,0.0,0.0,0.0,0.0,0.0,0.0,0.0,0.0,0.0,0.0,0.0,0.0,0.0,0.0,0.0,0.0,0.0,0.0,0.0,0.0,0.0,0.0,0.0,0.0,0.0,0.0,0.0,0.0,0.0,0.0,0.0,0.0,0.0,0.0,0.0,0.0,0.0,0.0,0.0,0.0,0.0,0.0,0.0,0.0,0.0,0.0,0.0,0.0,0.0,0.0,0.0,0.0,0.0,0.0,0.0,0.0,0.0,0.0,0.0,0.0,0.0,0.0,0.0,0.0,0.0,0.0,2.3345,2.4464,2.5123,2.4773,2.6071,2.6935,2.6857,2.7779,2.784,2.6547,0.0,0.0,0.0,0.0,0.0,0.0,0.0,0.0,0.0,0.0,0.0,0.0,0.0,0.0,0.0,0.0,0.0,0.0,0.0,0.0,0.0,0.0,0.0,0.0,0.0,0.0,0.0,0.0,0.0,0.0,0.0,0.0,0.0,0.0,0.0,0.0,0.0,0.0,0.0,0.0,0.0,0.0,0.0,0.0,0.0,0.0,0.0,0.0,0.0,0.0,0.0,0.0,0.0,0.0,0.0,0.0,0.0,0.0,0.0,0.0,0.0,0.0,0.0,0.0,0.0,0.0,0.0,0.0,0.0,0.0,0.0,0.0,0.0,0.0,0.0,0.0,0.0,0.0,0.0,0.0,0.0,0.0,0.0,0.0,0.0,0.0,0.0,0.0,0.0,0.0,0.0,0.0,0.0,0.0,0.0,0.0,0.0,0.0,0.0,0.0,0.0,0.0,2.3838,2.4889,2.5525,2.5194,2.627,2.7237,2.784,2.8498,2.8509,2.7706,0.0,0.0,0.0,0.0,0.0,0.0,0.0,0.0,0.0,0.0,0.0,0.0,0.0,0.0,0.0,0.0,0.0,0.0,0.0,0.0,0.0,0.0,0.0,0.0,0.0,0.0,0.0,0.0,0.0,0.0,0.0,0.0,0.0,0.0,0.0,0.0,0.0,0.0,0.0,0.0,0.0,0.0,0.0,0.0,0.0,0.0,0.0,0.0,0.0,0.0,0.0,0.0,0.0,0.0,0.0,0.0,0.0,0.0,0.0,0.0,2.1114,2.0119,0.0,0.0,0.0,0.0,0.0,0.0,0.0,0.0,0.0,0.0,0.0,0.0,0.0,0.0,0.0,0.0,0.0,0.0,0.0,0.0,0.0,0.0,0.0,0.0,0.0,0.0,0.0,0.0,0.0,0.0,0.0,0.0,0.0,0.0,0.0,0.0,0.0,0.0,0.0,0.0,2.4791,2.5668,2.6279,2.6194,2.6662,2.7056,2.7177,2.7581,2.7505,2.6672,2.669,0.0,0.0,0.0,0.0,0.0,0.0,0.0,0.0,0.0,0.0,0.0,0.0,0.0,0.0,0.0,0.0,0.0,0.0,0.0,0.0,0.0,0.0,0.0,0.0,0.0,0.0,0.0,0.0,0.0,0.0,0.0,0.0,0.0,0.0,0.0,0.0,0.0,0.0,0.0,0.0,0.0,0.0,0.0,0.0,0.0,0.0,0.0,0.0,0.0,0.0,0.0,0.0,0.0,0.0,0.0,0.0,0.0,0.0,0.0,2.1958,2.1527,0.0,0.0,0.0,0.0,0.0,0.0,0.0,0.0,0.0,0.0,0.0,0.0,0.0,0.0,0.0,0.0,0.0,0.0,0.0,0.0,0.0,0.0,0.0,0.0,0.0,0.0,0.0,0.0,0.0,0.0,0.0,0.0,0.0,0.0,0.0,0.0,0.0,0.0,0.0,0.0,2.5111,2.5908,2.6609,2.6964,2.7115,2.7358,2.7659,2.7719,2.7544,2.714,2.6946,0.0,0.0,0.0,0.0,0.0,0.0,0.0,0.0,0.0,0.0,0.0,0.0,0.0,0.0,0.0,0.0,0.0,0.0,0.0,0.0,0.0,0.0,0.0,0.0,0.0,0.0,0.0,0.0,0.0,0.0,0.0,0.0,0.0,0.0,0.0,0.0,0.0,0.0,0.0,0.0,0.0,0.0,0.0,0.0,0.0,0.0,0.0,0.0,0.0,0.0,0.0,0.0,0.0,2.1643,2.1724,2.2271,2.1737,2.2058,2.3075,2.2712,2.2966,2.3571,2.2401,0.0,0.0,0.0,0.0,0.0,0.0,0.0,0.0,0.0,0.0,0.0,0.0,0.0,0.0,0.0,0.0,0.0,0.0,0.0,0.0,0.0,0.0,0.0,0.0,2.9067,2.8883,2.7381,0.0,0.0,0.0,0.0,0.0,0.0,0.0,0.0,0.0,0.0,0.0,2.5556,2.6364,2.7068,2.7541,2.7568,2.784,2.8397,2.808,2.79,2.79,2.7223,2.6818,0.0,0.0,0.0,0.0,0.0,0.0,0.0,0.0,0.0,0.0,0.0,0.0,0.0,0.0,0.0,0.0,0.0,0.0,0.0,0.0,0.0,0.0,0.0,0.0,0.0,0.0,0.0,0.0,0.0,0.0,0.0,0.0,2.2458,2.2712,0.0,0.0,0.0,0.0,0.0,0.0,0.0,0.0,0.0,0.0,0.0,0.0,0.0,2.1884,2.2044,2.2258,2.2485,2.2807,2.2672,2.2953,2.3527,2.3193,2.326,2.3634,2.334,0.0,2.3117,2.4488,0.0,0.0,0.0,0.0,0.0,0.0,0.0,0.0,0.0,0.0,0.0,0.0,0.0,0.0,0.0,0.0,0.0,0.0,0.0,0.0,0.0,0.0,2.9781,3.0387,3.0516,3.0607,0.0,2.9154,2.784,2.8095,2.7765,0.0,0.0,0.0,0.0,0.0,0.0,0.0,2.7506,2.7966,2.8128,2.7949,2.7924,2.796,2.808,2.7762,2.7581,2.7581,2.7271,2.6866,2.6365,2.6013,0.0,0.0,0.0,0.0,0.0,0.0,0.0,0.0,0.0,0.0,0.0,0.0,0.0,0.0,0.0,0.0,0.0,0.0,0.0,0.0,0.0,0.0,0.0,0.0,0.0,0.0,0.0,0.0,0.0,2.2058,2.2044,2.2338,2.1949,2.1601,0.0,0.0,0.0,0.0,0.0,0.0,0.0,0.0,0.0,2.2458,2.2111,2.219,2.2739,2.2277,2.2261,2.2585,2.2379,2.2924,2.4205,2.408,2.4616,2.5623,2.5476,2.5396,2.5248,2.5084,2.4885,2.4812,0.0,0.0,0.0,0.0,2.7165,2.7624,2.8642,2.9461,2.9994,2.9529,0.0,0.0,0.0,0.0,0.0,0.0,0.0,0.0,0.0,0.0,2.9727,3.0589,3.0626,3.0571,3.0956,3.0204,2.9452,0.0,2.8168,2.7068,2.694,0.0,0.0,0.0,0.0,2.7409,2.7575,2.7967,2.814,2.802,2.784,2.7702,2.7702,2.7478,2.7297,2.7297,2.7194,2.6979,2.6772,2.6224,2.5617,0.0,0.0,0.0,0.0,0.0,0.0,0.0,0.0,0.0,0.0,0.0,0.0,0.0,0.0,0.0,0.0,0.0,0.0,0.0,0.0,0.0,0.0,0.0,0.0,0.0,0.0,0.0,0.0,2.2164,2.2004,2.2298,2.2004,2.1683,0.0,0.0,0.0,0.0,0.0,0.0,2.2071,2.2005,2.2215,2.2796,2.2336,2.2428,2.3082,2.237,2.2128,2.2393,2.2115,2.2935,2.4779,2.4779,2.5703,2.7375,2.7296,2.7248,2.7165,2.6331,2.6157,2.647,2.7654,2.8177,2.836,2.8609,2.9034,2.9812,3.0968,3.1622,3.1854,3.1854,3.1433,3.0864,3.0589,0.0,0.0,0.0,0.0,2.9085,3.0094,2.9892,2.9672,3.0571,3.0571,3.0461,3.0846,3.0534,3.0204,0.0,2.8902,2.7691,2.7669,0.0,0.0,0.0,0.0,2.7765,2.802,2.7988,2.7981,2.792,2.7591,2.7401,2.7401,2.7177,2.7073,2.7073,2.7073,2.7073,2.7073,2.6525,2.6131,2.5885,0.0,0.0,0.0,0.0,0.0,0.0,0.0,0.0,0.0,0.0,0.0,0.0,0.0,0.0,0.0,0.0,0.0,0.0,0.0,0.0,0.0,0.0,0.0,0.0,0.0,0.0,0.0,0.0,0.0,2.322,2.2739,0.0,0.0,0.0,0.0,2.1964,2.1648,2.1697,2.2232,2.1915,2.1976,2.2632,2.2561,2.2574,2.2599,2.2586,2.2574,2.2574,2.2574,2.3545,2.548,2.548,2.6444,2.8228,2.784,2.7697,2.7765,2.9094,2.917,2.8738,3.0488,3.0929,3.071,3.1494,3.1833,3.1979,3.3185,3.3418,3.2936,3.1818,3.0644,2.9874,3.0974,3.0497,0.0,0.0,3.0424,3.0204,3.0644,3.0736,3.0717,3.0772,3.0772,3.0864,3.1267,2.9855,2.8957,0.0,3.0662,3.027,2.9173,0.0,2.9112,2.9454,2.8931,2.8756,2.9545,2.8764,2.7956,2.7648,2.7339,2.7133,2.7133,2.7133,2.7073,2.7073,2.7073,2.7073,2.7073,2.7039,2.6679,2.5902,2.5833,0.0,0.0,0.0,0.0,0.0,0.0,0.0,0.0,0.0,0.0,0.0,0.0,0.0,0.0,0.0,0.0,0.0,0.0,0.0,0.0,0.0,0.0,0.0,0.0,0.0,0.0,0.0,0.0,2.2148,2.2108,0.0,2.1745,2.1755,2.1884,2.2078,2.212,2.2243,2.2518,2.2377,2.2408,2.2612,2.2337,2.2337,2.2624,2.2122,2.1978,2.2194,2.2253,2.3785,2.6419,2.5734,2.7462,3.0988,2.9885,2.997,3.0863,3.1417,3.0764,2.965,3.1186,3.1854,3.1983,3.2276,3.2386,3.2478,3.3193,3.334,3.3193,3.3028,3.2661,3.2331,3.2514,3.2258,3.1928,3.1946,3.1854,3.1661,3.1356,3.1385,3.1377,3.0735,3.0727,3.0828,3.0779,3.0193,2.9798,3.0085,2.9483,2.8934,2.9082,2.9341,2.944,2.9083,2.8794,2.8778,2.9119,2.8559,2.8019,2.7638,2.7484,2.733,2.709,2.7073,2.7073,2.7073,2.7073,2.7073,2.7073,2.7073,2.6953,2.6679,2.6662,2.5823,0.0,0.0,0.0,0.0,0.0,0.0,0.0,0.0,0.0,0.0,0.0,0.0,0.0,0.0,0.0,0.0,0.0,0.0,0.0,0.0,0.0,0.0,0.0,0.0,0.0,2.2671,2.2479,2.1932,2.2017,2.2009,2.1645,2.1817,2.2058,2.2248,2.2367,2.2447,2.2535,2.2447,2.2447,2.2535,2.2391,2.2463,2.2764,2.2346,2.225,2.2456,2.3024,2.477,2.7507,2.7311,2.8991,3.2227,3.154,3.1537,3.2029,3.2442,3.1889,3.0888,3.1709,3.2166,3.2404,3.2404,3.2478,3.2661,3.3083,3.3303,3.3468,3.3725,3.3817,3.3762,3.3505,3.3413,3.334,3.2918,3.2808,3.2649,3.2047,3.1913,3.1815,3.1085,3.0923,3.0815,3.062,3.0384,3.0095,2.9875,2.9079,2.863,2.9056,2.9358,2.9291,2.8393,2.8651,2.8832,2.8444,2.8369,2.8289,2.8032,2.7758,2.7501,2.7278,2.6799,2.6662,2.7056,2.6713,2.6679,2.7056,2.6696,2.6508,2.6508,2.6508,2.5754,2.4264,0.0,0.0,0.0,0.0,0.0,0.0,0.0,0.0,0.0,0.0,0.0,0.0,0.0,0.0,0.0,0.0,0.0,0.0,0.0,0.0,0.0,0.0,0.0,2.3754,2.2911,2.2454,2.267,2.2672,2.251,2.2185,2.2401,2.2637,2.265,2.2291,2.2186,2.2386,2.2224,2.2199,2.2472,2.285,2.307,2.307,2.3263,2.3389,2.3476,2.4991,2.6707,2.8629,3.0058,3.0997,3.1491,3.2552,3.2185,3.1012,3.2097,3.2558,3.257,3.2184,3.2019,3.2001,3.2001,3.2258,3.2661,3.3101,3.3486,3.3817,3.3817,3.3817,3.3817,3.3817,3.3817,3.3725,3.3358,3.3248,3.3138,3.2716,3.2331,3.1972,3.1954,3.1382,3.0897,3.0879,3.0316,2.9775,2.9775,2.9775,2.9648,2.9247,2.9183,2.8881,2.7843,2.8564,0.0,2.78,2.8351,2.8768,2.8717,2.8032,2.7569,2.7535,2.6199,2.5915,2.7004,2.6028,2.5983,2.7021,2.6011,2.5429,2.5429,2.5451,2.5434,2.5451,0.0,0.0,0.0,0.0,0.0,0.0,0.0,0.0,0.0,0.0,0.0,0.0,0.0,0.0,0.0,0.0,0.0,0.0,0.0,0.0,0.0,2.3233,2.3306,2.3025,2.3164,2.3067,2.2665,2.2645,2.2663,2.2718,2.2879,2.286,2.2841,2.2928,2.3041,2.3017,2.3267,2.3492,2.377,2.3858,2.3934,2.3934,2.4011,2.4049,2.4049,2.4796,2.5868,2.7261,2.6907,2.7876,2.9774,2.898,2.966,3.1354,3.167,3.2307,3.301,3.2588,3.2258,3.2001,3.2001,3.2258,3.2698,3.3395,3.3725,3.3817,3.3817,3.3817,3.3817,3.3817,3.3817,3.3798,3.3688,3.3651,3.3422,3.2456,3.2327,3.2111,3.0821,3.0544,3.0368,2.9892,2.9557,2.9405,2.9405,2.9405,2.9384,2.9235,2.9183,2.9119,2.8892,2.9107,0.0,2.8879,2.9038,2.8648,2.7261,2.6919,2.6576,2.6028,2.56,2.5915,2.7004,2.6842,2.6747,2.7056,2.6765,2.661,2.661,2.5788,2.5515,0.0,0.0,0.0,0.0,0.0,0.0,0.0,0.0,0.0,0.0,0.0,0.0,0.0,0.0,0.0,0.0,0.0,0.0,0.0,0.0,0.0,0.0,2.3714,2.3731,2.3301,2.3484,2.3528,2.3186,2.3041,2.3031,2.3111,2.3311,2.3377,2.3317,2.358,2.3782,2.3719,2.3997,2.4237,2.4405,2.457,2.4646,2.4646,2.5424,2.5859,2.5859,2.7424,2.8522,2.9303,2.9074,2.9486,3.0431,2.9997,3.0447,3.1578,3.2228,3.282,0.0,0.0,0.0,0.0,0.0,3.2551,3.2698,3.334,3.356,3.356,3.356,3.367,3.3817,3.3817,3.3817,3.3817,3.3817,3.3817,3.3623,3.2833,3.2636,3.2316,3.1143,3.0574,3.0278,2.9854,2.9485,2.9316,2.9316,2.9316,0.0,2.9284,2.9232,2.903,2.8506,2.8905,2.9076,2.846,2.8922,2.8888,2.7792,2.7535,2.7278,2.6833,2.6062,0.0,0.0,0.0,2.6413,2.6413,2.6413,0.0,0.0,0.0,2.572,2.6405,0.0,0.0,0.0,2.5292,2.5184,0.0,0.0,0.0,0.0,0.0,0.0,0.0,0.0,0.0,0.0,0.0,0.0,0.0,0.0,0.0,0.0,2.4275,2.4488,2.4119,2.3896,2.3758,2.4005,2.3674,2.3525,2.3564,2.3868,2.4035,2.3985,2.4291,2.4444,2.4406,2.4557,0.0,0.0,0.0,2.5224,2.5224,2.697,2.7856,2.7856,3.0675,3.2007,3.1956,3.3014,3.2678,3.1443,3.2385,3.2158,3.1135,3.2684,3.3487,3.3835,3.345,3.3065,3.2771,3.3156,3.2991,3.2661,3.3083,0.0,0.0,3.3156,3.3413,3.3743,3.3743,3.378,3.3817,3.3817,3.3817,3.3747,3.3348,3.2921,3.2477,3.2116,3.116,3.0452,3.0365,2.9806,2.9367,2.9316,2.9316,2.9316,2.9316,2.9316,2.8854,2.7535,2.846,2.8837,2.7501,2.8494,2.9248,2.9076,0.0,0.0,2.8528,2.697,2.6473,2.7604,2.6388,2.5617,2.5617,2.5583,2.5623,2.5623,2.5623,2.6062,2.7073,2.7073,2.7073,2.7039,2.5343,2.5104,0.0,0.0,0.0,0.0,0.0,0.0,0.0,0.0,0.0,0.0,0.0,0.0,0.0,0.0,0.0,2.4115,2.4409,2.4562,2.4488,2.4435,2.4275,2.4031,2.397,2.4136,2.4745,2.4825,2.4793,2.4724,2.5096,2.5227,2.5153,2.5502,2.5814,2.6054,2.6132,2.6132,2.6132,2.65,2.6683,2.6762,0.0,0.0,2.7304,2.754,2.7293,2.6749,2.6797,2.732,2.8261,2.9545,3.175,3.4238,3.3853,3.3651,3.3578,3.367,3.323,3.2661,3.3083,3.301,3.2716,3.2716,3.2991,3.334,3.334,3.356,0.0,3.3817,3.3817,3.3678,3.2981,3.2718,3.2437,3.1427,3.1047,3.0703,3.0152,2.9896,2.9693,2.9367,2.9316,2.9316,2.9316,2.9316,2.9213,2.8922,2.9128,2.9196,2.8922,2.9128,2.8854,2.7638,2.745,2.7278,2.6953,2.6593,2.6867,2.8015,2.7501,2.7176,2.7176,2.6902,2.6747,2.6747,2.6747,2.685,2.7073,2.7073,2.7073,2.7073,2.6696,2.6645,0.0,0.0,0.0,0.0,0.0,0.0,0.0,0.0,0.0,0.0,0.0,2.3634,2.3928,0.0,2.4075,2.4369,2.4543,2.4636,2.4636,2.4636,2.4562,2.4341,2.4267,2.4534,2.505,2.5211,2.5335,2.5474,2.5788,2.5934,2.5924,2.6094,2.6239,2.6386,2.6386,2.6386,2.6386,2.724,2.7619,2.7619,2.8466,2.9234,2.99,2.9656,2.9942,3.0505,3.023,3.0356,3.0976,3.1565,3.3073,3.499,3.4788,3.4605,3.4422,3.4422,3.4037,3.3505,3.3523,3.3248,3.2881,3.2661,3.2735,3.2955,3.3156,3.3358,3.356,3.3762,3.3817,3.3678,3.3121,3.2841,3.2526,3.1739,3.1288,3.0909,3.0532,3.0292,3.0104,2.9915,2.9864,2.9813,2.9641,2.9607,2.9539,2.9333,2.9316,2.9316,2.9316,2.9316,2.9025,2.8271,2.8186,2.8117,2.7912,2.7741,2.7792,2.8169,2.8015,2.7895,2.7895,2.7535,2.7347,2.7347,2.7176,2.7073,2.7073,2.7073,2.7073,2.7073,2.7073,2.7073,0.0,0.0,0.0,0.0,0.0,0.0,0.0,2.334,2.3273,2.3821,2.3754,2.3728,2.4195,2.4102,2.4088,2.4556,2.4636,2.4636,2.4636,2.4636,2.4636,2.4636,2.469,2.4836,2.5144,2.5424,2.5718,2.6012,2.6253,2.6386,2.6386,2.6386,2.6386,2.6386,2.6386,2.6386,2.6386,2.7776,2.8544,2.8934,3.0238,3.1683,3.3281,3.2993,3.3546,3.4732,3.4339,3.4163,3.4088,3.416,3.4721,3.5632,3.5705,3.554,3.5247,3.5174,3.4825,3.4348,3.4037,3.367,3.3266,3.2753,3.2643,3.2753,3.2936,3.3046,3.3193,3.3596,3.3707,3.3656,3.3381,3.3069,3.2701,3.2333,3.1687,3.1166,3.1098,3.084,3.0515,3.0446,3.0429,3.0309,2.9967,2.9898,2.9761,2.9367,2.9316,2.9316,2.9316,2.9316,2.9316,2.9316,2.9316,2.9316,2.9316,2.9042,2.8751,2.8426,2.834,2.8306,2.8306,2.7929,2.7723,2.7723,2.7432,2.7261,2.7176,2.7176,2.7141,2.7073,2.7073,2.7073,2.2044,2.2485,2.3086,2.3594,2.3688,2.3808,0.0,2.4262,2.4142,2.4476,2.4516,2.4516,2.4569,2.4556,2.4556,2.4623,2.4636,2.4636,2.4636,2.4636,2.4636,2.4636,2.4863,2.5144,2.5438,2.5732,2.6026,2.6319,2.6373,2.6386,2.6386,2.6386,2.6386,2.6386,2.6386,2.6386,2.6386,2.6623,2.7398,2.8934,2.909,3.0006,3.1606,3.1558,3.1618,3.1755,3.1491,3.1952,3.2895,3.3297,3.4242,3.565,3.5999,3.6109,3.6036,3.5687,3.5064,3.4403,3.4348,3.4073,3.3615,3.2845,3.2845,3.3028,3.2349,3.2386,3.2753,3.3175,3.3285,3.3239,3.3327,3.3278,3.3121,3.2701,3.2298,3.1896,3.1565,3.1185,3.084,3.0498,3.0429,3.0309,2.9967,2.9898,2.9761,2.9367,2.9316,2.9316,2.9316,2.9316,2.9316,2.9316,2.9316,2.9316,2.9316,2.9265,2.923,2.9196,2.8888,2.8717,2.8717,2.834,2.8134,2.8134,2.8083,2.7895,2.7552,2.7552,2.7381,2.7073,2.7073,2.7073,2.2832,2.3008,2.3046,2.3821,2.3901,2.3875,2.4289,2.4155,2.4075,2.4543,2.4636,2.4636,2.4636,2.4636,2.4636,2.4636,2.4636,2.4636,2.4636,2.4636,2.4636,2.4636,2.505,2.5384,2.5504,2.5785,2.6079,2.6373,2.6386,2.6386,2.6386,2.6386,2.6386,2.6386,2.7319,2.7398,2.6386,2.7398,2.7698,2.7476,2.7476,2.831,2.9928,2.9928,3.0377,3.1284,3.0934,3.1726,3.3363,3.3312,3.4306,3.5981,3.6146,3.6201,3.6182,3.6017,3.5742,3.5412,3.5192,3.4844,3.4422,3.3835,3.3615,3.3468,3.2881,3.2826,3.2955,3.2881,3.2863,3.2887,3.3171,3.2918,3.2626,3.2648,3.2263,3.1789,3.1651,3.1477,3.1285,3.1114,3.1097,3.0977,3.0617,3.0361,3.0087,2.971,2.9453,2.9316,2.9316,2.9316,2.9316,2.9316,2.9316,2.9316,2.9316,2.9316,2.9316,2.9316,2.9179,2.9093,2.9093,2.8734,2.8528,2.8528,2.8306,2.8117,2.7946,2.7946,2.7878,2.7723,2.7723,2.7723,2.31,2.314,2.3086,2.3981,2.4102,2.4062,2.4275,2.4155,2.4128,2.4556,2.4636,2.4636,2.4636,2.4636,2.4636,2.4636,2.4636,2.4636,2.4636,2.4636,2.4663,2.4743,2.5211,2.5545,2.5625,2.5905,2.6159,2.6373,2.6386,2.6386,2.6386,2.6386,2.6386,2.6386,2.7541,2.7619,2.6386,2.7619,2.7855,2.7083,2.7083,2.7933,2.9541,3.0006,3.0916,3.1972,3.2182,3.2818,3.3809,3.3926,3.4649,3.5587,3.6052,3.6201,3.6201,3.6201,3.6201,3.6164,3.5889,3.5595,3.5265,3.4752,3.4385,3.4055,3.3541,3.3303,3.3175,3.2991,3.2845,3.2863,3.3285,3.2965,3.2623,3.2858,3.2351,3.1841,3.1771,3.17,3.1559,3.1559,3.1559,3.1456,3.108,3.0789,3.0429,2.9967,2.9658,2.9436,2.9316,2.9316,2.9316,2.9316,2.9316,2.9316,2.9316,2.9316,2.9316,2.9316,2.9316,2.9316,2.9316,2.9059,2.8922,2.8922,2.8648,2.846,2.8357,2.8357,2.8306,2.8186,2.8186,2.8186,2.2218,2.2659,2.3086,2.3981,2.4409,2.4609,2.4623,2.4609,2.4609,2.4636,2.4636,2.4636,2.4636,2.4636,2.4636,2.4636,2.4636,2.4636,2.4636,2.4636,2.4743,2.5037,2.5331,2.5625,2.5919,2.6199,2.6373,2.6386,2.6386,2.6386,2.6386,2.6386,2.6386,2.6386,2.6465,2.6465,2.6386,2.6465,2.724,2.8856,2.8856,2.9696,3.13,3.2918,3.3676,3.3827,3.5345,3.5196,3.3919,3.5494,3.5196,3.407,3.5587,3.6201,3.6201,3.6201,3.6201,3.6201,3.6201,3.6182,3.6036,3.5265,3.5009,3.4844,3.4037,3.3523,3.3303,3.367,3.3505,3.3303,3.3688,3.3798,3.3659,3.333,3.2999,3.2561,3.2175,3.1841,3.1559,3.1559,3.1559,3.1456,3.108,3.1011,3.0754,3.0018,2.9881,2.9744,2.9367,2.9316,2.9316,2.9316,2.9316,2.9316,2.9316,2.9316,2.9316,2.9316,2.9316,2.9316,2.9316,2.9299,2.9299,2.9299,2.9282,2.9111,2.8768,2.8768,2.8563,2.8186,2.8186,2.8186,2.2525,2.3086,2.3634,2.4315,2.4569,2.4636,2.4636,2.4636,2.4636,2.4636,2.4329,2.4062,2.4062,2.4062,2.4062,2.4062,2.4382,2.4636,2.4636,2.4636,2.4743,2.5037,2.5331,2.5625,2.601,2.6226,2.6386,2.6386,2.6386,2.6386,2.6386,2.6386,2.6386,2.6386,2.7476,2.7541,2.6386,2.7462,2.8325,2.8934,3.0006,3.0762,3.13,3.1912,3.2141,3.2141,3.2674,3.3297,3.3844,3.4371,3.4914,3.5438,3.5978,3.6201,3.6201,3.6201,3.6201,3.6201,3.6201,3.6201,3.6164,3.5889,3.5815,3.5669,3.4862,3.4532,3.4275,3.3615,3.3321,3.3248,3.3395,3.3207,3.3055,3.3276,3.2981,3.2561,3.2175,3.2035,3.1841,3.163,3.1559,3.1525,3.1405,3.1183,3.0772,3.0018,2.9676,2.9453,2.9333,2.9316,2.9316,2.9316,2.9316,2.9316,2.9316,2.9316,2.9316,2.9316,2.9316,2.9316,2.9316,2.9316,2.9316,2.9316,2.9316,2.9248,2.9128,2.9128,2.9059,2.8939,2.8939,2.8939,2.2779,2.3313,2.3781,2.4462,2.4636,2.4636,2.4636,2.4636,2.4636,2.4636,2.4168,2.3768,2.3768,2.3848,2.3861,2.3647,2.4182,2.4596,2.4489,2.4569,2.4783,2.5184,2.5491,2.5785,2.6079,2.6279,2.6386,2.6386,2.6386,2.6386,2.6386,2.6386,2.6386,2.6386,2.7462,2.7776,2.7319,2.8503,2.9423,2.9955,3.0901,3.13,3.13,3.1912,3.2217,3.2217,3.2826,3.3373,3.3844,3.4446,3.4914,3.5363,3.5978,3.6201,3.6201,3.6201,3.6201,3.6201,3.6201,3.6201,3.6201,3.6201,3.6201,3.6109,3.5595,3.5357,3.5082,3.4293,3.3872,3.3651,3.3651,3.3317,3.3055,3.3276,3.3139,3.2771,3.2403,3.2193,3.2035,3.1841,3.17,3.1559,3.1559,3.1268,3.0857,3.0361,2.9847,2.947,2.9333,2.9316,2.9316,2.9316,2.9316,2.9316,2.9316,2.9316,2.9316,2.9316,2.9316,2.9316,2.9316,2.9316,2.9316,2.9316,2.9316,2.9316,2.9316,2.9316,2.9316,2.9316,2.9316,2.9316,2.2939,2.3354,2.3581,2.4422,2.4636,2.4636,2.4636,2.4636,2.4636,2.4549,2.4155,2.3741,2.3728,2.3955,2.3981,2.342,2.4062,2.4543,2.4262,2.4476,2.4863,2.5438,2.5772,2.6079,2.636,2.6386,2.6386,2.6386,2.6386,2.6386,2.6386,2.6386,2.6386,2.6386,2.6465,2.7319,2.8856,2.9336,3.0381,3.1793,3.1506,3.1331,3.1408,3.307,3.3844,3.3919,3.5512,3.5363,3.407,3.5587,3.5288,3.407,3.5587,3.6201,3.6201,3.6201,3.6201,3.6201,3.6201,3.6201,3.6201,3.6201,3.6201,3.6201,3.6201,3.5944,3.565,3.5632,3.5064,3.4458,3.4403,3.4128,3.3765,3.3418,3.3348,3.3209,3.2841,3.2403,3.2175,3.2105,3.1841,3.163,3.1559,3.1268,3.1011,3.1011,3.0395,2.9778,2.9384,2.9316,2.9316,2.9316,2.9316,2.9316,2.9316,2.9316,2.9316,2.9316,2.9333,2.9333,2.9316,2.9333,2.9333,2.9316,2.9316,2.9316,2.9316,2.9316,2.9316,2.9316,2.9316,2.9316,2.3166,2.3647,2.4088,2.4529,2.4636,2.4636,2.4636,2.4636,2.4569,2.4356,2.3848,2.3367,2.314,2.334,2.35,2.3354,2.4062,2.4609,2.4529,2.4783,2.5104,2.5464,2.5772,2.6079,2.636,2.6386,2.6386,2.6386,2.6386,2.6386,2.6386,2.6386,2.6386,2.6386,2.7619,2.8466,2.8934,3.0404,3.0851,3.0236,3.1152,3.1603,3.1681,3.3111,3.3844,3.3919,3.5512,3.5978,3.5605,3.6052,3.5978,3.5587,3.6052,3.6201,3.6201,3.6201,3.6201,3.6201,3.6201,3.6201,3.6201,3.6201,3.6201,3.6201,3.6201,3.6146,3.5999,3.5705,3.5467,3.5174,3.4568,3.433,3.4183,3.3751,3.3678,3.3608,3.3191,3.3051,3.2911,3.2631,3.2263,3.1894,3.163,3.1268,3.1011,3.1011,3.06,3.0155,2.9795,2.9487,2.9316,2.9316,2.9316,2.9316,2.9316,2.9316,2.9316,2.9316,2.959,2.9624,2.9316,2.959,2.9607,2.9316,2.9316,2.9316,2.9316,2.9316,2.9316,2.9316,2.9316,2.9316,2.2958,2.3519,2.4088,2.415,2.4395,2.4569,2.4315,2.4356,2.4329,2.3901,2.3447,2.3073,2.2968,2.322,2.3434,2.3166,2.3981,2.4596,2.4462,2.481,2.5184,2.5478,2.5892,2.6213,2.6373,2.6386,2.6386,2.6386,2.6386,2.6386,2.6386,2.6386,2.6781,2.7476,2.7824,2.8496,2.9486,3.1086,3.1588,3.1048,3.2219,3.243,3.1808,3.3922,3.4446,3.3919,0.0,3.6201,3.6201,3.6201,3.6201,3.6201,3.6201,3.6201,3.6201,3.6201,3.6201,3.6201,3.6201,3.6201,3.6201,3.6201,3.6201,3.6201,3.6201,3.6201,3.6164,3.5944,3.576,3.5522,3.5045,3.4678,3.4348,3.4128,3.3945,3.3747,3.3539,3.34,3.3121,3.2561,3.2263,3.1965,3.163,3.1388,3.1251,3.1251,3.0926,3.0617,3.0412,2.9898,2.9573,2.9573,2.9419,2.9316,2.9316,2.9316,2.9316,2.9316,2.9676,2.9795,2.9573,2.9932,2.995,2.9573,2.9573,2.9487,2.9316,2.9316,2.9316,2.9316,2.9316,2.9316,2.2671,2.3289,2.3723,2.3608,2.4103,2.4436,2.3888,2.3995,2.4022,2.3394,2.3086,2.2913,2.2941,2.337,2.35,2.3129,2.3848,2.4462,2.4289,2.477,2.5237,2.5478,2.6026,2.6386,2.6386,2.6386,2.6386,2.6386,2.6386,2.6465,2.6702,2.6544,2.7175,2.8915,2.7824,2.8175,3.029,3.161,3.2363,3.2548,3.3545,3.3293,3.1935,3.4778,3.5299,3.4057,3.562,3.6292,3.6292,3.6237,3.6201,3.6201,3.6201,3.6201,3.6201,3.6201,3.6201,3.6201,3.6201,3.6201,3.6201,3.6201,3.6201,3.6201,3.6201,3.6201,3.6201,3.6201,3.5962,3.5687,3.5632,3.5064,3.4477,3.4422,3.404,3.3747,3.3817,3.3539,3.3121,3.2333,3.2175,3.2052,3.17,3.1559,3.1559,3.1559,3.1302,3.1097,3.1097,3.0429,2.9967,2.9967,2.9624,2.9384,2.9384,2.9333,2.9316,2.9316,2.9727,2.995,2.9898,3.0292,3.0343,2.9967,2.9967,2.9795,2.9453,2.9453,2.9436,2.9384,2.9384,2.9367,2.2776,2.3073,2.3386,2.3556,2.3945,2.4195,2.3848,2.3995,2.3968,2.3113,2.31,2.3166,2.2913,2.3021,2.3222,2.3554,2.3781,2.4075,2.4502,2.5064,2.5451,2.5504,2.6026,2.6386,2.6386,2.6386,2.6386,2.6386,2.6386,2.7004,2.8388,2.7162,2.7272,2.9158,2.9239,2.9506,3.0209,3.1857,3.2158,3.1197,3.2582,3.3098,3.2842,3.4474,3.5098,3.4848,3.616,0.0,3.6696,3.6347,3.6201,3.6201,3.6201,3.6201,3.6201,3.6201,3.6201,3.6201,3.6201,3.6201,3.6201,3.6201,3.6201,3.6201,3.6201,3.6201,3.6201,3.6201,3.6164,3.6036,3.5705,3.5265,3.4825,3.4477,3.39,3.3469,3.3747,3.3747,3.3469,3.2771,3.2631,3.2351,3.1718,3.1559,3.1559,3.1559,3.1508,3.1474,3.1474,3.0806,3.0343,3.0343,3.0018,2.9795,2.9795,2.9504,2.9316,2.9316,2.995,3.0206,2.9915,3.0549,3.0737,3.0343,3.0343,3.0309,3.0241,3.0241,3.0087,2.9795,2.9795,2.9624,2.2341,2.2497,2.2748,2.2879,2.3393,2.372,2.3177,2.3541,2.3674,2.2619,2.2766,2.3046,2.2886,2.2993,2.3153,2.3273,2.3821,2.4209,2.4195,2.509,2.5692,2.5531,2.6026,2.6386,2.6386,2.6386,2.6386,2.6386,2.6386,2.6781,2.7541,2.7773,2.7997,2.8225,2.9329,3.0136,3.0539,3.1362,3.1772,3.1838,3.3452,3.3674,3.2778,3.514,3.5772,3.5037,3.652,3.7136,3.7118,3.6696,3.6531,3.6512,3.6292,3.6201,3.6201,3.6201,3.6201,3.6201,3.6201,3.6201,3.6201,3.6201,3.6201,3.6201,3.6201,3.6201,3.6201,3.6201,3.6201,3.6164,3.5981,3.5632,3.5284,3.5082,3.4284,3.3513,3.3296,3.326,3.3051,3.2474,3.2403,3.2193,3.17,3.1559,3.1559,3.1559,3.1559,3.1559,3.1559,3.1251,3.0943,3.0754,3.0395,3.0104,2.9915,2.9727,2.9521,2.9316,2.9847,3.0155,3.0172,3.072,3.0926,3.0737,3.0532,3.0497,3.0701,3.0308,3.0222,3.0442,3.024,3.0069,2.1872,2.1994,2.2243,2.2237,2.2808,2.3229,2.2591,2.3073,2.3354,2.2218,2.2458,2.2928,2.2928,2.3006,2.31,2.2979,2.3634,2.4088,2.3888,2.485,2.5571,2.5518,2.5972,2.6319,2.6386,2.6386,2.6386,2.6386,2.6453,2.648,2.648,2.8315,2.8948,2.7989,2.9496,3.0689,3.1354,3.1768,3.2453,3.3484,3.5248,3.5254,3.3796,3.6504,3.697,3.5861,3.7035,3.7558,3.7521,3.7118,3.6971,3.6916,3.6512,3.6347,3.6329,3.6237,3.6201,3.6201,3.6201,3.6201,3.6201,3.6201,3.6201,3.6201,3.6201,3.6201,3.6201,3.6201,3.6201,3.6201,3.6201,3.5907,3.5522,3.5303,3.4577,3.3803,3.2914,3.2755,3.265,3.2193,3.2105,3.1965,3.163,3.1559,3.1559,3.1559,3.1559,3.1559,3.1559,3.1559,3.1456,3.1165,3.0789,3.0446,3.0155,3.0052,2.9847,2.9453,2.9795,3.0138,3.0412,3.0806,3.1046,3.1131,3.0823,3.0771,3.1026,3.0496,3.0445,3.0905,3.0651,3.0515,2.1825,2.2061,2.2276,2.2256,2.2569,2.2789,2.2498,2.2913,2.31,2.2178,2.2458,2.2928,2.2928,2.2659,2.2672,2.3207,2.2913,2.2979,2.4022,2.4275,2.4649,2.5424,2.5798,2.6106,2.636,2.6386,2.6386,2.6386,2.664,2.6787,2.6787,2.8641,2.9748,3.0001,3.0486,3.149,3.3151,3.4701,3.5574,3.5702,3.7436,3.8249,3.8054,3.8371,3.8371,3.8274,3.8048,3.7961,0.0,3.7539,3.7374,3.7338,3.6934,3.6694,3.6732,3.6347,3.6201,3.6201,3.6201,3.6201,3.6201,3.6201,3.6201,3.6201,3.6201,3.6201,3.6201,3.6201,3.6201,3.6201,3.6201,3.5907,3.5303,3.4305,3.4234,3.4073,3.2947,3.302,3.3038,3.2245,3.2105,3.1965,3.163,3.1559,3.1559,3.1559,3.1559,3.1559,3.1559,3.1559,3.163,3.1525,3.1183,3.0943,3.0909,3.0583,3.0224,2.9864,3.0189,3.0395,3.0429,3.0806,3.1165,3.1508,3.1474,3.1302,3.1029,3.1338,3.1063,3.0429,3.0789,3.0772,2.2069,2.1897,2.1716,2.2177,2.2074,2.182,2.1673,2.1951,2.2058,2.1349,2.1804,2.2392,2.2565,2.2645,2.2699,2.2766,2.3033,2.3273,2.338,2.4315,2.505,2.5237,2.5825,2.6266,2.6373,2.6386,2.6386,2.6386,2.6653,2.7377,2.8589,2.9535,3.0159,3.029,3.1669,3.3057,3.4628,3.5553,3.6251,3.6856,3.8007,3.8432,3.8273,3.853,3.856,3.856,3.8456,3.8383,0.0,3.7943,3.7778,3.7741,3.7338,3.7191,3.7136,3.6732,3.6586,3.6549,3.6292,3.6201,3.6201,3.6201,3.6201,3.6201,3.6201,3.6201,3.6201,3.6201,3.6201,3.6201,3.6201,3.6091,3.5723,3.4828,3.4519,3.4175,3.3279,3.28,3.252,3.215,3.1926,3.1771,3.163,3.1559,3.1559,3.1559,3.1559,3.1559,3.1559,3.1559,3.1559,3.1559,3.1439,3.1251,3.1028,3.0874,3.0617,3.0241,3.0343,3.0532,3.0772,3.0926,3.1183,3.1559,3.1337,3.1408,3.1687,3.1408,3.1322,3.1444,3.1408,3.1268,2.2036,2.1765,2.1553,2.2173,2.162,2.092,2.1078,2.1139,2.1086,2.0641,2.1309,2.2044,2.2258,2.2605,2.2792,2.2579,2.3006,2.3287,2.3033,2.3995,2.4756,2.481,2.5371,2.5852,2.6106,2.6293,2.6386,2.6386,2.7214,2.8277,2.9676,3.1027,3.1868,3.1976,3.3321,3.4662,3.6176,3.6315,3.6823,3.7613,3.8181,3.8365,3.8199,3.8511,3.856,3.856,3.856,3.856,0.0,3.8328,3.8199,3.8163,3.7759,3.7594,3.7558,3.7154,3.7007,3.6952,3.6531,3.6384,3.6384,3.6256,3.6201,3.6201,3.6201,3.6201,3.6201,3.6201,3.6201,3.6201,3.6201,3.6201,3.6071,3.5428,3.5061,3.4584,3.3664,3.302,3.2543,3.2176,3.1919,3.1696,3.1647,3.17,3.17,3.163,3.17,3.17,3.163,3.1559,3.1559,3.1559,3.1559,3.1456,3.12,3.1183,3.1011,3.0617,3.06,3.072,3.1011,3.1011,3.1183,3.1559,3.1302,3.1391,3.1739,3.1391,3.1391,3.1739,3.1649,3.1559,2.1713,2.1829,2.1897,2.2242,2.1124,2.0178,2.0922,2.0631,2.0204,2.0233,2.1176,2.1991,2.1991,2.2472,2.2928,2.2928,2.2619,2.2645,2.3233,2.3073,2.322,2.4102,2.4222,2.4569,2.5438,2.6052,2.6386,2.6386,2.8514,2.9676,2.9354,3.3127,3.5538,3.5897,3.5555,3.6176,3.7938,3.7554,3.7554,3.8016,3.8016,3.8236,3.856,3.856,3.856,3.856,3.856,3.856,0.0,3.864,3.856,3.8524,3.8163,3.8016,3.7961,3.7558,3.7411,3.7356,3.6971,3.6749,3.6769,3.6347,3.6201,3.6201,3.6201,3.6201,3.6201,3.6201,3.6201,3.6201,3.6201,3.6201,3.6126,3.568,3.5605,3.5274,3.4158,3.3922,3.3548,3.2351,3.2124,3.2004,3.1628,3.1912,3.1965,3.163,3.1912,3.1965,3.163,3.1559,3.1559,3.1559,3.1559,3.1559,3.1559,3.1559,3.1405,3.1028,3.1011,3.1011,3.1011,3.1011,3.1183,3.1559,3.163,3.1388,3.1028,3.1388,3.1371,3.1028,3.1388,3.1559,2.0996,2.0849,2.0721,2.1107,2.0198,1.9253,1.9502,1.9429,1.9322,1.9301,2.0107,2.0975,2.1577,2.2004,2.2325,2.2525,2.2485,2.2485,2.2686,2.3153,2.3741,2.4422,2.5211,2.6262,2.7685,2.6973,2.6942,2.831,2.9051,3.0007,3.132,3.3677,3.5042,3.5162,3.6252,3.7053,3.7613,3.7759,3.7888,3.8016,3.831,3.8511,3.856,3.856,3.856,3.856,3.856,3.856,3.856,3.856,3.856,3.8621,3.8493,3.8438,3.8401,3.7979,3.7833,3.7778,3.7374,3.7062,3.6824,3.6677,3.6439,3.6201,3.6201,3.6201,3.6201,3.6201,3.6201,3.6201,3.6201,3.6201,3.6126,3.6052,3.5829,3.542,3.4773,3.4263,3.3635,3.2677,3.2296,3.2004,3.1628,3.17,3.17,3.163,3.17,3.17,3.163,3.1559,3.1559,3.1559,3.1559,3.1559,3.1559,3.1559,3.1508,3.1405,3.1388,3.1388,3.1388,3.1388,3.1439,3.1559,3.1559,3.1508,3.1388,3.1508,3.1508,3.1388,3.1508,3.1559,2.0454,2.0279,2.0146,2.0411,1.9483,1.8596,1.899,1.8805,1.8672,1.8848,1.9567,2.0401,2.0949,2.1563,2.2044,2.2231,2.2445,2.2659,2.2899,2.3313,2.3821,2.4409,2.5411,2.674,2.8414,2.7356,2.7568,3.01,3.0393,3.129,3.3038,3.4693,3.5491,3.5333,3.6489,3.7283,3.7429,3.7521,3.7723,3.8016,3.8273,3.8414,3.856,3.856,3.856,3.856,3.856,3.856,0.0,3.856,3.856,3.856,3.856,3.856,3.8524,3.8346,3.8255,3.8199,3.7796,3.7484,3.7228,3.6934,3.6549,3.6201,3.6201,3.6201,3.6201,3.6201,3.6201,3.6201,3.6201,3.6201,3.6201,3.6201,3.5978,3.5754,3.5306,3.4904,3.425,3.3349,3.2822,3.2371,3.1922,3.1804,3.1771,3.163,3.17,3.1771,3.163,3.1559,3.1559,3.1559,3.1559,3.1559,3.1559,3.1559,3.1559,3.1559,3.1559,3.1559,3.1559,3.1559,3.1559,3.1559,3.1559,3.1559,3.1559,3.1559,3.1559,3.1559,3.1559,3.1559,0.0,2.0029,2.0051,2.0079,1.9037,1.8218,1.9123,1.8721,0.0,1.8808,1.9586,2.0187,2.0193,2.1176,2.1937,2.1977,2.2458,2.3115,2.3661,2.3594,2.3674,2.4168,2.5024,2.6232,2.7981,2.7457,2.8386,3.184,3.2378,3.3054,3.4291,3.5879,3.6604,3.6219,3.6622,3.7026,3.7429,3.7081,3.7301,3.8053,3.8053,3.8273,3.856,3.856,3.856,0.0,3.856,3.856,0.0,3.856,3.856,3.856,3.856,3.856,3.856,3.856,3.856,3.8585,3.8199,3.8034,3.7888,3.7099,3.6567,3.6237,3.6219,3.6201,3.6201,3.6201,3.6201,3.6201,3.6201,3.6201,3.6201,3.6201,3.6201,3.6052,3.568,3.5605,3.5274,3.4084,3.3569,3.3113,3.2265,3.2118,3.1999,3.163,3.1841,3.1965,3.163,3.1559,3.1559,3.1559,3.1559,3.1647,3.1593,3.1576,3.1559,3.1559,3.1559,3.1559,3.1559,3.1559,3.1559,3.1559,3.1559,3.1559,3.1559,3.1559,3.1559,3.1559,3.1559,3.1559,1.9252,0.0,1.9203,1.9194,1.8791,1.8443,0.0,1.8701,1.8725,1.8848,1.9265,1.9773,2.0454,2.0975,2.1456,2.1911,2.2285,2.2739,2.334,2.4342,2.4877,2.4569,2.5504,2.715,2.957,2.9234,3.0208,3.3392,3.3785,3.4034,3.4256,3.5592,3.6311,3.6219,3.6622,3.7026,3.7429,3.7631,3.7998,3.8493,3.8493,3.8548,3.856,3.856,3.856,3.856,3.856,0.0,3.856,3.856,3.856,3.856,3.856,3.856,3.856,3.856,3.856,3.8621,3.853,3.8291,3.7888,3.7099,3.6769,3.6622,3.6311,3.6201,3.6201,3.6201,3.6201,3.6201,3.6201,3.6201,3.6201,3.6201,3.6201,3.6052,3.568,3.5605,3.5274,3.4084,3.3778,3.3426,3.2316,3.2127,3.1973,3.1681,3.17,3.17,3.163,3.1559,3.1559,3.1559,3.1559,3.1679,3.197,3.173,3.1559,3.1559,3.1559,3.1559,3.1559,3.1559,3.1559,3.1559,3.1559,3.1559,3.1559,3.1559,3.1559,3.1559,3.1559,3.1559,1.9172,1.8931,1.8691,1.8557,1.8397,1.833,1.8464,1.8718,1.8958,1.9092,1.9252,1.9546,2.016,2.0949,2.1577,2.1764,2.2712,2.346,2.3527,2.4329,2.4836,2.4589,2.5438,2.7249,3.0517,2.939,3.0438,3.504,3.4179,3.3963,3.5346,3.5897,3.6292,3.6494,3.6897,3.7209,3.7429,3.7814,3.8218,3.856,3.856,3.856,3.856,3.856,3.856,3.856,3.856,0.0,3.856,3.856,3.856,3.856,3.856,3.856,3.856,3.856,3.856,3.856,3.856,3.8365,3.7906,3.7301,3.6989,3.6751,3.6329,3.6201,3.6201,3.6201,3.6201,3.6201,3.6201,3.6201,3.6201,3.6201,3.6201,3.6126,3.5903,3.5903,3.5625,3.4815,3.4415,3.3874,3.3089,3.2646,3.2261,3.1885,3.1833,3.1836,3.1859,3.17,3.163,3.1841,3.17,3.1713,3.2107,3.1936,3.1833,3.1833,3.1833,3.1748,3.1647,3.1559,3.1559,3.1559,3.1559,3.1559,3.1559,3.1559,3.1559,3.1559,3.1559,3.1559,1.943,1.9038,1.8624,1.8262,1.8155,1.8195,1.8504,1.8784,1.9052,1.9252,1.943,1.9546,1.9933,2.1015,2.1817,2.1775,2.3273,2.4342,2.3901,2.4413,2.4796,2.4623,2.5677,2.7616,3.0864,2.9483,3.0718,3.6298,3.4341,3.4004,3.66,3.6457,3.6476,3.6824,3.7283,3.7521,3.7521,3.7906,3.8291,3.856,3.856,3.856,3.856,3.856,3.856,3.856,0.0,0.0,3.856,3.856,3.856,3.856,3.856,3.856,3.856,3.856,3.856,3.856,3.856,3.8401,3.8053,3.7649,3.7246,3.6842,3.6421,3.6256,3.6201,3.6201,3.6201,3.6201,3.6201,3.6201,3.6201,3.6201,3.6126,3.6126,3.6201,3.6126,3.5978,3.568,3.5056,3.4454,3.394,3.3293,3.2655,3.2278,3.221,3.2145,3.2104,3.1857,3.1769,3.1982,3.1771,3.1713,3.2107,3.2141,3.2159,3.221,3.221,3.2039,3.1662,3.1593,3.1559,3.1559,3.1559,3.1559,3.1559,3.1559,3.1559,3.1559,3.1559,3.1559,1.943,1.9479,1.9533,1.9239,1.8971,1.8798,1.8851,1.9092,1.9239,1.9038,1.9386,1.9973,2.0762,2.1096,2.147,2.2178,2.3193,2.3955,2.4115,2.6192,2.6975,2.4864,2.8054,3.0418,3.0548,3.225,3.4111,3.6105,3.615,3.6128,3.6254,3.6586,3.6769,3.6842,3.7539,3.7924,3.7924,3.8346,3.8505,3.856,3.856,3.856,3.856,3.856,3.856,3.856,0.0,3.856,3.856,3.856,3.856,3.856,3.856,3.856,3.856,3.856,3.856,3.856,3.856,3.8524,3.8475,3.8053,3.7649,3.7264,3.6861,3.6494,3.6201,3.6201,3.6201,3.6201,3.6201,3.6201,3.6201,3.6201,3.5903,3.5754,3.6126,3.5903,3.568,3.5605,3.5253,3.468,3.3992,3.3517,3.3049,3.2655,3.2604,3.2467,3.2162,3.2039,3.1919,3.1664,3.163,3.1713,3.2107,3.2141,3.2261,3.2587,3.2604,3.2433,3.2056,3.173,3.1559,3.1559,3.1559,3.1559,3.1559,3.1559,3.1559,3.1559,3.1559,3.1559,1.9172,1.9225,1.9412,1.9746,1.9973,2.0147,2.0307,2.0575,2.0655,2.0201,2.0321,2.0681,2.1243,2.1737,2.2498,2.3875,2.3781,2.3688,2.4142,2.5965,2.653,2.4784,2.8268,3.0835,3.0883,3.2134,3.3856,3.6014,3.574,3.5731,3.6474,3.6732,3.7026,3.7448,3.7833,3.8126,3.8346,3.8548,3.856,3.856,3.856,3.856,3.856,3.856,3.856,3.856,0.0,3.856,3.856,3.856,3.856,3.856,3.856,3.856,3.856,3.856,3.856,3.856,3.856,3.856,3.8487,3.8144,3.7741,3.7356,3.6952,3.6549,3.6201,3.6201,3.6201,3.6201,3.6201,3.6201,3.6201,3.6201,3.6052,3.5903,3.5903,3.5903,3.5829,3.5605,3.5456,3.5178,3.4553,3.4162,3.3667,3.3123,3.2998,3.2934,3.2791,3.2578,3.2436,3.2498,3.2148,3.2022,3.2398,3.2244,3.2296,3.2655,3.2689,3.2604,3.2433,3.2261,3.2073,3.1885,3.1867,3.1765,3.1559,3.1559,3.1559,3.1559,3.1559,3.1559,1.9078,1.9078,1.9319,2.0134,2.0468,2.0748,2.1323,2.1563,2.1577,2.1189,2.1269,2.1483,2.171,2.2432,2.3467,2.5275,2.4332,2.3776,2.4716,2.62,2.6746,2.5511,2.9189,3.1762,3.1863,3.2386,3.3754,3.5996,3.5255,3.5316,3.6749,3.6916,3.7301,3.7998,3.8108,3.831,3.864,3.856,3.856,3.856,3.856,3.856,3.856,3.856,3.856,3.856,3.856,3.856,3.856,3.856,3.856,3.856,3.856,3.856,3.856,3.856,3.856,3.856,3.856,3.856,3.8505,3.8273,3.7888,3.7484,3.7099,3.6677,3.6329,3.6237,3.6201,3.6201,3.6201,3.6201,3.6201,3.6201,3.6126,3.5978,3.5754,3.5903,3.5978,3.5754,3.568,3.5456,3.5082,3.4649,3.4186,3.3518,3.3409,3.342,3.3336,3.3046,3.2939,3.3162,3.2578,3.2381,3.2655,3.2518,3.2518,3.2809,3.2826,3.2826,3.2826,3.2655,3.2415,3.2141,3.2196,3.2025,3.1559,3.1786,3.1786,3.1559,3.1559,3.1559,1.9265,1.9533,1.988,2.0494,1.9853,1.9439,2.0828,2.0949,2.0842,2.1069,2.175,2.2325,2.2352,2.2632,2.3461,2.5302,2.4581,2.4429,2.646,2.863,2.9548,2.7968,3.2533,3.5217,3.3751,3.5007,3.594,3.6201,3.6088,3.6271,3.673,3.7191,3.7576,3.7998,3.8383,3.8524,3.856,3.856,3.856,3.856,3.856,3.856,3.856,3.856,3.856,3.856,3.856,3.856,3.856,3.856,3.856,3.856,3.856,3.856,3.856,3.856,3.856,3.856,3.856,3.856,3.864,3.8603,3.831,3.7888,3.7503,3.7099,3.6714,3.6311,3.6201,3.6201,3.6201,3.6201,3.6201,3.6201,3.5903,3.5754,3.6052,3.5903,3.5754,3.6052,3.5829,3.5456,3.5082,3.4649,3.429,3.3802,3.3802,3.3665,3.3346,3.3312,3.3083,3.2797,3.2655,3.2655,3.2689,3.2998,3.3203,3.322,3.322,3.322,3.322,3.2552,3.2159,3.2141,3.25,3.231,3.1559,3.2275,3.2275,3.1559,3.1559,3.1559,1.8838,1.9573,2.0347,2.0388,2.0347,2.0615,2.1911,2.2405,2.2472,2.2017,2.2632,2.3207,2.302,2.3821,2.4866,2.6008,2.5249,2.5593,2.8286,2.9671,3.0272,2.9818,3.3592,3.5587,3.3995,3.5288,3.6201,3.6201,3.6457,3.6769,3.7173,3.7576,3.7979,3.8383,3.8566,3.856,3.856,3.856,3.856,3.856,3.856,3.856,3.856,3.856,3.856,3.856,3.856,3.856,3.856,3.856,3.856,3.856,3.856,3.856,3.856,3.856,3.856,3.856,3.856,3.856,3.856,3.856,3.8365,3.7943,3.7539,3.7154,3.6751,3.6329,3.6201,3.6201,3.6201,3.6201,3.6201,3.6201,3.6052,3.5978,3.5829,3.5903,3.5903,3.5829,3.5903,3.5829,3.5456,3.5007,3.4649,3.4215,3.3988,3.3785,3.3648,3.3631,3.3563,3.3409,3.3186,3.2946,3.2707,3.3049,3.3272,3.3272,3.3494,3.3631,3.3631,3.3357,3.3157,3.321,3.3357,3.3311,3.3053,3.3049,3.2783,3.2275,3.2062,3.1799,1.9185,1.984,2.0575,2.0748,2.0949,2.139,2.2472,2.3046,2.3247,2.2913,2.3407,2.3875,2.3754,2.4556,2.5575,2.6619,2.582,2.6173,2.9305,3.0118,3.0643,3.1348,3.4281,3.5754,3.4672,3.5512,3.6256,3.6402,3.6677,3.7062,3.7576,3.7869,3.8199,3.8621,3.856,3.856,3.856,3.856,3.856,3.856,3.856,3.856,3.856,3.856,3.856,3.856,3.856,3.856,3.856,3.856,3.856,3.856,3.856,3.856,3.856,3.856,3.856,3.856,3.856,3.856,3.856,3.856,3.8456,3.8144,3.7741,3.7338,3.6934,3.6531,3.6311,3.6201,3.6201,3.6201,3.6201,3.6201,3.6201,3.6126,3.5829,3.5978,3.6126,3.5829,3.5978,3.6052,3.568,3.5306,3.4857,3.4441,3.4064,3.3761,3.3761,3.3761,3.3761,3.3761,3.3614,3.334,3.3066,3.3289,3.3443,3.3443,3.37,3.3761,3.3761,3.3734,3.3678,3.3717,3.3866,3.3821,3.3709,3.3687,3.3474,3.3105,3.2674,3.2322,2.0508,2.0454,2.0521,2.1683,2.155,2.1363,2.2231,2.2432,2.2686,2.3594,2.4008,2.4302,2.4583,2.4576,2.5248,2.7082,2.6112,2.6173,2.9305,3.0118,3.1007,3.2565,3.4805,3.6201,3.6201,3.6201,3.6384,3.6806,3.6767,3.7191,3.7979,3.8016,3.8218,3.8621,3.856,3.856,3.856,3.856,3.856,3.856,3.856,3.856,3.856,3.856,3.856,3.856,3.856,3.856,3.856,3.856,3.856,3.856,3.856,3.856,3.856,3.856,3.856,3.856,3.856,3.856,3.856,3.856,3.856,3.8487,3.8144,3.7741,3.7356,3.6952,3.6531,3.6219,3.6219,3.6219,3.6201,3.6201,3.6201,3.6201,3.6201,3.6201,3.6201,3.6201,3.6201,3.6052,3.568,3.5306,3.4857,3.4441,3.4064,3.3761,3.3761,3.3761,3.3761,3.3761,3.3761,3.3761,3.3761,3.3761,3.3761,3.3761,3.3761,3.3761,3.3761,3.3477,3.3272,3.3272,3.3717,3.3674,3.3346,3.4115,3.4318,3.3927,3.3491,3.3064,1.9345,2.0428,2.1403,2.1136,2.1871,2.2739,2.2993,2.322,2.3567,2.4235,2.4449,2.4382,2.4253,2.4849,2.5755,2.6766,2.6716,2.7819,3.1227,3.1912,3.2668,3.4501,3.5594,3.6201,3.6201,3.6201,3.6384,3.6806,3.7099,3.7466,3.7979,3.8291,3.8511,3.864,3.856,3.856,3.856,3.856,3.856,3.856,3.856,3.856,3.856,3.856,3.856,3.856,3.856,3.856,3.856,3.856,3.856,3.856,3.856,3.8402,3.8243,3.8481,3.8402,3.8243,3.8481,3.856,3.856,3.856,3.856,3.8487,3.8144,3.7924,3.7759,3.7356,3.6952,3.6641,3.6641,3.6421,3.6201,3.6201,3.6201,3.6201,3.6201,3.6201,3.6201,3.6201,3.6201,3.6126,3.6052,3.5456,3.4932,3.4857,3.4197,3.3761,3.3761,3.3761,3.3761,3.3761,3.3761,3.3761,3.3761,3.3761,3.3761,3.3761,3.3761,3.3761,3.3761,3.3734,3.3741,3.4041,3.4192,3.4346,3.4521,3.4702,3.4504,3.3912,3.4059,3.3775,2.0401,2.1323,2.2004,2.2058,2.2619,2.3273,2.3741,2.3981,2.4209,2.4569,2.4767,2.4701,2.4253,2.5341,2.6219,2.5999,2.7233,2.9016,3.1392,3.2408,3.3625,3.5358,3.5962,3.6201,3.6201,3.6201,3.6384,3.6806,3.7209,3.7594,3.7998,3.842,3.856,3.856,3.856,3.856,3.856,3.856,3.856,3.856,3.856,3.856,3.856,3.856,3.856,3.856,3.856,3.856,3.856,3.856,3.8481,3.8322,3.8322,3.8084,3.7845,3.8243,3.8243,3.8084,3.8481,3.856,3.856,3.856,3.856,3.8524,3.8346,3.8144,3.7961,3.7723,3.7374,3.7081,3.7081,3.6769,3.6421,3.6256,3.6201,3.6201,3.6201,3.6201,3.6201,3.6201,3.6201,3.6201,3.6201,3.568,3.5157,3.5007,3.4348,3.3761,3.3761,3.3761,3.3761,3.3761,3.3761,3.3761,3.3761,3.3761,3.3761,3.3761,3.3761,3.3761,3.3761,3.3761,3.3912,3.4139,3.4139,3.4365,3.4799,3.4799,3.4601,3.4373,3.439,3.4105,2.2539,2.2565,2.2378,2.3714,2.3527,2.33,2.4356,2.4602,2.4669,2.4616,2.4925,2.5088,2.449,2.5824,2.6507,2.5124,2.7694,3.0001,3.0315,3.2167,3.4018,3.5468,3.5962,3.6201,3.6201,3.6201,3.6384,3.6806,3.7209,3.7594,3.7998,3.842,3.856,3.856,3.856,3.856,3.856,3.856,3.856,3.856,3.856,3.856,3.856,3.856,3.856,3.856,3.856,3.856,3.856,3.856,3.8402,3.8084,3.8084,3.7845,3.7525,3.7924,3.8004,3.8084,3.8481,3.856,3.856,3.856,3.856,3.856,3.856,3.8383,3.8071,3.8071,3.7778,3.7484,3.7484,3.7191,3.6787,3.6402,3.6256,3.6201,3.6201,3.6201,3.6201,3.6201,3.6201,3.6201,3.6201,3.5829,3.5456,3.5007,3.4348,3.3837,3.3761,3.3795,3.3871,3.3761,3.3795,3.3871,3.3761,3.3761,3.3761,3.3761,3.3761,3.3761,3.3761,3.3761,3.3761,3.3761,3.3761,3.3988,3.4365,3.4365,3.4574,3.4857,3.4574,3.4249,2.0775,2.1764,2.2699,2.2779,2.3541,2.4262,2.4289,2.4697,2.4995,2.4625,2.4602,2.4466,2.3656,2.4964,2.5945,2.4881,2.8264,3.0972,3.0648,3.3226,3.523,3.5541,3.5962,3.6201,3.6201,3.6201,3.6384,3.6806,3.7209,3.7594,3.7998,3.842,3.856,3.856,3.856,3.856,3.856,3.856,3.856,0.0,3.856,3.856,3.856,3.856,3.856,3.856,3.856,3.856,3.856,3.856,3.856,3.8481,3.8481,3.8243,3.7924,3.8322,3.8243,3.8084,3.8481,3.856,3.856,3.856,3.856,3.856,3.856,3.8505,3.8511,3.8511,3.8199,3.7888,3.7888,3.7594,3.7283,3.7191,3.6677,3.6201,3.6201,3.6201,3.6201,3.6201,3.6201,3.6201,3.6201,3.5829,3.5381,3.4649,3.4365,3.4139,3.3837,3.4094,3.4162,3.3795,3.4094,3.4145,3.3871,3.3761,3.3761,3.3761,3.3761,3.3761,3.3761,3.3761,3.3761,3.3761,3.3761,3.3837,3.3912,3.4215,3.429,3.4064,3.4649,3.4672,2.1149,2.175,2.2151,2.2712,2.3541,2.4176,2.409,2.4534,2.4752,2.4419,2.4342,2.4329,2.435,2.5126,2.5554,2.5198,2.8837,3.1341,3.0297,3.346,3.5834,3.5632,3.5962,3.6201,3.6201,3.6201,3.6292,3.6512,3.7081,3.7521,3.7723,3.831,3.856,3.856,3.856,3.856,3.856,3.856,3.856,3.856,3.856,3.856,3.856,3.856,3.856,3.856,3.856,3.856,3.856,3.856,3.8481,3.8322,3.8322,3.8084,3.7765,3.8163,3.8163,3.8084,3.8481,3.856,3.856,3.856,3.856,3.856,3.856,3.856,3.856,3.856,3.8493,3.831,3.831,3.8016,3.7704,3.7704,3.7099,3.6512,3.6512,3.6347,3.6201,3.6201,3.6201,3.6126,3.5978,3.5399,3.4875,3.4441,3.4215,3.4064,3.3837,3.4008,3.4059,3.3778,3.4008,3.4042,3.3854,3.3761,3.3761,3.3761,3.3761,3.3761,3.3761,3.3761,3.3761,3.3761,3.3761,3.3761,3.3761,3.3988,3.3988,3.3837,3.4197,3.4273,2.183,2.1844,2.159,2.2979,2.3594,2.391,2.4001,2.4256,2.438,2.419,2.4058,2.4236,2.5059,2.5317,2.5411,2.5375,2.9002,3.1306,2.9993,3.338,3.5943,3.576,3.6017,3.6201,3.6201,3.6201,3.6201,3.6201,3.6971,3.7429,3.7429,3.8199,3.856,3.856,3.856,3.856,3.856,3.856,3.856,3.856,3.856,3.856,3.856,3.856,3.856,3.856,3.856,3.856,3.856,3.856,3.8322,3.8004,3.8084,3.7845,3.7525,3.7845,3.8004,3.8084,3.8402,3.8481,3.8481,3.856,3.856,3.856,3.856,3.856,3.856,3.856,3.856,3.856,3.8481,3.8225,3.797,3.797,3.7422,3.6874,3.6877,3.6604,3.6311,3.6311,3.6181,3.5978,3.568,3.5025,3.4516,3.4441,3.4139,3.3912,3.3837,3.3888,3.3905,3.3837,3.3888,3.3905,3.3837,3.3761,3.3761,3.3761,3.3761,3.3761,3.3761,3.3761,3.3761,3.3761,3.3761,3.3761,3.3761,3.3761,3.3761,3.3761,3.3761,3.3761,2.0561,2.1216,2.2111,2.3086,2.3741,2.409,2.404,2.434,2.4594,2.4447,2.4046,2.3609,2.3458,2.4534,2.5161,2.4377,2.8052,3.0895,3.0604,3.3259,3.5448,3.6016,3.6182,3.6201,3.6201,3.6201,3.6201,3.6201,3.6971,3.7429,3.7429,3.8199,3.856,3.856,3.856,3.856,3.856,3.856,3.856,3.856,3.856,3.856,3.856,3.856,3.856,3.856,3.856,3.856,3.856,3.856,3.8322,3.8004,3.8402,3.8243,3.7924,3.8004,3.8004,3.8004,3.8084,3.8084,3.8163,3.8481,3.856,3.856,3.856,3.856,3.856,3.856,3.856,3.8481,3.8163,3.8047,3.7993,3.7993,3.7668,3.7312,3.7352,3.7026,3.6751,3.6751,3.6158,3.568,3.5605,3.5231,3.4782,3.4441,3.4365,3.4215,3.3837,3.4111,3.4196,3.3871,3.4128,3.4179,3.3871,3.3761,3.3761,3.3761,3.3761,3.3761,3.3761,3.3761,3.3761,3.3761,3.3761,3.3761,3.3761,3.3761,3.3761,3.3761,3.3761,3.3761,2.0273,2.1336,2.2365,2.2926,2.3492,2.3799,2.3478,2.3782,2.4065,2.3891,2.3787,2.4087,2.5455,2.4919,2.4894,2.6867,2.8746,3.0278,3.1028,3.3581,3.5483,3.5815,3.6072,3.6201,3.6201,3.6201,3.6201,3.6201,3.6971,3.7429,3.7429,3.8199,3.856,3.856,3.856,3.856,3.856,3.856,3.856,3.856,3.856,3.856,3.856,3.856,3.856,3.856,3.856,3.8481,3.8243,3.8243,3.8004,3.7685,3.8084,3.8163,3.8004,3.8243,3.8163,3.8004,3.8004,3.7845,3.7765,3.8163,3.8084,3.8004,3.8163,3.8243,3.8243,3.8243,3.8402,3.8481,3.8084,3.8004,3.7924,3.7685,3.7542,3.746,3.7674,3.7458,3.7096,3.6849,3.6322,3.582,3.5303,3.4965,3.4516,3.4098,3.4064,3.3988,3.3837,3.3974,3.4025,3.3854,3.3991,3.4008,3.3854,3.3761,3.3761,3.3761,3.3761,3.3761,3.3761,3.3761,3.3761,3.3761,3.3761,3.3761,3.3761,3.3761,3.3761,3.3761,3.3761,3.3761,2.0191,2.1075,2.1779,2.2375,2.2771,2.3047,2.2895,2.3217,2.3581,2.3393,2.358,2.4635,2.7349,2.5438,2.4621,2.8104,2.8927,2.9563,3.0734,3.3489,3.5389,3.5577,3.5962,3.6201,3.6201,3.6201,3.6201,3.6201,3.6861,3.7319,3.7411,3.8108,3.8451,3.864,3.856,3.856,3.856,3.856,3.856,3.856,3.856,3.856,3.856,3.856,3.856,3.8481,3.8481,3.8243,3.8004,3.7924,3.7605,3.7285,3.7685,3.7845,3.7845,3.8163,3.8084,3.7845,3.7924,3.7765,3.7525,3.8004,3.7924,3.7765,3.8084,3.8163,3.8163,3.8163,3.8402,3.8481,3.8084,3.7924,3.7765,3.7445,3.7285,3.733,3.7798,3.7704,3.7462,3.7063,3.6641,3.6166,3.5421,3.4984,3.459,3.4162,3.4042,3.3974,3.3974,3.3829,3.3761,3.3761,3.3761,3.3761,3.3761,3.3761,3.3761,3.3761,3.3761,3.3761,3.3761,3.3761,3.3761,3.3761,3.3761,3.3761,3.3761,3.3761,3.3761,3.3761,3.3761,3.3761,2.0073,1.9881,1.9846,2.117,2.1471,2.1653,2.2284,2.3067,2.3581,2.3393,2.358,2.4685,2.7697,2.5806,2.4276,2.575,2.7347,2.863,2.9436,3.2451,3.4821,3.5533,3.5978,3.6201,3.6201,3.6201,3.6201,3.6201,3.6622,3.7026,3.7411,3.7814,3.8236,3.856,3.856,3.856,3.856,3.856,3.856,3.856,3.856,3.856,3.856,3.856,3.8402,3.8004,3.8004,3.8004,3.8004,3.7605,3.7125,3.6804,3.7285,3.7445,3.7445,3.7445,3.7445,3.7525,3.7845,3.7765,3.7525,3.8322,3.856,3.856,3.856,3.856,3.856,3.856,3.856,3.8481,3.8084,3.7685,3.7445,3.7445,3.7045,3.6877,3.7299,3.7722,3.7869,3.7426,3.7045,3.6641,3.6237,3.5772,3.5383,3.4994,3.459,3.435,3.435,3.4059,3.3761,3.3761,3.3761,3.3761,3.3761,3.3761,3.3761,3.3761,3.3761,3.3761,3.3761,3.3761,3.3761,3.3761,3.3761,3.3761,3.3761,3.3761,3.3761,3.3761,3.3761,3.3761,1.9789,2.0496,2.1026,2.0721,2.1817,2.2757,2.1815,2.2338,2.3093,2.3206,2.3406,2.4485,2.7683,2.668,2.6486,2.9712,3.0233,3.0727,3.2074,3.3546,3.4733,3.5512,3.5754,3.5903,3.6201,3.6201,3.6201,3.6201,3.6604,3.7007,3.7411,3.7796,3.8199,3.8621,3.856,3.856,3.856,3.856,3.856,3.856,3.856,3.856,3.856,3.8322,3.8163,3.8004,3.7445,3.7125,3.7125,3.6965,3.6724,3.6339,3.6804,3.6965,3.6965,3.7285,3.7445,3.7445,3.7605,3.7525,3.7525,3.8004,3.8004,3.7845,3.8163,3.8243,3.8243,3.8243,3.8243,3.8163,3.8004,3.7445,3.6885,3.6644,3.6644,3.6787,3.6887,3.747,3.797,3.7843,3.765,3.7263,3.6385,3.6097,3.5792,3.5097,3.4847,3.4761,3.4761,3.4659,3.4573,3.4573,3.4573,3.4573,3.4573,3.4573,3.4573,3.4573,3.4333,3.4196,3.4196,3.3957,3.3761,3.3761,3.3761,3.3761,3.3761,3.3761,3.3761,3.3761,3.3761,3.3761,1.9244,2.024,2.099,1.9745,2.089,2.2176,2.1761,2.2134,2.2814,2.3703,2.3639,2.4397,2.7811,2.7763,2.8046,3.0777,3.1253,3.1481,3.209,3.3422,3.4702,3.5503,3.562,3.5809,3.6328,3.6292,3.6201,3.6201,3.6476,0.0,3.7393,3.7668,3.8071,3.8542,3.856,3.856,3.856,3.856,3.856,3.856,3.856,3.856,3.8402,3.8084,3.7845,3.7525,3.6965,3.6822,3.6885,3.6661,3.642,3.6339,3.642,3.6581,3.6742,3.7045,3.7205,3.7205,3.7525,3.7525,3.7525,3.8004,3.8004,3.7845,3.8084,3.8163,3.8163,3.8004,3.8004,3.8004,3.7845,3.7285,3.6581,3.6178,3.6339,3.6581,3.6661,3.7285,3.7845,3.8004,3.7924,3.7516,3.6711,3.65,3.6112,3.5474,3.5241,3.5155,3.5155,3.5052,3.4984,3.4984,3.4984,3.4984,3.4984,3.4984,3.4984,3.4984,3.4727,3.4522,3.4402,3.4145,3.3957,3.3761,3.3761,3.3761,3.3761,3.3761,3.3761,3.3761,3.3761,3.3761,0.0,0.0,0.0,1.8195,1.8582,1.9827,2.2071,2.2504,2.3014,2.4948,2.4378,2.4591,2.8132,2.8812,2.8725,2.8403,3.01,3.0793,2.9153,3.2097,3.4656,3.5498,3.5557,3.5917,3.6712,3.6457,3.6201,3.6201,3.6201,3.6549,3.7374,3.7429,3.7814,3.8542,3.856,3.856,3.856,3.856,3.856,3.856,3.856,3.8402,3.8004,3.8004,3.7525,3.6742,3.6661,3.6965,3.7285,3.6483,3.6339,3.6661,3.6258,3.6339,3.6742,3.6661,3.6661,3.6804,3.7685,3.7685,3.7525,3.8322,3.856,3.856,3.856,3.856,3.8481,3.8084,3.8004,3.7845,3.7445,3.7045,3.6581,3.6178,3.6097,3.6178,3.6581,3.7045,3.7525,3.7924,3.7685,3.7445,3.7365,3.6965,3.6581,3.6178,3.5772,3.5532,3.5532,3.5224,3.5001,3.5001,3.5001,3.5001,3.5001,3.5001,3.5001,3.5001,3.5001,3.4813,3.4436,3.4402,3.4213,3.3871,3.3837,3.3761,3.3761,3.3761,3.3761,3.3761,3.3761,3.3761,1.8148,0.0,0.0,0.0,0.0,0.0,2.0992,2.2365,2.3634,2.3813,2.5349,2.6932,2.7929,2.9336,3.0235,3.0126,3.181,3.2985,3.2512,3.3289,3.4353,3.5498,3.5331,3.5617,3.6712,3.6457,3.6201,0.0,3.6201,3.6439,3.6971,3.7539,3.8089,3.8542,3.856,3.856,3.856,3.856,3.8481,3.8163,3.8163,3.7924,3.7525,3.7205,3.6902,3.6661,3.642,3.6483,3.6885,3.6661,3.6581,3.6661,3.6581,3.6581,3.6661,3.6339,3.642,3.6742,3.6965,3.7365,3.7845,3.8084,3.8322,3.856,3.856,3.8402,3.8163,3.8004,3.7525,3.6965,3.6563,3.6563,3.6581,3.6178,3.6097,3.6097,3.6258,3.6339,3.6644,3.7445,3.7525,3.7285,3.6965,3.6822,3.6581,3.6178,3.5994,3.5926,3.5926,3.584,3.5789,3.5789,3.5789,3.5789,3.5789,3.5789,3.5789,3.5789,3.5515,3.5309,3.5207,3.4676,3.4333,3.4231,3.3974,3.3761,3.3761,3.3761,3.3761,3.3761,3.3761,3.3761,1.8724,1.9181,1.9554,1.8396,0.0,0.0,2.1818,2.2831,2.3832,2.4781,2.5999,2.7312,2.8852,3.0062,3.1033,3.1726,3.2709,3.3235,3.2783,3.3365,3.4201,3.5269,3.518,3.5392,3.641,3.6308,3.6201,3.6201,3.6201,3.6457,3.7044,3.7668,3.8199,3.8621,3.856,3.856,3.856,3.856,3.8402,3.8004,3.8004,3.7685,3.7125,3.6804,3.6581,3.642,3.6178,3.6258,3.65,3.6661,3.6742,3.6661,3.65,3.6581,3.6661,3.6258,3.6339,3.6742,3.6742,3.7045,3.7525,3.7845,3.8163,3.8322,3.8322,3.8163,3.7924,3.7525,3.6965,3.642,3.6178,3.6258,3.642,3.6178,3.6097,3.6097,3.6097,3.6097,3.6339,3.6965,3.6965,3.6804,3.6742,3.6581,3.6339,3.6178,3.6097,3.6097,3.6097,3.6097,3.6097,3.6097,3.6097,3.6097,3.6097,3.6097,3.6097,3.6097,3.5874,3.5686,3.5515,3.5087,3.471,3.4402,3.4179,3.3991,3.3761,3.3761,3.3761,3.3761,3.3761,3.3761,1.9864,1.9664,1.9733,1.932,1.9948,0.0,2.3484,2.3636,2.3927,2.6458,2.6495,2.6955,2.9931,3.0713,3.1358,3.2924,3.2831,3.2368,3.1582,3.2809,3.4057,3.4818,3.5046,3.5388,3.6178,3.6287,3.6274,3.6274,3.6237,3.6567,3.7374,3.7759,3.8163,3.8621,3.856,3.856,3.856,3.856,3.8322,3.7924,3.7845,3.7445,3.6661,3.6661,3.642,3.6097,3.6097,3.6097,3.6097,3.65,3.6661,3.6661,3.6339,3.642,3.6661,3.6258,3.6339,3.6661,3.6661,3.6661,3.6822,3.7605,3.7924,3.7924,3.7924,3.7924,3.7685,3.6885,3.642,3.6097,3.6097,3.6097,3.6097,3.6097,3.6097,3.6097,3.6097,3.6097,3.6178,3.6581,3.6339,3.6178,3.6581,3.6339,3.6097,3.6097,3.6097,3.6097,3.6097,3.6097,3.6097,3.6097,3.6097,3.6097,3.6097,3.6097,3.6097,3.6097,3.6097,3.5943,3.5583,3.5532,3.5189,3.4522,3.4436,3.4213,3.3761,3.3761,3.3761,3.3761,3.3761,3.3761,2.0331,2.0183,2.0068,2.0475,2.0349,0.0,2.3048,2.4125,2.477,2.5122,2.7622,2.9547,2.8753,3.0117,3.1479,3.214,3.2192,3.2271,3.2425,3.302,3.3661,3.4493,3.5117,3.5798,3.6574,3.6725,3.6714,3.6714,3.6402,3.6567,3.7374,3.7503,3.7888,3.8542,3.856,3.856,3.856,3.8243,3.7924,3.7525,3.7125,3.6661,3.6258,3.6258,3.6178,3.6097,3.6097,3.6097,3.6097,3.6178,3.642,3.6661,3.6581,3.6661,3.6661,3.6258,3.6178,3.6258,3.6258,3.642,3.6742,3.6885,3.7205,3.7525,3.7525,3.7285,3.6822,3.6339,3.6178,3.6097,3.6097,3.6097,3.6097,3.6097,3.6097,3.6097,3.6097,3.6097,3.6097,3.6178,3.6178,3.6097,3.6178,3.6178,3.6097,3.6097,3.6097,3.6097,3.6097,3.6097,3.6097,3.6097,3.6097,3.6097,3.6097,3.6097,3.6097,3.6097,3.6097,3.6063,3.5977,3.5669,3.5429,3.5292,3.4693,3.4213,3.3761,3.3761,3.3761,3.3761,3.3761,3.3761,2.1331,2.0835,2.0715,2.1557,2.1704,0.0,0.0,2.4289,2.4979,2.5389,2.7437,2.9119,2.9174,3.0353,3.1378,3.1378,3.1598,3.1704,3.1565,3.2406,3.3192,3.3794,3.4368,3.5046,3.5843,3.6264,3.6604,3.6749,3.6439,3.6567,3.7374,3.7429,3.7796,3.8542,3.856,3.8481,3.8322,3.8084,3.7765,3.7365,3.6885,3.6581,3.642,3.6178,3.6097,3.6097,3.6097,3.6097,3.6097,3.6097,3.6258,3.642,3.642,3.65,3.6661,3.6258,3.6258,3.6339,3.6178,3.6258,3.642,3.6661,3.6885,3.7045,3.7045,3.6724,3.6339,3.6178,3.6097,3.6097,3.6097,3.6097,3.6097,3.6097,3.6097,3.6097,3.6097,3.6097,3.6097,3.6097,3.6097,3.6097,3.6097,3.6097,3.6097,3.6097,3.6097,3.6097,3.6097,3.6097,3.6097,3.6097,3.6097,3.6097,3.6097,3.6097,3.6097,3.6097,3.6097,3.6097,3.6097,3.5909,3.5703,3.5515,3.4779,3.4299,3.4111,3.3922,3.3761,3.3761,3.3761,3.3761,2.2621,2.1937,2.1867,2.2706,2.3288,2.3786,0.0,0.0,0.0,2.6346,2.7194,2.8288,2.9819,0.0,0.0,3.0751,0.0,0.0,0.0,3.1444,0.0,3.2775,3.3555,3.4242,3.4847,3.5718,3.6347,3.6696,3.6329,3.6476,3.7374,3.7429,3.7796,3.8542,3.856,3.8402,3.8084,3.7924,3.7685,3.7365,3.6804,3.6581,3.6581,3.6258,3.6097,3.6097,3.6097,3.6097,3.6097,3.6097,3.6097,3.6097,3.6097,3.6339,3.6581,3.6258,3.6339,3.6581,3.6178,3.6097,3.6178,3.65,3.6581,3.6581,3.6581,3.6339,3.6097,3.6097,3.6097,3.6097,3.6097,3.6097,3.6097,3.6097,3.6097,3.6097,3.6097,3.6097,3.6097,3.6097,3.6097,3.6097,3.6097,3.6097,3.6097,3.6097,3.6097,3.6097,3.6097,3.6097,3.6097,3.6097,3.6097,3.6097,3.6097,3.6097,3.6097,3.6097,3.6097,3.6097,3.6097,3.6097,3.5909,3.5515,3.4915,3.4573,3.4505,3.4196,3.3991,3.3761,3.3761,3.3761,2.4376,2.417,2.3938,2.4358,2.4518,2.4833,2.5804,0.0,2.6676,2.7276,0.0,2.9028,2.9627,0.0,0.0,0.0,0.0,0.0,2.9917,3.0303,3.0804,3.1183,3.3145,3.4496,3.4546,3.5555,3.6237,3.6274,3.5907,3.6201,3.7356,3.7429,3.7796,3.8542,3.856,3.856,3.856,3.7845,3.7445,3.7365,3.6563,3.6178,3.6178,3.6097,3.6097,3.6097,3.6097,3.6097,3.6097,3.6097,3.6097,3.6097,3.6097,3.6097,3.6178,3.6097,3.6097,3.6178,3.6097,3.6097,3.6097,3.6178,3.6178,3.6178,3.6178,3.6178,3.6097,3.6097,3.6097,3.6097,3.6097,3.6097,3.6097,3.6097,3.6097,3.6097,3.6097,3.6097,3.6097,3.6097,3.6097,3.6097,3.6097,3.6097,3.6097,3.6097,3.6097,3.6097,3.6097,3.6097,3.6097,3.6097,3.6097,3.6097,3.6097,3.6097,3.6097,3.6097,3.6097,3.6097,3.6097,3.6097,3.5909,3.5515,3.5429,3.5224,3.4915,3.4864,3.4505,3.3761,3.3761,3.3761,2.487,2.5227,2.5778,2.5237,2.5622,2.6019,2.5844,2.6044,2.6421,2.6795,0.0,0.0,0.0,0.0,0.0,0.0,3.0583,0.0,0.0,0.0,3.107,0.0,0.0,0.0,3.4395,3.5535,3.6358,0.0,3.6549,3.6751,3.7723,3.7558,3.7796,3.8542,3.856,3.8481,3.8243,3.7685,3.7445,3.7365,3.6483,3.6258,3.642,3.6178,3.6097,3.6097,3.6097,3.6097,3.6097,3.6097,3.6097,3.6097,3.6097,3.6097,3.6097,3.6097,3.6097,3.6097,3.6097,3.6097,3.6097,3.6097,3.6097,3.6097,3.6097,3.6097,3.6097,3.6097,3.6097,3.6097,3.6097,3.6097,3.6097,3.6097,3.6097,3.6097,3.6097,3.6097,3.6097,3.6097,3.6097,3.6097,3.6097,3.6097,3.6097,3.6097,3.6097,3.6097,3.6097,3.6097,3.6097,3.6097,3.6097,3.6097,3.6097,3.6097,3.6097,3.6097,3.6097,3.6097,3.6097,3.6097,3.6011,3.584,3.5618,3.5429,3.5292,3.507,3.4813,3.4487,3.4265,3.4042,2.5974,2.6472,2.709,2.584,2.6392,2.6994,2.6048,2.6267,2.6626,2.6679,2.6947,0.0,0.0,0.0,2.9542,2.9963,0.0,3.0818,0.0,3.0638,0.0,0.0,0.0,0.0,0.0,3.5026,0.0,0.0,0.0,3.7005,3.7495,3.7535,3.7851,3.8456,3.8505,3.8481,3.8163,3.7685,3.7445,3.7365,3.6483,3.6258,3.65,3.6258,3.6097,3.6097,3.6097,3.6097,3.6097,3.6097,3.6097,3.6097,3.6097,3.6097,3.6097,3.6097,3.6097,3.6097,3.6097,3.6097,3.6097,3.6097,3.6097,3.6097,3.6097,3.6097,3.6097,3.6097,3.6097,3.6097,3.6097,3.6097,3.6097,3.6097,3.6097,3.6097,3.6097,3.6097,3.6097,3.6097,3.6097,3.6097,3.6097,3.6097,3.6097,3.6097,3.6097,3.6097,3.6097,3.6097,3.6097,3.6097,3.6097,3.6097,3.6097,3.6097,3.6097,3.6097,3.6097,3.6097,3.6097,3.6097,3.6097,3.6097,3.5806,3.5669,3.5669,3.5412,3.5224,3.5104,3.4727,3.4402,0.0,0.0,0.0,2.6302,0.0,0.0,0.0,0.0,2.8253,0.0,0.0,0.0,0.0,2.8498,2.8769,2.9607,3.0036,0.0,0.0,2.9833,3.0373,3.0426,0.0,0.0,0.0,3.3661,0.0,0.0,0.0,0.0,3.6254,3.7345,3.8016,3.8034,3.8438,3.856,3.856,3.7765,3.7445,3.7365,3.6483,3.6097,3.6097,3.6097,3.6097,3.6097,3.6097,3.6097,3.6097,3.6097,3.6097,3.6097,3.6097,3.6097,3.6097,3.6097,3.6097,3.6097,3.6097,3.6097,3.6097,3.6097,3.6097,3.6097,3.6097,3.6097,3.6097,3.6097,3.6097,3.6097,3.6097,3.6097,3.6097,3.6097,3.6097,3.6097,3.6097,3.6097,3.6097,3.6097,3.6097,3.6097,3.6097,3.6097,3.6097,3.6097,3.6097,3.6097,3.6097,3.6097,3.6097,3.6097,3.6097,3.6097,3.6097,3.6097,3.6097,3.6097,3.6097,3.6097,3.6097,3.6097,3.6097,3.6097,3.608,3.608,3.608,3.6063,3.5857,3.5481,3.5121,3.495,0.0,0.0,2.9761,2.8477,0.0,0.0,0.0,0.0,0.0,0.0,0.0,0.0,0.0,2.8835,2.8986,3.0038,2.9969,2.9958,0.0,3.0474,3.0529,3.0355,3.0775,3.1162,0.0,0.0,0.0,0.0,0.0,0.0,0.0,3.7792,3.8144,3.842,3.8487,3.856,3.856,3.7765,3.7445,3.7365,3.6483,3.6097,3.6097,3.6097,3.6097,3.6097,3.6097,3.6097,3.6097,3.6097,3.6097,3.6097,3.6097,3.6097,3.6097,3.6097,3.6097,3.6097,3.6097,3.6097,3.6097,3.6097,3.6097,3.6097,3.6097,3.6097,3.6097,3.6097,3.6097,3.6097,3.6097,3.6097,3.6097,3.6097,3.6097,3.6097,3.6097,3.6097,3.6097,3.6097,3.6097,3.6097,3.6097,3.6097,3.6097,3.6097,3.6097,3.6097,3.6097,3.6097,3.6097,3.6097,3.6097,3.6097,3.6097,3.6097,3.6097,3.6097,3.6097,3.6097,3.6097,3.6097,3.6097,3.6097,3.6097,3.6097,3.6097,3.6097,3.6029,3.5892,3.5772,3.5446,3.1148,3.1217,0.0,2.983,2.9587,0.0,2.8254,0.0,2.7813,0.0,0.0,0.0,0.0,2.8828,2.8912,3.0152,3.0103,3.0149,0.0,3.0463,3.0142,3.0039,3.0275,3.0542,0.0,0.0,0.0,0.0,0.0,0.0,0.0,0.0,3.7977,3.7946,3.8408,3.856,3.8402,3.7765,3.7445,3.7365,3.6483,3.6097,3.6097,3.6097,3.6097,3.6097,3.6097,3.6097,3.6097,3.6097,3.6097,3.6097,3.6097,3.6097,3.6097,3.6097,3.6097,3.6097,3.6097,3.6097,3.6097,3.6097,3.6097,3.6097,3.6097,3.6097,3.6097,3.6097,3.6097,3.6097,3.6097,3.6097,3.6097,3.6097,3.6097,3.6097,3.6097,3.6097,3.6097,3.6097,3.6097,3.6097,3.6097,3.6097,3.6097,3.6097,3.6097,3.6097,3.6097,3.6097,3.6097,3.6097,3.6097,3.6097,3.6097,3.6097,3.6097,3.6097,3.6097,3.6097,3.6097,3.6097,3.6097,3.6097,3.6097,3.6097,3.6097,3.6097,3.6097,3.6097,3.6097,3.584]}]]